<?xml version="1.0" encoding="UTF-8"?>
<gpx version="1.0" creator="Trackator" xmlns:xsi="http://www.w3.org/2001/XMLSchema-instance" xmlns="http://www.topografix.com/GPX/1/0" xmlns:topografix="http://www.topografix.com/GPX/Private/TopoGrafix/0/1" xsi:schemaLocation="http://www.topografix.com/GPX/1/0 http://www.topografix.com/GPX/1/0/gpx.xsd http://www.topografix.com/GPX/Private/TopoGrafix/0/1 http://www.topografix.com/GPX/Private/TopoGrafix/0/1/topografix.xsd">
<metadata>
<link href="http://www.trackator.com">
<text>Trackator</text>
</link>
</metadata>
<time>2015-06-26T10:55:12Z</time>
<trk>
<name>Track: </name>
<desc>4x4-SUV</desc>
<trkseg>
<trkpt lat="53.3482805" lon="18.4455948">
<ele>83</ele>
<time>2015-06-26T10:55:12Z</time>
</trkpt>
<trkpt lat="53.3483115" lon="18.4455986">
<ele>91</ele>
<time>2015-06-26T10:55:14Z</time>
</trkpt>
<trkpt lat="53.3483265" lon="18.4455733">
<ele>95</ele>
<time>2015-06-26T10:55:16Z</time>
</trkpt>
<trkpt lat="53.3483289" lon="18.4455721">
<ele>97</ele>
<time>2015-06-26T10:55:18Z</time>
</trkpt>
<trkpt lat="53.3483284" lon="18.4455885">
<ele>96</ele>
<time>2015-06-26T10:55:20Z</time>
</trkpt>
<trkpt lat="53.3483280" lon="18.4455942">
<ele>97</ele>
<time>2015-06-26T10:55:22Z</time>
</trkpt>
<trkpt lat="53.3483321" lon="18.4455926">
<ele>98</ele>
<time>2015-06-26T10:55:24Z</time>
</trkpt>
<trkpt lat="53.3483329" lon="18.4455938">
<ele>98</ele>
<time>2015-06-26T10:55:26Z</time>
</trkpt>
<trkpt lat="53.3483330" lon="18.4455934">
<ele>98</ele>
<time>2015-06-26T10:55:28Z</time>
</trkpt>
<trkpt lat="53.3483332" lon="18.4455932">
<ele>98</ele>
<time>2015-06-26T10:55:30Z</time>
</trkpt>
<trkpt lat="53.3483334" lon="18.4455931">
<ele>98</ele>
<time>2015-06-26T10:55:32Z</time>
</trkpt>
<trkpt lat="53.3483335" lon="18.4455930">
<ele>98</ele>
<time>2015-06-26T10:55:34Z</time>
</trkpt>
<trkpt lat="53.3483337" lon="18.4455932">
<ele>98</ele>
<time>2015-06-26T10:55:36Z</time>
</trkpt>
<trkpt lat="53.3483337" lon="18.4455933">
<ele>98</ele>
<time>2015-06-26T10:55:38Z</time>
</trkpt>
<trkpt lat="53.3483341" lon="18.4455917">
<ele>98</ele>
<time>2015-06-26T10:55:40Z</time>
</trkpt>
<trkpt lat="53.3483344" lon="18.4455914">
<ele>98</ele>
<time>2015-06-26T10:55:42Z</time>
</trkpt>
<trkpt lat="53.3483344" lon="18.4455909">
<ele>98</ele>
<time>2015-06-26T10:55:44Z</time>
</trkpt>
<trkpt lat="53.3483345" lon="18.4455889">
<ele>98</ele>
<time>2015-06-26T10:55:46Z</time>
</trkpt>
<trkpt lat="53.3483346" lon="18.4455883">
<ele>98</ele>
<time>2015-06-26T10:55:50Z</time>
</trkpt>
<trkpt lat="53.3483347" lon="18.4455883">
<ele>98</ele>
<time>2015-06-26T10:55:52Z</time>
</trkpt>
<trkpt lat="53.3483349" lon="18.4455878">
<ele>98</ele>
<time>2015-06-26T10:55:54Z</time>
</trkpt>
<trkpt lat="53.3483350" lon="18.4455876">
<ele>98</ele>
<time>2015-06-26T10:55:56Z</time>
</trkpt>
<trkpt lat="53.3483350" lon="18.4455868">
<ele>98</ele>
<time>2015-06-26T10:55:58Z</time>
</trkpt>
<trkpt lat="53.3483350" lon="18.4455868">
<ele>98</ele>
<time>2015-06-26T10:56:00Z</time>
</trkpt>
<trkpt lat="53.3483350" lon="18.4455869">
<ele>98</ele>
<time>2015-06-26T10:56:02Z</time>
</trkpt>
<trkpt lat="53.3483347" lon="18.4455870">
<ele>98</ele>
<time>2015-06-26T10:56:04Z</time>
</trkpt>
<trkpt lat="53.3483345" lon="18.4455872">
<ele>98</ele>
<time>2015-06-26T10:56:06Z</time>
</trkpt>
<trkpt lat="53.3483345" lon="18.4455871">
<ele>98</ele>
<time>2015-06-26T10:56:08Z</time>
</trkpt>
<trkpt lat="53.3483343" lon="18.4455870">
<ele>98</ele>
<time>2015-06-26T10:56:10Z</time>
</trkpt>
<trkpt lat="53.3483342" lon="18.4455865">
<ele>98</ele>
<time>2015-06-26T10:56:12Z</time>
</trkpt>
<trkpt lat="53.3483341" lon="18.4455863">
<ele>98</ele>
<time>2015-06-26T10:56:16Z</time>
</trkpt>
<trkpt lat="53.3483342" lon="18.4455860">
<ele>98</ele>
<time>2015-06-26T10:56:18Z</time>
</trkpt>
<trkpt lat="53.3483343" lon="18.4455859">
<ele>98</ele>
<time>2015-06-26T10:56:20Z</time>
</trkpt>
<trkpt lat="53.3483343" lon="18.4455857">
<ele>98</ele>
<time>2015-06-26T10:56:22Z</time>
</trkpt>
<trkpt lat="53.3483344" lon="18.4455854">
<ele>98</ele>
<time>2015-06-26T10:56:24Z</time>
</trkpt>
<trkpt lat="53.3483345" lon="18.4455850">
<ele>98</ele>
<time>2015-06-26T10:56:26Z</time>
</trkpt>
<trkpt lat="53.3483345" lon="18.4455850">
<ele>98</ele>
<time>2015-06-26T10:56:28Z</time>
</trkpt>
<trkpt lat="53.3483345" lon="18.4455849">
<ele>98</ele>
<time>2015-06-26T10:56:30Z</time>
</trkpt>
<trkpt lat="53.3483344" lon="18.4455847">
<ele>98</ele>
<time>2015-06-26T10:56:32Z</time>
</trkpt>
<trkpt lat="53.3483343" lon="18.4455846">
<ele>98</ele>
<time>2015-06-26T10:56:36Z</time>
</trkpt>
<trkpt lat="53.3483352" lon="18.4455788">
<ele>98</ele>
<time>2015-06-26T10:56:38Z</time>
</trkpt>
<trkpt lat="53.3483405" lon="18.4455257">
<ele>99</ele>
<time>2015-06-26T10:56:40Z</time>
</trkpt>
<trkpt lat="53.3483296" lon="18.4454709">
<ele>99</ele>
<time>2015-06-26T10:56:44Z</time>
</trkpt>
<trkpt lat="53.3483339" lon="18.4454606">
<ele>100</ele>
<time>2015-06-26T10:56:46Z</time>
</trkpt>
<trkpt lat="53.3483067" lon="18.4454683">
<ele>100</ele>
<time>2015-06-26T10:56:48Z</time>
</trkpt>
<trkpt lat="53.3482643" lon="18.4454751">
<ele>99</ele>
<time>2015-06-26T10:56:50Z</time>
</trkpt>
<trkpt lat="53.3482221" lon="18.4454776">
<ele>99</ele>
<time>2015-06-26T10:56:52Z</time>
</trkpt>
<trkpt lat="53.3481859" lon="18.4454700">
<ele>100</ele>
<time>2015-06-26T10:56:54Z</time>
</trkpt>
<trkpt lat="53.3481649" lon="18.4454210">
<ele>100</ele>
<time>2015-06-26T10:56:56Z</time>
</trkpt>
<trkpt lat="53.3481870" lon="18.4453525">
<ele>99</ele>
<time>2015-06-26T10:56:58Z</time>
</trkpt>
<trkpt lat="53.3482416" lon="18.4453227">
<ele>102</ele>
<time>2015-06-26T10:57:00Z</time>
</trkpt>
<trkpt lat="53.3483187" lon="18.4453312">
<ele>102</ele>
<time>2015-06-26T10:57:02Z</time>
</trkpt>
<trkpt lat="53.3483812" lon="18.4453582">
<ele>102</ele>
<time>2015-06-26T10:57:04Z</time>
</trkpt>
<trkpt lat="53.3484385" lon="18.4453627">
<ele>104</ele>
<time>2015-06-26T10:57:06Z</time>
</trkpt>
<trkpt lat="53.3484930" lon="18.4453192">
<ele>102</ele>
<time>2015-06-26T10:57:08Z</time>
</trkpt>
<trkpt lat="53.3485338" lon="18.4452553">
<ele>103</ele>
<time>2015-06-26T10:57:10Z</time>
</trkpt>
<trkpt lat="53.3485618" lon="18.4451715">
<ele>102</ele>
<time>2015-06-26T10:57:14Z</time>
</trkpt>
<trkpt lat="53.3485563" lon="18.4451662">
<ele>101</ele>
<time>2015-06-26T10:57:18Z</time>
</trkpt>
<trkpt lat="53.3485602" lon="18.4451583">
<ele>101</ele>
<time>2015-06-26T10:57:20Z</time>
</trkpt>
<trkpt lat="53.3485624" lon="18.4451579">
<ele>101</ele>
<time>2015-06-26T10:57:22Z</time>
</trkpt>
<trkpt lat="53.3485703" lon="18.4451355">
<ele>100</ele>
<time>2015-06-26T10:57:24Z</time>
</trkpt>
<trkpt lat="53.3485868" lon="18.4450873">
<ele>99</ele>
<time>2015-06-26T10:57:26Z</time>
</trkpt>
<trkpt lat="53.3485890" lon="18.4450719">
<ele>100</ele>
<time>2015-06-26T10:57:28Z</time>
</trkpt>
<trkpt lat="53.3486022" lon="18.4450448">
<ele>101</ele>
<time>2015-06-26T10:57:30Z</time>
</trkpt>
<trkpt lat="53.3486133" lon="18.4450263">
<ele>101</ele>
<time>2015-06-26T10:57:32Z</time>
</trkpt>
<trkpt lat="53.3486151" lon="18.4450152">
<ele>101</ele>
<time>2015-06-26T10:57:34Z</time>
</trkpt>
<trkpt lat="53.3486143" lon="18.4450078">
<ele>102</ele>
<time>2015-06-26T10:57:36Z</time>
</trkpt>
<trkpt lat="53.3486128" lon="18.4450077">
<ele>102</ele>
<time>2015-06-26T10:57:38Z</time>
</trkpt>
<trkpt lat="53.3486121" lon="18.4450078">
<ele>102</ele>
<time>2015-06-26T10:57:40Z</time>
</trkpt>
<trkpt lat="53.3486125" lon="18.4450061">
<ele>102</ele>
<time>2015-06-26T10:57:42Z</time>
</trkpt>
<trkpt lat="53.3486090" lon="18.4450151">
<ele>103</ele>
<time>2015-06-26T10:57:44Z</time>
</trkpt>
<trkpt lat="53.3486051" lon="18.4450178">
<ele>102</ele>
<time>2015-06-26T10:57:46Z</time>
</trkpt>
<trkpt lat="53.3486028" lon="18.4450158">
<ele>103</ele>
<time>2015-06-26T10:57:48Z</time>
</trkpt>
<trkpt lat="53.3485970" lon="18.4449968">
<ele>102</ele>
<time>2015-06-26T10:57:50Z</time>
</trkpt>
<trkpt lat="53.3485355" lon="18.4449336">
<ele>104</ele>
<time>2015-06-26T10:57:52Z</time>
</trkpt>
<trkpt lat="53.3484374" lon="18.4449001">
<ele>102</ele>
<time>2015-06-26T10:57:54Z</time>
</trkpt>
<trkpt lat="53.3482868" lon="18.4448446">
<ele>102</ele>
<time>2015-06-26T10:57:56Z</time>
</trkpt>
<trkpt lat="53.3481775" lon="18.4447536">
<ele>100</ele>
<time>2015-06-26T10:57:58Z</time>
</trkpt>
<trkpt lat="53.3480474" lon="18.4446296">
<ele>100</ele>
<time>2015-06-26T10:58:00Z</time>
</trkpt>
<trkpt lat="53.3479358" lon="18.4444438">
<ele>101</ele>
<time>2015-06-26T10:58:02Z</time>
</trkpt>
<trkpt lat="53.3477642" lon="18.4444047">
<ele>99</ele>
<time>2015-06-26T10:58:04Z</time>
</trkpt>
<trkpt lat="53.3475860" lon="18.4444851">
<ele>99</ele>
<time>2015-06-26T10:58:06Z</time>
</trkpt>
<trkpt lat="53.3474848" lon="18.4447161">
<ele>97</ele>
<time>2015-06-26T10:58:08Z</time>
</trkpt>
<trkpt lat="53.3473382" lon="18.4449300">
<ele>96</ele>
<time>2015-06-26T10:58:10Z</time>
</trkpt>
<trkpt lat="53.3472797" lon="18.4449785">
<ele>95</ele>
<time>2015-06-26T10:58:12Z</time>
</trkpt>
<trkpt lat="53.3472334" lon="18.4449741">
<ele>96</ele>
<time>2015-06-26T10:58:14Z</time>
</trkpt>
<trkpt lat="53.3472069" lon="18.4449567">
<ele>94</ele>
<time>2015-06-26T10:58:16Z</time>
</trkpt>
<trkpt lat="53.3471587" lon="18.4449091">
<ele>94</ele>
<time>2015-06-26T10:58:18Z</time>
</trkpt>
<trkpt lat="53.3470861" lon="18.4447825">
<ele>95</ele>
<time>2015-06-26T10:58:20Z</time>
</trkpt>
<trkpt lat="53.3470058" lon="18.4446191">
<ele>94</ele>
<time>2015-06-26T10:58:22Z</time>
</trkpt>
<trkpt lat="53.3469539" lon="18.4444458">
<ele>94</ele>
<time>2015-06-26T10:58:24Z</time>
</trkpt>
<trkpt lat="53.3470337" lon="18.4441730">
<ele>94</ele>
<time>2015-06-26T10:58:26Z</time>
</trkpt>
<trkpt lat="53.3470880" lon="18.4440593">
<ele>94</ele>
<time>2015-06-26T10:58:28Z</time>
</trkpt>
<trkpt lat="53.3471407" lon="18.4439207">
<ele>95</ele>
<time>2015-06-26T10:58:30Z</time>
</trkpt>
<trkpt lat="53.3471551" lon="18.4438924">
<ele>98</ele>
<time>2015-06-26T10:58:32Z</time>
</trkpt>
<trkpt lat="53.3471811" lon="18.4438175">
<ele>97</ele>
<time>2015-06-26T10:58:34Z</time>
</trkpt>
<trkpt lat="53.3472129" lon="18.4437507">
<ele>97</ele>
<time>2015-06-26T10:58:36Z</time>
</trkpt>
<trkpt lat="53.3472165" lon="18.4436482">
<ele>93</ele>
<time>2015-06-26T10:58:38Z</time>
</trkpt>
<trkpt lat="53.3472272" lon="18.4435761">
<ele>92</ele>
<time>2015-06-26T10:58:40Z</time>
</trkpt>
<trkpt lat="53.3476121" lon="18.4426948">
<ele>94</ele>
<time>2015-06-26T10:58:50Z</time>
</trkpt>
<trkpt lat="53.3476963" lon="18.4425328">
<ele>93</ele>
<time>2015-06-26T10:58:52Z</time>
</trkpt>
<trkpt lat="53.3478241" lon="18.4422982">
<ele>92</ele>
<time>2015-06-26T10:58:54Z</time>
</trkpt>
<trkpt lat="53.3479899" lon="18.4419892">
<ele>92</ele>
<time>2015-06-26T10:58:56Z</time>
</trkpt>
<trkpt lat="53.3472703" lon="18.4433712">
<ele>93</ele>
<time>2015-06-26T10:58:44Z</time>
</trkpt>
<trkpt lat="53.3481085" lon="18.4417291">
<ele>93</ele>
<time>2015-06-26T10:58:58Z</time>
</trkpt>
<trkpt lat="53.3482301" lon="18.4414364">
<ele>94</ele>
<time>2015-06-26T10:59:00Z</time>
</trkpt>
<trkpt lat="53.3483174" lon="18.4411586">
<ele>90</ele>
<time>2015-06-26T10:59:02Z</time>
</trkpt>
<trkpt lat="53.3483839" lon="18.4408962">
<ele>90</ele>
<time>2015-06-26T10:59:04Z</time>
</trkpt>
<trkpt lat="53.3484699" lon="18.4406478">
<ele>89</ele>
<time>2015-06-26T10:59:06Z</time>
</trkpt>
<trkpt lat="53.3485591" lon="18.4403777">
<ele>89</ele>
<time>2015-06-26T10:59:08Z</time>
</trkpt>
<trkpt lat="53.3486699" lon="18.4401219">
<ele>89</ele>
<time>2015-06-26T10:59:10Z</time>
</trkpt>
<trkpt lat="53.3487428" lon="18.4399143">
<ele>90</ele>
<time>2015-06-26T10:59:12Z</time>
</trkpt>
<trkpt lat="53.3487775" lon="18.4398174">
<ele>92</ele>
<time>2015-06-26T10:59:14Z</time>
</trkpt>
<trkpt lat="53.3487988" lon="18.4397804">
<ele>93</ele>
<time>2015-06-26T10:59:16Z</time>
</trkpt>
<trkpt lat="53.3487943" lon="18.4398016">
<ele>94</ele>
<time>2015-06-26T10:59:18Z</time>
</trkpt>
<trkpt lat="53.3488118" lon="18.4397448">
<ele>94</ele>
<time>2015-06-26T10:59:20Z</time>
</trkpt>
<trkpt lat="53.3488429" lon="18.4396595">
<ele>97</ele>
<time>2015-06-26T10:59:22Z</time>
</trkpt>
<trkpt lat="53.3488927" lon="18.4394650">
<ele>95</ele>
<time>2015-06-26T10:59:24Z</time>
</trkpt>
<trkpt lat="53.3489465" lon="18.4392770">
<ele>96</ele>
<time>2015-06-26T10:59:26Z</time>
</trkpt>
<trkpt lat="53.3489912" lon="18.4391073">
<ele>96</ele>
<time>2015-06-26T10:59:28Z</time>
</trkpt>
<trkpt lat="53.3490171" lon="18.4389866">
<ele>96</ele>
<time>2015-06-26T10:59:30Z</time>
</trkpt>
<trkpt lat="53.3490333" lon="18.4389160">
<ele>96</ele>
<time>2015-06-26T10:59:32Z</time>
</trkpt>
<trkpt lat="53.3490411" lon="18.4388981">
<ele>97</ele>
<time>2015-06-26T10:59:34Z</time>
</trkpt>
<trkpt lat="53.3490244" lon="18.4388156">
<ele>98</ele>
<time>2015-06-26T10:59:38Z</time>
</trkpt>
<trkpt lat="53.3489981" lon="18.4387946">
<ele>99</ele>
<time>2015-06-26T10:59:40Z</time>
</trkpt>
<trkpt lat="53.3489764" lon="18.4387781">
<ele>98</ele>
<time>2015-06-26T10:59:42Z</time>
</trkpt>
<trkpt lat="53.3489488" lon="18.4387563">
<ele>98</ele>
<time>2015-06-26T10:59:44Z</time>
</trkpt>
<trkpt lat="53.3489062" lon="18.4387600">
<ele>97</ele>
<time>2015-06-26T10:59:46Z</time>
</trkpt>
<trkpt lat="53.3488789" lon="18.4387981">
<ele>97</ele>
<time>2015-06-26T10:59:48Z</time>
</trkpt>
<trkpt lat="53.3488658" lon="18.4388163">
<ele>96</ele>
<time>2015-06-26T10:59:50Z</time>
</trkpt>
<trkpt lat="53.3488664" lon="18.4388036">
<ele>97</ele>
<time>2015-06-26T10:59:52Z</time>
</trkpt>
<trkpt lat="53.3488661" lon="18.4387921">
<ele>96</ele>
<time>2015-06-26T10:59:54Z</time>
</trkpt>
<trkpt lat="53.3488686" lon="18.4387905">
<ele>97</ele>
<time>2015-06-26T10:59:56Z</time>
</trkpt>
<trkpt lat="53.3488748" lon="18.4387942">
<ele>97</ele>
<time>2015-06-26T10:59:58Z</time>
</trkpt>
<trkpt lat="53.3488712" lon="18.4387973">
<ele>97</ele>
<time>2015-06-26T11:00:00Z</time>
</trkpt>
<trkpt lat="53.3488708" lon="18.438803">
<ele>97</ele>
<time>2015-06-26T11:00:02Z</time>
</trkpt>
<trkpt lat="53.3488716" lon="18.4388076">
<ele>97</ele>
<time>2015-06-26T11:00:06Z</time>
</trkpt>
<trkpt lat="53.3488702" lon="18.4388083">
<ele>96</ele>
<time>2015-06-26T11:00:08Z</time>
</trkpt>
<trkpt lat="53.3488731" lon="18.4388075">
<ele>97</ele>
<time>2015-06-26T11:00:10Z</time>
</trkpt>
<trkpt lat="53.3488737" lon="18.4388072">
<ele>97</ele>
<time>2015-06-26T11:00:12Z</time>
</trkpt>
<trkpt lat="53.3488726" lon="18.4388074">
<ele>97</ele>
<time>2015-06-26T11:00:14Z</time>
</trkpt>
<trkpt lat="53.3488708" lon="18.4388078">
<ele>97</ele>
<time>2015-06-26T11:00:16Z</time>
</trkpt>
<trkpt lat="53.3488716" lon="18.438808">
<ele>97</ele>
<time>2015-06-26T11:00:18Z</time>
</trkpt>
<trkpt lat="53.3488757" lon="18.4388080">
<ele>97</ele>
<time>2015-06-26T11:00:22Z</time>
</trkpt>
<trkpt lat="53.3488795" lon="18.4388081">
<ele>98</ele>
<time>2015-06-26T11:00:24Z</time>
</trkpt>
<trkpt lat="53.3488824" lon="18.4388080">
<ele>98</ele>
<time>2015-06-26T11:00:26Z</time>
</trkpt>
<trkpt lat="53.3488887" lon="18.4388080">
<ele>98</ele>
<time>2015-06-26T11:00:30Z</time>
</trkpt>
<trkpt lat="53.3488906" lon="18.4388081">
<ele>98</ele>
<time>2015-06-26T11:00:32Z</time>
</trkpt>
<trkpt lat="53.3488925" lon="18.4388081">
<ele>98</ele>
<time>2015-06-26T11:00:34Z</time>
</trkpt>
<trkpt lat="53.3488938" lon="18.4388080">
<ele>98</ele>
<time>2015-06-26T11:00:36Z</time>
</trkpt>
<trkpt lat="53.3488945" lon="18.4388079">
<ele>98</ele>
<time>2015-06-26T11:00:38Z</time>
</trkpt>
<trkpt lat="53.3488957" lon="18.4388077">
<ele>99</ele>
<time>2015-06-26T11:00:40Z</time>
</trkpt>
<trkpt lat="53.3488958" lon="18.4388076">
<ele>99</ele>
<time>2015-06-26T11:00:42Z</time>
</trkpt>
<trkpt lat="53.3488956" lon="18.4388077">
<ele>99</ele>
<time>2015-06-26T11:00:44Z</time>
</trkpt>
<trkpt lat="53.3488958" lon="18.4388079">
<ele>99</ele>
<time>2015-06-26T11:00:46Z</time>
</trkpt>
<trkpt lat="53.3488962" lon="18.4388080">
<ele>99</ele>
<time>2015-06-26T11:00:48Z</time>
</trkpt>
<trkpt lat="53.3488964" lon="18.4388081">
<ele>99</ele>
<time>2015-06-26T11:00:50Z</time>
</trkpt>
<trkpt lat="53.3488965" lon="18.4388082">
<ele>99</ele>
<time>2015-06-26T11:00:52Z</time>
</trkpt>
<trkpt lat="53.3488965" lon="18.4388081">
<ele>99</ele>
<time>2015-06-26T11:00:54Z</time>
</trkpt>
<trkpt lat="53.3488965" lon="18.4388080">
<ele>99</ele>
<time>2015-06-26T11:00:58Z</time>
</trkpt>
<trkpt lat="53.3488966" lon="18.4388080">
<ele>99</ele>
<time>2015-06-26T11:01:02Z</time>
</trkpt>
<trkpt lat="53.3488967" lon="18.4388079">
<ele>99</ele>
<time>2015-06-26T11:01:04Z</time>
</trkpt>
<trkpt lat="53.3488966" lon="18.4388079">
<ele>99</ele>
<time>2015-06-26T11:01:06Z</time>
</trkpt>
<trkpt lat="53.3488966" lon="18.4388079">
<ele>99</ele>
<time>2015-06-26T11:01:10Z</time>
</trkpt>
<trkpt lat="53.3488967" lon="18.4388079">
<ele>99</ele>
<time>2015-06-26T11:01:14Z</time>
</trkpt>
<trkpt lat="53.3488977" lon="18.4388074">
<ele>99</ele>
<time>2015-06-26T11:01:16Z</time>
</trkpt>
<trkpt lat="53.3488998" lon="18.4388066">
<ele>99</ele>
<time>2015-06-26T11:01:18Z</time>
</trkpt>
<trkpt lat="53.3489000" lon="18.4388064">
<ele>99</ele>
<time>2015-06-26T11:01:20Z</time>
</trkpt>
<trkpt lat="53.3488997" lon="18.4388062">
<ele>99</ele>
<time>2015-06-26T11:01:22Z</time>
</trkpt>
<trkpt lat="53.3489004" lon="18.4388059">
<ele>99</ele>
<time>2015-06-26T11:01:24Z</time>
</trkpt>
<trkpt lat="53.3488988" lon="18.4388065">
<ele>99</ele>
<time>2015-06-26T11:01:26Z</time>
</trkpt>
<trkpt lat="53.3488969" lon="18.4388070">
<ele>99</ele>
<time>2015-06-26T11:01:30Z</time>
</trkpt>
<trkpt lat="53.3488965" lon="18.4388072">
<ele>99</ele>
<time>2015-06-26T11:01:32Z</time>
</trkpt>
<trkpt lat="53.3488963" lon="18.4388073">
<ele>99</ele>
<time>2015-06-26T11:01:34Z</time>
</trkpt>
<trkpt lat="53.3488961" lon="18.4388074">
<ele>99</ele>
<time>2015-06-26T11:01:36Z</time>
</trkpt>
<trkpt lat="53.348896" lon="18.4388074">
<ele>99</ele>
<time>2015-06-26T11:01:38Z</time>
</trkpt>
<trkpt lat="53.3488958" lon="18.4388074">
<ele>99</ele>
<time>2015-06-26T11:01:40Z</time>
</trkpt>
<trkpt lat="53.3488957" lon="18.4388074">
<ele>99</ele>
<time>2015-06-26T11:01:42Z</time>
</trkpt>
<trkpt lat="53.3488957" lon="18.4388075">
<ele>99</ele>
<time>2015-06-26T11:01:44Z</time>
</trkpt>
<trkpt lat="53.3488955" lon="18.4388075">
<ele>99</ele>
<time>2015-06-26T11:01:46Z</time>
</trkpt>
<trkpt lat="53.3488954" lon="18.4388075">
<ele>99</ele>
<time>2015-06-26T11:01:48Z</time>
</trkpt>
<trkpt lat="53.3488953" lon="18.4388076">
<ele>99</ele>
<time>2015-06-26T11:01:50Z</time>
</trkpt>
<trkpt lat="53.3488953" lon="18.4388075">
<ele>99</ele>
<time>2015-06-26T11:01:52Z</time>
</trkpt>
<trkpt lat="53.3488953" lon="18.4388075">
<ele>99</ele>
<time>2015-06-26T11:01:54Z</time>
</trkpt>
<trkpt lat="53.3488955" lon="18.4388075">
<ele>99</ele>
<time>2015-06-26T11:01:56Z</time>
</trkpt>
<trkpt lat="53.3485875" lon="18.4402003">
<ele>96</ele>
<time>2015-06-26T11:12:20Z</time>
</trkpt>
<trkpt lat="53.3485063" lon="18.4405164">
<ele>95</ele>
<time>2015-06-26T11:12:22Z</time>
</trkpt>
<trkpt lat="53.3484099" lon="18.4408421">
<ele>94</ele>
<time>2015-06-26T11:12:24Z</time>
</trkpt>
<trkpt lat="53.3482737" lon="18.4412113">
<ele>93</ele>
<time>2015-06-26T11:12:26Z</time>
</trkpt>
<trkpt lat="53.3481269" lon="18.4415991">
<ele>93</ele>
<time>2015-06-26T11:12:28Z</time>
</trkpt>
<trkpt lat="53.3477752" lon="18.4422392">
<ele>92</ele>
<time>2015-06-26T11:12:32Z</time>
</trkpt>
<trkpt lat="53.3476175" lon="18.4425214">
<ele>92</ele>
<time>2015-06-26T11:12:34Z</time>
</trkpt>
<trkpt lat="53.3475309" lon="18.4427075">
<ele>92</ele>
<time>2015-06-26T11:12:38Z</time>
</trkpt>
<trkpt lat="53.3475216" lon="18.4427223">
<ele>94</ele>
<time>2015-06-26T11:12:40Z</time>
</trkpt>
<trkpt lat="53.3475209" lon="18.4427179">
<ele>94</ele>
<time>2015-06-26T11:12:42Z</time>
</trkpt>
<trkpt lat="53.3475246" lon="18.4427169">
<ele>95</ele>
<time>2015-06-26T11:12:44Z</time>
</trkpt>
<trkpt lat="53.3475237" lon="18.4427277">
<ele>94</ele>
<time>2015-06-26T11:12:46Z</time>
</trkpt>
<trkpt lat="53.3471518" lon="18.4437393">
<ele>93</ele>
<time>2015-06-26T11:13:00Z</time>
</trkpt>
<trkpt lat="53.3469716" lon="18.4443514">
<ele>94</ele>
<time>2015-06-26T11:13:04Z</time>
</trkpt>
<trkpt lat="53.3469652" lon="18.4446104">
<ele>93</ele>
<time>2015-06-26T11:13:06Z</time>
</trkpt>
<trkpt lat="53.3470141" lon="18.4447610">
<ele>93</ele>
<time>2015-06-26T11:13:08Z</time>
</trkpt>
<trkpt lat="53.3470486" lon="18.4449159">
<ele>92</ele>
<time>2015-06-26T11:13:10Z</time>
</trkpt>
<trkpt lat="53.3471131" lon="18.4450027">
<ele>91</ele>
<time>2015-06-26T11:13:12Z</time>
</trkpt>
<trkpt lat="53.3471324" lon="18.4452035">
<ele>92</ele>
<time>2015-06-26T11:13:14Z</time>
</trkpt>
<trkpt lat="53.3470832" lon="18.4454057">
<ele>91</ele>
<time>2015-06-26T11:13:16Z</time>
</trkpt>
<trkpt lat="53.3469792" lon="18.4456074">
<ele>89</ele>
<time>2015-06-26T11:13:18Z</time>
</trkpt>
<trkpt lat="53.3468097" lon="18.4457508">
<ele>88</ele>
<time>2015-06-26T11:13:20Z</time>
</trkpt>
<trkpt lat="53.3465916" lon="18.4459083">
<ele>87</ele>
<time>2015-06-26T11:13:22Z</time>
</trkpt>
<trkpt lat="53.3464049" lon="18.4460982">
<ele>88</ele>
<time>2015-06-26T11:13:24Z</time>
</trkpt>
<trkpt lat="53.3461777" lon="18.4462539">
<ele>89</ele>
<time>2015-06-26T11:13:26Z</time>
</trkpt>
<trkpt lat="53.3459405" lon="18.4465105">
<ele>90</ele>
<time>2015-06-26T11:13:28Z</time>
</trkpt>
<trkpt lat="53.3457173" lon="18.4468170">
<ele>88</ele>
<time>2015-06-26T11:13:30Z</time>
</trkpt>
<trkpt lat="53.3455385" lon="18.4471986">
<ele>89</ele>
<time>2015-06-26T11:13:32Z</time>
</trkpt>
<trkpt lat="53.3453828" lon="18.4475937">
<ele>89</ele>
<time>2015-06-26T11:13:34Z</time>
</trkpt>
<trkpt lat="53.3452716" lon="18.4480373">
<ele>91</ele>
<time>2015-06-26T11:13:36Z</time>
</trkpt>
<trkpt lat="53.3451038" lon="18.4488797">
<ele>91</ele>
<time>2015-06-26T11:13:40Z</time>
</trkpt>
<trkpt lat="53.3449801" lon="18.4493121">
<ele>92</ele>
<time>2015-06-26T11:13:42Z</time>
</trkpt>
<trkpt lat="53.3448688" lon="18.4497290">
<ele>92</ele>
<time>2015-06-26T11:13:44Z</time>
</trkpt>
<trkpt lat="53.3447572" lon="18.4502588">
<ele>94</ele>
<time>2015-06-26T11:13:46Z</time>
</trkpt>
<trkpt lat="53.3446462" lon="18.4507299">
<ele>95</ele>
<time>2015-06-26T11:13:48Z</time>
</trkpt>
<trkpt lat="53.3445307" lon="18.4512492">
<ele>95</ele>
<time>2015-06-26T11:13:50Z</time>
</trkpt>
<trkpt lat="53.3444324" lon="18.4517031">
<ele>94</ele>
<time>2015-06-26T11:13:52Z</time>
</trkpt>
<trkpt lat="53.3441597" lon="18.4525818">
<ele>97</ele>
<time>2015-06-26T11:13:56Z</time>
</trkpt>
<trkpt lat="53.3440334" lon="18.4530349">
<ele>98</ele>
<time>2015-06-26T11:13:58Z</time>
</trkpt>
<trkpt lat="53.3439025" lon="18.4534766">
<ele>98</ele>
<time>2015-06-26T11:14:00Z</time>
</trkpt>
<trkpt lat="53.3437208" lon="18.4539366">
<ele>99</ele>
<time>2015-06-26T11:14:02Z</time>
</trkpt>
<trkpt lat="53.3436101" lon="18.4543623">
<ele>100</ele>
<time>2015-06-26T11:14:04Z</time>
</trkpt>
<trkpt lat="53.3434492" lon="18.4548331">
<ele>100</ele>
<time>2015-06-26T11:14:06Z</time>
</trkpt>
<trkpt lat="53.3433185" lon="18.4552040">
<ele>99</ele>
<time>2015-06-26T11:14:08Z</time>
</trkpt>
<trkpt lat="53.3432150" lon="18.4556421">
<ele>101</ele>
<time>2015-06-26T11:14:10Z</time>
</trkpt>
<trkpt lat="53.3431407" lon="18.4560191">
<ele>102</ele>
<time>2015-06-26T11:14:12Z</time>
</trkpt>
<trkpt lat="53.3431872" lon="18.4563653">
<ele>104</ele>
<time>2015-06-26T11:14:14Z</time>
</trkpt>
<trkpt lat="53.3432975" lon="18.4567446">
<ele>105</ele>
<time>2015-06-26T11:14:16Z</time>
</trkpt>
<trkpt lat="53.3433939" lon="18.4570716">
<ele>106</ele>
<time>2015-06-26T11:14:18Z</time>
</trkpt>
<trkpt lat="53.3433549" lon="18.4573152">
<ele>108</ele>
<time>2015-06-26T11:14:20Z</time>
</trkpt>
<trkpt lat="53.3432195" lon="18.457522">
<ele>109</ele>
<time>2015-06-26T11:14:22Z</time>
</trkpt>
<trkpt lat="53.3430515" lon="18.4577254">
<ele>110</ele>
<time>2015-06-26T11:14:24Z</time>
</trkpt>
<trkpt lat="53.342826" lon="18.4579822">
<ele>110</ele>
<time>2015-06-26T11:14:26Z</time>
</trkpt>
<trkpt lat="53.3425611" lon="18.4582629">
<ele>109</ele>
<time>2015-06-26T11:14:28Z</time>
</trkpt>
<trkpt lat="53.3423395" lon="18.4586214">
<ele>111</ele>
<time>2015-06-26T11:14:30Z</time>
</trkpt>
<trkpt lat="53.342025" lon="18.4590244">
<ele>112</ele>
<time>2015-06-26T11:14:32Z</time>
</trkpt>
<trkpt lat="53.3417414" lon="18.4594480">
<ele>113</ele>
<time>2015-06-26T11:14:34Z</time>
</trkpt>
<trkpt lat="53.3414663" lon="18.4599121">
<ele>114</ele>
<time>2015-06-26T11:14:36Z</time>
</trkpt>
<trkpt lat="53.3411919" lon="18.4604007">
<ele>115</ele>
<time>2015-06-26T11:14:38Z</time>
</trkpt>
<trkpt lat="53.3409077" lon="18.4608821">
<ele>115</ele>
<time>2015-06-26T11:14:40Z</time>
</trkpt>
<trkpt lat="53.3406351" lon="18.4613546">
<ele>117</ele>
<time>2015-06-26T11:14:42Z</time>
</trkpt>
<trkpt lat="53.3403622" lon="18.4618559">
<ele>117</ele>
<time>2015-06-26T11:14:44Z</time>
</trkpt>
<trkpt lat="53.3400816" lon="18.4623445">
<ele>117</ele>
<time>2015-06-26T11:14:46Z</time>
</trkpt>
<trkpt lat="53.3398022" lon="18.4628605">
<ele>118</ele>
<time>2015-06-26T11:14:48Z</time>
</trkpt>
<trkpt lat="53.3395258" lon="18.4633626">
<ele>119</ele>
<time>2015-06-26T11:14:50Z</time>
</trkpt>
<trkpt lat="53.3392448" lon="18.4638799">
<ele>119</ele>
<time>2015-06-26T11:14:52Z</time>
</trkpt>
<trkpt lat="53.3389645" lon="18.4643781">
<ele>119</ele>
<time>2015-06-26T11:14:54Z</time>
</trkpt>
<trkpt lat="53.3386786" lon="18.4649323">
<ele>118</ele>
<time>2015-06-26T11:14:56Z</time>
</trkpt>
<trkpt lat="53.3383814" lon="18.4654301">
<ele>116</ele>
<time>2015-06-26T11:14:58Z</time>
</trkpt>
<trkpt lat="53.3380906" lon="18.465956">
<ele>115</ele>
<time>2015-06-26T11:15:00Z</time>
</trkpt>
<trkpt lat="53.3377973" lon="18.4664555">
<ele>113</ele>
<time>2015-06-26T11:15:02Z</time>
</trkpt>
<trkpt lat="53.3374858" lon="18.4669231">
<ele>113</ele>
<time>2015-06-26T11:15:04Z</time>
</trkpt>
<trkpt lat="53.3371824" lon="18.467322">
<ele>114</ele>
<time>2015-06-26T11:15:06Z</time>
</trkpt>
<trkpt lat="53.3370063" lon="18.4675673">
<ele>113</ele>
<time>2015-06-26T11:15:08Z</time>
</trkpt>
<trkpt lat="53.3367825" lon="18.4678467">
<ele>113</ele>
<time>2015-06-26T11:15:10Z</time>
</trkpt>
<trkpt lat="53.3366656" lon="18.4680622">
<ele>112</ele>
<time>2015-06-26T11:15:12Z</time>
</trkpt>
<trkpt lat="53.3365691" lon="18.4681927">
<ele>113</ele>
<time>2015-06-26T11:15:14Z</time>
</trkpt>
<trkpt lat="53.3364782" lon="18.468318">
<ele>112</ele>
<time>2015-06-26T11:15:16Z</time>
</trkpt>
<trkpt lat="53.3363663" lon="18.4683482">
<ele>113</ele>
<time>2015-06-26T11:15:18Z</time>
</trkpt>
<trkpt lat="53.3362552" lon="18.4682641">
<ele>112</ele>
<time>2015-06-26T11:15:20Z</time>
</trkpt>
<trkpt lat="53.3361974" lon="18.4680237">
<ele>112</ele>
<time>2015-06-26T11:15:22Z</time>
</trkpt>
<trkpt lat="53.3360508" lon="18.4676550">
<ele>112</ele>
<time>2015-06-26T11:15:24Z</time>
</trkpt>
<trkpt lat="53.3358941" lon="18.4672599">
<ele>111</ele>
<time>2015-06-26T11:15:26Z</time>
</trkpt>
<trkpt lat="53.3356773" lon="18.4668336">
<ele>109</ele>
<time>2015-06-26T11:15:28Z</time>
</trkpt>
<trkpt lat="53.3321818" lon="18.4600057">
<ele>92</ele>
<time>2015-06-26T11:15:50Z</time>
</trkpt>
<trkpt lat="53.3318641" lon="18.4591049">
<ele>92</ele>
<time>2015-06-26T11:15:52Z</time>
</trkpt>
<trkpt lat="53.3350695" lon="18.4659744">
<ele>107</ele>
<time>2015-06-26T11:15:32Z</time>
</trkpt>
<trkpt lat="53.3315452" lon="18.4582624">
<ele>92</ele>
<time>2015-06-26T11:15:54Z</time>
</trkpt>
<trkpt lat="53.3312227" lon="18.4573989">
<ele>93</ele>
<time>2015-06-26T11:15:56Z</time>
</trkpt>
<trkpt lat="53.3308993" lon="18.4565156">
<ele>95</ele>
<time>2015-06-26T11:15:58Z</time>
</trkpt>
<trkpt lat="53.3305943" lon="18.4556334">
<ele>98</ele>
<time>2015-06-26T11:16:00Z</time>
</trkpt>
<trkpt lat="53.3302866" lon="18.4547586">
<ele>101</ele>
<time>2015-06-26T11:16:02Z</time>
</trkpt>
<trkpt lat="53.3299751" lon="18.4539048">
<ele>102</ele>
<time>2015-06-26T11:16:04Z</time>
</trkpt>
<trkpt lat="53.3296624" lon="18.4530212">
<ele>105</ele>
<time>2015-06-26T11:16:06Z</time>
</trkpt>
<trkpt lat="53.3293355" lon="18.4521421">
<ele>106</ele>
<time>2015-06-26T11:16:08Z</time>
</trkpt>
<trkpt lat="53.3290272" lon="18.4512519">
<ele>109</ele>
<time>2015-06-26T11:16:10Z</time>
</trkpt>
<trkpt lat="53.3287063" lon="18.4503669">
<ele>110</ele>
<time>2015-06-26T11:16:12Z</time>
</trkpt>
<trkpt lat="53.3283936" lon="18.4494709">
<ele>112</ele>
<time>2015-06-26T11:16:14Z</time>
</trkpt>
<trkpt lat="53.3280755" lon="18.4486162">
<ele>111</ele>
<time>2015-06-26T11:16:16Z</time>
</trkpt>
<trkpt lat="53.3276878" lon="18.4477972">
<ele>111</ele>
<time>2015-06-26T11:16:18Z</time>
</trkpt>
<trkpt lat="53.3274518" lon="18.4469255">
<ele>114</ele>
<time>2015-06-26T11:16:20Z</time>
</trkpt>
<trkpt lat="53.3272528" lon="18.4459716">
<ele>116</ele>
<time>2015-06-26T11:16:22Z</time>
</trkpt>
<trkpt lat="53.3269944" lon="18.4450484">
<ele>114</ele>
<time>2015-06-26T11:16:24Z</time>
</trkpt>
<trkpt lat="53.3267537" lon="18.4440935">
<ele>114</ele>
<time>2015-06-26T11:16:26Z</time>
</trkpt>
<trkpt lat="53.3265142" lon="18.4431515">
<ele>113</ele>
<time>2015-06-26T11:16:28Z</time>
</trkpt>
<trkpt lat="53.3252721" lon="18.4331949">
<ele>119</ele>
<time>2015-06-26T11:16:56Z</time>
</trkpt>
<trkpt lat="53.3252837" lon="18.4330103">
<ele>119</ele>
<time>2015-06-26T11:16:58Z</time>
</trkpt>
<trkpt lat="53.3252572" lon="18.4328656">
<ele>119</ele>
<time>2015-06-26T11:17:02Z</time>
</trkpt>
<trkpt lat="53.3251679" lon="18.4328640">
<ele>119</ele>
<time>2015-06-26T11:17:04Z</time>
</trkpt>
<trkpt lat="53.3249948" lon="18.4329888">
<ele>115</ele>
<time>2015-06-26T11:17:06Z</time>
</trkpt>
<trkpt lat="53.3248043" lon="18.4330603">
<ele>116</ele>
<time>2015-06-26T11:17:08Z</time>
</trkpt>
<trkpt lat="53.3245528" lon="18.4331596">
<ele>116</ele>
<time>2015-06-26T11:17:10Z</time>
</trkpt>
<trkpt lat="53.3243052" lon="18.4332647">
<ele>117</ele>
<time>2015-06-26T11:17:12Z</time>
</trkpt>
<trkpt lat="53.3240864" lon="18.4333606">
<ele>119</ele>
<time>2015-06-26T11:17:14Z</time>
</trkpt>
<trkpt lat="53.3239108" lon="18.4332514">
<ele>119</ele>
<time>2015-06-26T11:17:18Z</time>
</trkpt>
<trkpt lat="53.3238853" lon="18.4330534">
<ele>118</ele>
<time>2015-06-26T11:17:20Z</time>
</trkpt>
<trkpt lat="53.3238633" lon="18.4327584">
<ele>119</ele>
<time>2015-06-26T11:17:22Z</time>
</trkpt>
<trkpt lat="53.3238231" lon="18.4324130">
<ele>121</ele>
<time>2015-06-26T11:17:24Z</time>
</trkpt>
<trkpt lat="53.3237840" lon="18.4320061">
<ele>121</ele>
<time>2015-06-26T11:17:26Z</time>
</trkpt>
<trkpt lat="53.3237510" lon="18.4315728">
<ele>122</ele>
<time>2015-06-26T11:17:28Z</time>
</trkpt>
<trkpt lat="53.3236541" lon="18.4305785">
<ele>121</ele>
<time>2015-06-26T11:17:32Z</time>
</trkpt>
<trkpt lat="53.3235859" lon="18.4299902">
<ele>119</ele>
<time>2015-06-26T11:17:34Z</time>
</trkpt>
<trkpt lat="53.3235305" lon="18.4293827">
<ele>120</ele>
<time>2015-06-26T11:17:36Z</time>
</trkpt>
<trkpt lat="53.3234701" lon="18.4288667">
<ele>121</ele>
<time>2015-06-26T11:17:38Z</time>
</trkpt>
<trkpt lat="53.3234293" lon="18.4283861">
<ele>121</ele>
<time>2015-06-26T11:17:40Z</time>
</trkpt>
<trkpt lat="53.3233778" lon="18.4279658">
<ele>121</ele>
<time>2015-06-26T11:17:42Z</time>
</trkpt>
<trkpt lat="53.3233291" lon="18.4275463">
<ele>120</ele>
<time>2015-06-26T11:17:44Z</time>
</trkpt>
<trkpt lat="53.3232822" lon="18.4271279">
<ele>121</ele>
<time>2015-06-26T11:17:46Z</time>
</trkpt>
<trkpt lat="53.3232076" lon="18.426777">
<ele>121</ele>
<time>2015-06-26T11:17:48Z</time>
</trkpt>
<trkpt lat="53.3230948" lon="18.4264005">
<ele>121</ele>
<time>2015-06-26T11:17:50Z</time>
</trkpt>
<trkpt lat="53.3229730" lon="18.4260109">
<ele>124</ele>
<time>2015-06-26T11:17:52Z</time>
</trkpt>
<trkpt lat="53.3228351" lon="18.4256238">
<ele>126</ele>
<time>2015-06-26T11:17:54Z</time>
</trkpt>
<trkpt lat="53.3226879" lon="18.4252041">
<ele>125</ele>
<time>2015-06-26T11:17:56Z</time>
</trkpt>
<trkpt lat="53.3225459" lon="18.4248081">
<ele>124</ele>
<time>2015-06-26T11:17:58Z</time>
</trkpt>
<trkpt lat="53.3224237" lon="18.4243943">
<ele>125</ele>
<time>2015-06-26T11:18:00Z</time>
</trkpt>
<trkpt lat="53.3222439" lon="18.4235614">
<ele>127</ele>
<time>2015-06-26T11:18:04Z</time>
</trkpt>
<trkpt lat="53.3221620" lon="18.4231863">
<ele>126</ele>
<time>2015-06-26T11:18:06Z</time>
</trkpt>
<trkpt lat="53.3220888" lon="18.4228080">
<ele>125</ele>
<time>2015-06-26T11:18:08Z</time>
</trkpt>
<trkpt lat="53.3219416" lon="18.4220684">
<ele>124</ele>
<time>2015-06-26T11:18:12Z</time>
</trkpt>
<trkpt lat="53.3218881" lon="18.4217626">
<ele>125</ele>
<time>2015-06-26T11:18:14Z</time>
</trkpt>
<trkpt lat="53.3218466" lon="18.4215775">
<ele>124</ele>
<time>2015-06-26T11:18:16Z</time>
</trkpt>
<trkpt lat="53.3218453" lon="18.4215296">
<ele>125</ele>
<time>2015-06-26T11:18:18Z</time>
</trkpt>
<trkpt lat="53.3218455" lon="18.4215327">
<ele>125</ele>
<time>2015-06-26T11:18:20Z</time>
</trkpt>
<trkpt lat="53.3218300" lon="18.4214674">
<ele>127</ele>
<time>2015-06-26T11:18:22Z</time>
</trkpt>
<trkpt lat="53.3217465" lon="18.4214404">
<ele>128</ele>
<time>2015-06-26T11:18:24Z</time>
</trkpt>
<trkpt lat="53.3216287" lon="18.4214519">
<ele>128</ele>
<time>2015-06-26T11:18:26Z</time>
</trkpt>
<trkpt lat="53.3214183" lon="18.4214949">
<ele>128</ele>
<time>2015-06-26T11:18:28Z</time>
</trkpt>
<trkpt lat="53.3211489" lon="18.4215431">
<ele>125</ele>
<time>2015-06-26T11:18:30Z</time>
</trkpt>
<trkpt lat="53.3208477" lon="18.4216173">
<ele>126</ele>
<time>2015-06-26T11:18:32Z</time>
</trkpt>
<trkpt lat="53.3205442" lon="18.4216829">
<ele>122</ele>
<time>2015-06-26T11:18:34Z</time>
</trkpt>
<trkpt lat="53.3202018" lon="18.4217579">
<ele>123</ele>
<time>2015-06-26T11:18:36Z</time>
</trkpt>
<trkpt lat="53.3199170" lon="18.4217979">
<ele>123</ele>
<time>2015-06-26T11:18:38Z</time>
</trkpt>
<trkpt lat="53.3196436" lon="18.4218511">
<ele>123</ele>
<time>2015-06-26T11:18:40Z</time>
</trkpt>
<trkpt lat="53.3194122" lon="18.4218785">
<ele>123</ele>
<time>2015-06-26T11:18:42Z</time>
</trkpt>
<trkpt lat="53.3191167" lon="18.4219252">
<ele>123</ele>
<time>2015-06-26T11:18:44Z</time>
</trkpt>
<trkpt lat="53.3188543" lon="18.4219643">
<ele>122</ele>
<time>2015-06-26T11:18:46Z</time>
</trkpt>
<trkpt lat="53.3185791" lon="18.4220364">
<ele>122</ele>
<time>2015-06-26T11:18:48Z</time>
</trkpt>
<trkpt lat="53.3183017" lon="18.4220961">
<ele>121</ele>
<time>2015-06-26T11:18:50Z</time>
</trkpt>
<trkpt lat="53.3177672" lon="18.4222212">
<ele>121</ele>
<time>2015-06-26T11:18:54Z</time>
</trkpt>
<trkpt lat="53.3174928" lon="18.4222804">
<ele>120</ele>
<time>2015-06-26T11:18:56Z</time>
</trkpt>
<trkpt lat="53.3169577" lon="18.4223612">
<ele>120</ele>
<time>2015-06-26T11:19:00Z</time>
</trkpt>
<trkpt lat="53.3166889" lon="18.4224097">
<ele>121</ele>
<time>2015-06-26T11:19:02Z</time>
</trkpt>
<trkpt lat="53.3164214" lon="18.4224774">
<ele>120</ele>
<time>2015-06-26T11:19:04Z</time>
</trkpt>
<trkpt lat="53.3161558" lon="18.4225324">
<ele>120</ele>
<time>2015-06-26T11:19:06Z</time>
</trkpt>
<trkpt lat="53.3158875" lon="18.4225675">
<ele>121</ele>
<time>2015-06-26T11:19:08Z</time>
</trkpt>
<trkpt lat="53.3156179" lon="18.4226430">
<ele>121</ele>
<time>2015-06-26T11:19:10Z</time>
</trkpt>
<trkpt lat="53.3153563" lon="18.4227228">
<ele>121</ele>
<time>2015-06-26T11:19:12Z</time>
</trkpt>
<trkpt lat="53.3151121" lon="18.4227719">
<ele>121</ele>
<time>2015-06-26T11:19:14Z</time>
</trkpt>
<trkpt lat="53.3148884" lon="18.4228205">
<ele>121</ele>
<time>2015-06-26T11:19:16Z</time>
</trkpt>
<trkpt lat="53.3146635" lon="18.4228586">
<ele>122</ele>
<time>2015-06-26T11:19:18Z</time>
</trkpt>
<trkpt lat="53.3144516" lon="18.4228960">
<ele>121</ele>
<time>2015-06-26T11:19:20Z</time>
</trkpt>
<trkpt lat="53.3142115" lon="18.4229235">
<ele>121</ele>
<time>2015-06-26T11:19:22Z</time>
</trkpt>
<trkpt lat="53.3139947" lon="18.4229697">
<ele>120</ele>
<time>2015-06-26T11:19:24Z</time>
</trkpt>
<trkpt lat="53.3137242" lon="18.4230514">
<ele>121</ele>
<time>2015-06-26T11:19:26Z</time>
</trkpt>
<trkpt lat="53.3134722" lon="18.4231015">
<ele>121</ele>
<time>2015-06-26T11:19:28Z</time>
</trkpt>
<trkpt lat="53.3131870" lon="18.4231543">
<ele>121</ele>
<time>2015-06-26T11:19:30Z</time>
</trkpt>
<trkpt lat="53.3129052" lon="18.4232106">
<ele>121</ele>
<time>2015-06-26T11:19:32Z</time>
</trkpt>
<trkpt lat="53.3126077" lon="18.4232590">
<ele>120</ele>
<time>2015-06-26T11:19:34Z</time>
</trkpt>
<trkpt lat="53.3122772" lon="18.4233363">
<ele>119</ele>
<time>2015-06-26T11:19:36Z</time>
</trkpt>
<trkpt lat="53.3119408" lon="18.4234066">
<ele>119</ele>
<time>2015-06-26T11:19:38Z</time>
</trkpt>
<trkpt lat="53.3110774" lon="18.4236015">
<ele>118</ele>
<time>2015-06-26T11:19:42Z</time>
</trkpt>
<trkpt lat="53.3106236" lon="18.4236718">
<ele>119</ele>
<time>2015-06-26T11:19:44Z</time>
</trkpt>
<trkpt lat="53.3101391" lon="18.4237498">
<ele>120</ele>
<time>2015-06-26T11:19:46Z</time>
</trkpt>
<trkpt lat="53.3096365" lon="18.4238373">
<ele>120</ele>
<time>2015-06-26T11:19:48Z</time>
</trkpt>
<trkpt lat="53.3091014" lon="18.4239373">
<ele>118</ele>
<time>2015-06-26T11:19:50Z</time>
</trkpt>
<trkpt lat="53.3085351" lon="18.4240338">
<ele>118</ele>
<time>2015-06-26T11:19:52Z</time>
</trkpt>
<trkpt lat="53.3079455" lon="18.4241466">
<ele>117</ele>
<time>2015-06-26T11:19:54Z</time>
</trkpt>
<trkpt lat="53.3073430" lon="18.4242668">
<ele>116</ele>
<time>2015-06-26T11:19:56Z</time>
</trkpt>
<trkpt lat="53.3067297" lon="18.4243935">
<ele>117</ele>
<time>2015-06-26T11:19:58Z</time>
</trkpt>
<trkpt lat="53.3061287" lon="18.4245039">
<ele>117</ele>
<time>2015-06-26T11:20:00Z</time>
</trkpt>
<trkpt lat="53.3055474" lon="18.4246003">
<ele>117</ele>
<time>2015-06-26T11:20:02Z</time>
</trkpt>
<trkpt lat="53.3049703" lon="18.4246650">
<ele>117</ele>
<time>2015-06-26T11:20:04Z</time>
</trkpt>
<trkpt lat="53.3043889" lon="18.4247143">
<ele>118</ele>
<time>2015-06-26T11:20:06Z</time>
</trkpt>
<trkpt lat="53.3038480" lon="18.4247430">
<ele>118</ele>
<time>2015-06-26T11:20:08Z</time>
</trkpt>
<trkpt lat="53.3033250" lon="18.4247546">
<ele>119</ele>
<time>2015-06-26T11:20:10Z</time>
</trkpt>
<trkpt lat="53.3028142" lon="18.4247827">
<ele>119</ele>
<time>2015-06-26T11:20:12Z</time>
</trkpt>
<trkpt lat="53.3023422" lon="18.4248112">
<ele>119</ele>
<time>2015-06-26T11:20:14Z</time>
</trkpt>
<trkpt lat="53.3018867" lon="18.4248426">
<ele>118</ele>
<time>2015-06-26T11:20:16Z</time>
</trkpt>
<trkpt lat="53.3014700" lon="18.4248698">
<ele>119</ele>
<time>2015-06-26T11:20:18Z</time>
</trkpt>
<trkpt lat="53.3011202" lon="18.4249116">
<ele>119</ele>
<time>2015-06-26T11:20:20Z</time>
</trkpt>
<trkpt lat="53.3008143" lon="18.4250087">
<ele>119</ele>
<time>2015-06-26T11:20:22Z</time>
</trkpt>
<trkpt lat="53.3005218" lon="18.4251538">
<ele>119</ele>
<time>2015-06-26T11:20:24Z</time>
</trkpt>
<trkpt lat="53.3002487" lon="18.4253222">
<ele>118</ele>
<time>2015-06-26T11:20:26Z</time>
</trkpt>
<trkpt lat="53.2999584" lon="18.4255174">
<ele>117</ele>
<time>2015-06-26T11:20:28Z</time>
</trkpt>
<trkpt lat="53.2997281" lon="18.4256802">
<ele>117</ele>
<time>2015-06-26T11:20:30Z</time>
</trkpt>
<trkpt lat="53.2995958" lon="18.4257402">
<ele>119</ele>
<time>2015-06-26T11:20:32Z</time>
</trkpt>
<trkpt lat="53.2995465" lon="18.4257789">
<ele>119</ele>
<time>2015-06-26T11:20:34Z</time>
</trkpt>
<trkpt lat="53.2996215" lon="18.4257354">
<ele>119</ele>
<time>2015-06-26T11:20:36Z</time>
</trkpt>
<trkpt lat="53.2997297" lon="18.4256484">
<ele>120</ele>
<time>2015-06-26T11:20:38Z</time>
</trkpt>
<trkpt lat="53.2998211" lon="18.4255698">
<ele>120</ele>
<time>2015-06-26T11:20:40Z</time>
</trkpt>
<trkpt lat="53.2998469" lon="18.4255476">
<ele>120</ele>
<time>2015-06-26T11:20:42Z</time>
</trkpt>
<trkpt lat="53.2998311" lon="18.4255226">
<ele>119</ele>
<time>2015-06-26T11:20:44Z</time>
</trkpt>
<trkpt lat="53.2997835" lon="18.4254898">
<ele>118</ele>
<time>2015-06-26T11:20:46Z</time>
</trkpt>
<trkpt lat="53.2997858" lon="18.4251563">
<ele>119</ele>
<time>2015-06-26T11:20:52Z</time>
</trkpt>
<trkpt lat="53.2997950" lon="18.4250472">
<ele>120</ele>
<time>2015-06-26T11:20:54Z</time>
</trkpt>
<trkpt lat="53.2997832" lon="18.4249279">
<ele>119</ele>
<time>2015-06-26T11:20:56Z</time>
</trkpt>
<trkpt lat="53.2997667" lon="18.4247987">
<ele>119</ele>
<time>2015-06-26T11:20:58Z</time>
</trkpt>
<trkpt lat="53.2997572" lon="18.4246695">
<ele>121</ele>
<time>2015-06-26T11:21:00Z</time>
</trkpt>
<trkpt lat="53.2997544" lon="18.4245495">
<ele>121</ele>
<time>2015-06-26T11:21:02Z</time>
</trkpt>
<trkpt lat="53.2997470" lon="18.4244364">
<ele>121</ele>
<time>2015-06-26T11:21:04Z</time>
</trkpt>
<trkpt lat="53.2997440" lon="18.4243375">
<ele>123</ele>
<time>2015-06-26T11:21:06Z</time>
</trkpt>
<trkpt lat="53.2997455" lon="18.4242575">
<ele>123</ele>
<time>2015-06-26T11:21:08Z</time>
</trkpt>
<trkpt lat="53.2997445" lon="18.4241916">
<ele>123</ele>
<time>2015-06-26T11:21:10Z</time>
</trkpt>
<trkpt lat="53.2997482" lon="18.4241390">
<ele>123</ele>
<time>2015-06-26T11:21:12Z</time>
</trkpt>
<trkpt lat="53.2997640" lon="18.4241115">
<ele>122</ele>
<time>2015-06-26T11:21:14Z</time>
</trkpt>
<trkpt lat="53.2997791" lon="18.4240927">
<ele>122</ele>
<time>2015-06-26T11:21:16Z</time>
</trkpt>
<trkpt lat="53.2997813" lon="18.4240510">
<ele>123</ele>
<time>2015-06-26T11:21:20Z</time>
</trkpt>
<trkpt lat="53.2997816" lon="18.4240481">
<ele>124</ele>
<time>2015-06-26T11:21:22Z</time>
</trkpt>
<trkpt lat="53.2997849" lon="18.4240487">
<ele>124</ele>
<time>2015-06-26T11:21:24Z</time>
</trkpt>
<trkpt lat="53.2997870" lon="18.4240509">
<ele>124</ele>
<time>2015-06-26T11:21:26Z</time>
</trkpt>
<trkpt lat="53.2997879" lon="18.4240543">
<ele>125</ele>
<time>2015-06-26T11:21:28Z</time>
</trkpt>
<trkpt lat="53.2997867" lon="18.4240530">
<ele>124</ele>
<time>2015-06-26T11:21:30Z</time>
</trkpt>
<trkpt lat="53.2997839" lon="18.4240502">
<ele>124</ele>
<time>2015-06-26T11:21:32Z</time>
</trkpt>
<trkpt lat="53.2997796" lon="18.4240522">
<ele>124</ele>
<time>2015-06-26T11:21:34Z</time>
</trkpt>
<trkpt lat="53.2997786" lon="18.4240530">
<ele>124</ele>
<time>2015-06-26T11:21:36Z</time>
</trkpt>
<trkpt lat="53.2997785" lon="18.4240533">
<ele>124</ele>
<time>2015-06-26T11:21:38Z</time>
</trkpt>
<trkpt lat="53.2997784" lon="18.4240532">
<ele>124</ele>
<time>2015-06-26T11:21:40Z</time>
</trkpt>
<trkpt lat="53.2997784" lon="18.4240533">
<ele>124</ele>
<time>2015-06-26T11:21:42Z</time>
</trkpt>
<trkpt lat="53.2997784" lon="18.4240535">
<ele>124</ele>
<time>2015-06-26T11:21:44Z</time>
</trkpt>
<trkpt lat="53.2997784" lon="18.4240536">
<ele>124</ele>
<time>2015-06-26T11:21:46Z</time>
</trkpt>
<trkpt lat="53.2997784" lon="18.4240537">
<ele>124</ele>
<time>2015-06-26T11:21:48Z</time>
</trkpt>
<trkpt lat="53.2997784" lon="18.4240537">
<ele>124</ele>
<time>2015-06-26T11:21:50Z</time>
</trkpt>
<trkpt lat="53.2997785" lon="18.4240538">
<ele>124</ele>
<time>2015-06-26T11:21:52Z</time>
</trkpt>
<trkpt lat="53.2997785" lon="18.4240538">
<ele>124</ele>
<time>2015-06-26T11:21:54Z</time>
</trkpt>
<trkpt lat="53.2997785" lon="18.4240538">
<ele>124</ele>
<time>2015-06-26T11:21:56Z</time>
</trkpt>
<trkpt lat="53.2997785" lon="18.4240538">
<ele>124</ele>
<time>2015-06-26T11:22:00Z</time>
</trkpt>
<trkpt lat="53.2997785" lon="18.4240538">
<ele>124</ele>
<time>2015-06-26T11:22:02Z</time>
</trkpt>
<trkpt lat="53.2997785" lon="18.4240538">
<ele>124</ele>
<time>2015-06-26T11:22:04Z</time>
</trkpt>
<trkpt lat="53.2997788" lon="18.4240538">
<ele>124</ele>
<time>2015-06-26T11:22:08Z</time>
</trkpt>
<trkpt lat="53.2997791" lon="18.4240539">
<ele>124</ele>
<time>2015-06-26T11:22:10Z</time>
</trkpt>
<trkpt lat="53.2997792" lon="18.4240539">
<ele>124</ele>
<time>2015-06-26T11:22:12Z</time>
</trkpt>
<trkpt lat="53.2997793" lon="18.4240540">
<ele>124</ele>
<time>2015-06-26T11:22:16Z</time>
</trkpt>
<trkpt lat="53.2997793" lon="18.4240541">
<ele>124</ele>
<time>2015-06-26T11:22:18Z</time>
</trkpt>
<trkpt lat="53.2997796" lon="18.4240540">
<ele>124</ele>
<time>2015-06-26T11:22:22Z</time>
</trkpt>
<trkpt lat="53.2997796" lon="18.424054">
<ele>124</ele>
<time>2015-06-26T11:22:24Z</time>
</trkpt>
<trkpt lat="53.2997798" lon="18.4240539">
<ele>124</ele>
<time>2015-06-26T11:22:26Z</time>
</trkpt>
<trkpt lat="53.2997799" lon="18.4240539">
<ele>124</ele>
<time>2015-06-26T11:22:28Z</time>
</trkpt>
<trkpt lat="53.2997801" lon="18.4240538">
<ele>124</ele>
<time>2015-06-26T11:22:32Z</time>
</trkpt>
<trkpt lat="53.2997802" lon="18.4240538">
<ele>124</ele>
<time>2015-06-26T11:22:34Z</time>
</trkpt>
<trkpt lat="53.2997803" lon="18.4240540">
<ele>124</ele>
<time>2015-06-26T11:22:36Z</time>
</trkpt>
<trkpt lat="53.2997804" lon="18.4240540">
<ele>124</ele>
<time>2015-06-26T11:22:38Z</time>
</trkpt>
<trkpt lat="53.2997805" lon="18.4240541">
<ele>124</ele>
<time>2015-06-26T11:22:40Z</time>
</trkpt>
<trkpt lat="53.2997807" lon="18.4240540">
<ele>124</ele>
<time>2015-06-26T11:22:42Z</time>
</trkpt>
<trkpt lat="53.2997808" lon="18.4240540">
<ele>124</ele>
<time>2015-06-26T11:22:44Z</time>
</trkpt>
<trkpt lat="53.2997809" lon="18.4240540">
<ele>124</ele>
<time>2015-06-26T11:22:46Z</time>
</trkpt>
<trkpt lat="53.2997811" lon="18.4240542">
<ele>124</ele>
<time>2015-06-26T11:22:50Z</time>
</trkpt>
<trkpt lat="53.2997812" lon="18.4240543">
<ele>124</ele>
<time>2015-06-26T11:22:52Z</time>
</trkpt>
<trkpt lat="53.2997814" lon="18.4240544">
<ele>124</ele>
<time>2015-06-26T11:22:56Z</time>
</trkpt>
<trkpt lat="53.2997815" lon="18.4240544">
<ele>124</ele>
<time>2015-06-26T11:22:58Z</time>
</trkpt>
<trkpt lat="53.2997816" lon="18.4240545">
<ele>124</ele>
<time>2015-06-26T11:23:00Z</time>
</trkpt>
<trkpt lat="53.2997817" lon="18.4240546">
<ele>124</ele>
<time>2015-06-26T11:23:02Z</time>
</trkpt>
<trkpt lat="53.2997818" lon="18.4240546">
<ele>124</ele>
<time>2015-06-26T11:23:04Z</time>
</trkpt>
<trkpt lat="53.2997819" lon="18.4240547">
<ele>124</ele>
<time>2015-06-26T11:23:06Z</time>
</trkpt>
<trkpt lat="53.2997819" lon="18.4240547">
<ele>124</ele>
<time>2015-06-26T11:23:08Z</time>
</trkpt>
<trkpt lat="53.2997820" lon="18.4240547">
<ele>124</ele>
<time>2015-06-26T11:23:10Z</time>
</trkpt>
<trkpt lat="53.2997820" lon="18.4240547">
<ele>124</ele>
<time>2015-06-26T11:23:12Z</time>
</trkpt>
<trkpt lat="53.2997821" lon="18.4240547">
<ele>124</ele>
<time>2015-06-26T11:23:14Z</time>
</trkpt>
<trkpt lat="53.2997821" lon="18.4240547">
<ele>124</ele>
<time>2015-06-26T11:23:16Z</time>
</trkpt>
<trkpt lat="53.2997820" lon="18.4240548">
<ele>124</ele>
<time>2015-06-26T11:23:18Z</time>
</trkpt>
<trkpt lat="53.2997820" lon="18.4240548">
<ele>124</ele>
<time>2015-06-26T11:23:20Z</time>
</trkpt>
<trkpt lat="53.2997820" lon="18.4240548">
<ele>124</ele>
<time>2015-06-26T11:23:22Z</time>
</trkpt>
<trkpt lat="53.2997820" lon="18.4240548">
<ele>124</ele>
<time>2015-06-26T11:23:24Z</time>
</trkpt>
<trkpt lat="53.2997820" lon="18.4240548">
<ele>124</ele>
<time>2015-06-26T11:23:26Z</time>
</trkpt>
<trkpt lat="53.2997820" lon="18.4240549">
<ele>124</ele>
<time>2015-06-26T11:23:28Z</time>
</trkpt>
<trkpt lat="53.2997819" lon="18.4240549">
<ele>124</ele>
<time>2015-06-26T11:23:30Z</time>
</trkpt>
<trkpt lat="53.2997819" lon="18.4240550">
<ele>124</ele>
<time>2015-06-26T11:23:32Z</time>
</trkpt>
<trkpt lat="53.2997819" lon="18.4240551">
<ele>124</ele>
<time>2015-06-26T11:23:34Z</time>
</trkpt>
<trkpt lat="53.2997819" lon="18.4240551">
<ele>124</ele>
<time>2015-06-26T11:23:36Z</time>
</trkpt>
<trkpt lat="53.2997819" lon="18.4240552">
<ele>124</ele>
<time>2015-06-26T11:23:38Z</time>
</trkpt>
<trkpt lat="53.2997818" lon="18.4240552">
<ele>124</ele>
<time>2015-06-26T11:23:40Z</time>
</trkpt>
<trkpt lat="53.2997818" lon="18.4240553">
<ele>124</ele>
<time>2015-06-26T11:23:42Z</time>
</trkpt>
<trkpt lat="53.2997818" lon="18.4240553">
<ele>124</ele>
<time>2015-06-26T11:23:44Z</time>
</trkpt>
<trkpt lat="53.2997818" lon="18.4240553">
<ele>124</ele>
<time>2015-06-26T11:23:46Z</time>
</trkpt>
<trkpt lat="53.2997817" lon="18.4240553">
<ele>124</ele>
<time>2015-06-26T11:23:48Z</time>
</trkpt>
<trkpt lat="53.2997817" lon="18.4240553">
<ele>124</ele>
<time>2015-06-26T11:23:50Z</time>
</trkpt>
<trkpt lat="53.2997817" lon="18.4240553">
<ele>124</ele>
<time>2015-06-26T11:23:52Z</time>
</trkpt>
<trkpt lat="53.2997817" lon="18.4240553">
<ele>124</ele>
<time>2015-06-26T11:23:54Z</time>
</trkpt>
<trkpt lat="53.2997817" lon="18.4240553">
<ele>124</ele>
<time>2015-06-26T11:23:56Z</time>
</trkpt>
<trkpt lat="53.2997816" lon="18.4240553">
<ele>124</ele>
<time>2015-06-26T11:23:58Z</time>
</trkpt>
<trkpt lat="53.2997816" lon="18.4240553">
<ele>124</ele>
<time>2015-06-26T11:24:00Z</time>
</trkpt>
<trkpt lat="53.2997816" lon="18.4240552">
<ele>124</ele>
<time>2015-06-26T11:24:02Z</time>
</trkpt>
<trkpt lat="53.2997816" lon="18.4240552">
<ele>124</ele>
<time>2015-06-26T11:24:04Z</time>
</trkpt>
<trkpt lat="53.2997816" lon="18.4240551">
<ele>124</ele>
<time>2015-06-26T11:24:06Z</time>
</trkpt>
<trkpt lat="53.2997816" lon="18.4240551">
<ele>124</ele>
<time>2015-06-26T11:24:08Z</time>
</trkpt>
<trkpt lat="53.2997815" lon="18.4240552">
<ele>124</ele>
<time>2015-06-26T11:24:10Z</time>
</trkpt>
<trkpt lat="53.2997815" lon="18.4240552">
<ele>124</ele>
<time>2015-06-26T11:24:12Z</time>
</trkpt>
<trkpt lat="53.2997815" lon="18.4240552">
<ele>124</ele>
<time>2015-06-26T11:24:14Z</time>
</trkpt>
<trkpt lat="53.2997815" lon="18.4240552">
<ele>124</ele>
<time>2015-06-26T11:24:16Z</time>
</trkpt>
<trkpt lat="53.2997815" lon="18.4240552">
<ele>124</ele>
<time>2015-06-26T11:24:18Z</time>
</trkpt>
<trkpt lat="53.2997815" lon="18.4240552">
<ele>124</ele>
<time>2015-06-26T11:24:20Z</time>
</trkpt>
<trkpt lat="53.2997816" lon="18.4240551">
<ele>124</ele>
<time>2015-06-26T11:24:22Z</time>
</trkpt>
<trkpt lat="53.2997815" lon="18.4240551">
<ele>124</ele>
<time>2015-06-26T11:24:24Z</time>
</trkpt>
<trkpt lat="53.2997815" lon="18.4240551">
<ele>124</ele>
<time>2015-06-26T11:24:26Z</time>
</trkpt>
<trkpt lat="53.2997815" lon="18.4240552">
<ele>124</ele>
<time>2015-06-26T11:24:28Z</time>
</trkpt>
<trkpt lat="53.2997814" lon="18.4240553">
<ele>124</ele>
<time>2015-06-26T11:24:32Z</time>
</trkpt>
<trkpt lat="53.2997814" lon="18.4240554">
<ele>124</ele>
<time>2015-06-26T11:24:34Z</time>
</trkpt>
<trkpt lat="53.2997814" lon="18.4240554">
<ele>124</ele>
<time>2015-06-26T11:24:36Z</time>
</trkpt>
<trkpt lat="53.2997814" lon="18.4240554">
<ele>124</ele>
<time>2015-06-26T11:24:38Z</time>
</trkpt>
<trkpt lat="53.2997814" lon="18.4240555">
<ele>124</ele>
<time>2015-06-26T11:24:40Z</time>
</trkpt>
<trkpt lat="53.2997813" lon="18.4240555">
<ele>124</ele>
<time>2015-06-26T11:24:42Z</time>
</trkpt>
<trkpt lat="53.2997813" lon="18.4240555">
<ele>124</ele>
<time>2015-06-26T11:24:44Z</time>
</trkpt>
<trkpt lat="53.2997812" lon="18.4240555">
<ele>124</ele>
<time>2015-06-26T11:24:46Z</time>
</trkpt>
<trkpt lat="53.2997812" lon="18.4240555">
<ele>124</ele>
<time>2015-06-26T11:24:48Z</time>
</trkpt>
<trkpt lat="53.2997812" lon="18.4240555">
<ele>124</ele>
<time>2015-06-26T11:24:50Z</time>
</trkpt>
<trkpt lat="53.2997812" lon="18.4240555">
<ele>124</ele>
<time>2015-06-26T11:24:52Z</time>
</trkpt>
<trkpt lat="53.2997812" lon="18.4240555">
<ele>124</ele>
<time>2015-06-26T11:24:56Z</time>
</trkpt>
<trkpt lat="53.2997812" lon="18.4240555">
<ele>124</ele>
<time>2015-06-26T11:24:58Z</time>
</trkpt>
<trkpt lat="53.2997812" lon="18.4240555">
<ele>124</ele>
<time>2015-06-26T11:25:02Z</time>
</trkpt>
<trkpt lat="53.2997812" lon="18.4240555">
<ele>124</ele>
<time>2015-06-26T11:25:04Z</time>
</trkpt>
<trkpt lat="53.2997812" lon="18.4240555">
<ele>124</ele>
<time>2015-06-26T11:25:06Z</time>
</trkpt>
<trkpt lat="53.2997812" lon="18.4240555">
<ele>124</ele>
<time>2015-06-26T11:25:08Z</time>
</trkpt>
<trkpt lat="53.2997812" lon="18.4240555">
<ele>124</ele>
<time>2015-06-26T11:25:10Z</time>
</trkpt>
<trkpt lat="53.2997812" lon="18.4240555">
<ele>124</ele>
<time>2015-06-26T11:25:12Z</time>
</trkpt>
<trkpt lat="53.2997812" lon="18.4240556">
<ele>124</ele>
<time>2015-06-26T11:25:14Z</time>
</trkpt>
<trkpt lat="53.2997812" lon="18.4240556">
<ele>124</ele>
<time>2015-06-26T11:25:16Z</time>
</trkpt>
<trkpt lat="53.2997812" lon="18.4240556">
<ele>124</ele>
<time>2015-06-26T11:25:18Z</time>
</trkpt>
<trkpt lat="53.2997812" lon="18.4240556">
<ele>124</ele>
<time>2015-06-26T11:25:20Z</time>
</trkpt>
<trkpt lat="53.2997811" lon="18.4240556">
<ele>124</ele>
<time>2015-06-26T11:25:22Z</time>
</trkpt>
<trkpt lat="53.2997811" lon="18.4240555">
<ele>124</ele>
<time>2015-06-26T11:25:26Z</time>
</trkpt>
<trkpt lat="53.2997811" lon="18.4240555">
<ele>124</ele>
<time>2015-06-26T11:25:28Z</time>
</trkpt>
<trkpt lat="53.2997810" lon="18.4240555">
<ele>124</ele>
<time>2015-06-26T11:25:30Z</time>
</trkpt>
<trkpt lat="53.2997810" lon="18.4240555">
<ele>124</ele>
<time>2015-06-26T11:25:32Z</time>
</trkpt>
<trkpt lat="53.2997810" lon="18.4240554">
<ele>124</ele>
<time>2015-06-26T11:25:34Z</time>
</trkpt>
<trkpt lat="53.2997810" lon="18.4240554">
<ele>124</ele>
<time>2015-06-26T11:25:36Z</time>
</trkpt>
<trkpt lat="53.2997810" lon="18.4240554">
<ele>124</ele>
<time>2015-06-26T11:25:38Z</time>
</trkpt>
<trkpt lat="53.2997811" lon="18.4240554">
<ele>124</ele>
<time>2015-06-26T11:25:40Z</time>
</trkpt>
<trkpt lat="53.2997811" lon="18.4240554">
<ele>124</ele>
<time>2015-06-26T11:25:42Z</time>
</trkpt>
<trkpt lat="53.2997811" lon="18.4240554">
<ele>124</ele>
<time>2015-06-26T11:25:44Z</time>
</trkpt>
<trkpt lat="53.2997811" lon="18.4240553">
<ele>124</ele>
<time>2015-06-26T11:25:46Z</time>
</trkpt>
<trkpt lat="53.2997811" lon="18.4240553">
<ele>124</ele>
<time>2015-06-26T11:25:48Z</time>
</trkpt>
<trkpt lat="53.2997811" lon="18.4240552">
<ele>124</ele>
<time>2015-06-26T11:25:50Z</time>
</trkpt>
<trkpt lat="53.2997811" lon="18.4240552">
<ele>124</ele>
<time>2015-06-26T11:25:52Z</time>
</trkpt>
<trkpt lat="53.2997811" lon="18.4240551">
<ele>124</ele>
<time>2015-06-26T11:25:54Z</time>
</trkpt>
<trkpt lat="53.2997811" lon="18.4240551">
<ele>124</ele>
<time>2015-06-26T11:25:56Z</time>
</trkpt>
<trkpt lat="53.2997811" lon="18.4240551">
<ele>124</ele>
<time>2015-06-26T11:25:58Z</time>
</trkpt>
<trkpt lat="53.2997811" lon="18.4240550">
<ele>124</ele>
<time>2015-06-26T11:26:02Z</time>
</trkpt>
<trkpt lat="53.2997811" lon="18.4240550">
<ele>124</ele>
<time>2015-06-26T11:26:04Z</time>
</trkpt>
<trkpt lat="53.2997810" lon="18.4240550">
<ele>124</ele>
<time>2015-06-26T11:26:06Z</time>
</trkpt>
<trkpt lat="53.2997809" lon="18.4240551">
<ele>124</ele>
<time>2015-06-26T11:26:08Z</time>
</trkpt>
<trkpt lat="53.2997809" lon="18.4240552">
<ele>124</ele>
<time>2015-06-26T11:26:10Z</time>
</trkpt>
<trkpt lat="53.2997809" lon="18.4240553">
<ele>124</ele>
<time>2015-06-26T11:26:12Z</time>
</trkpt>
<trkpt lat="53.2997809" lon="18.4240553">
<ele>124</ele>
<time>2015-06-26T11:26:14Z</time>
</trkpt>
<trkpt lat="53.2997809" lon="18.4240553">
<ele>124</ele>
<time>2015-06-26T11:26:16Z</time>
</trkpt>
<trkpt lat="53.2997810" lon="18.4240553">
<ele>124</ele>
<time>2015-06-26T11:26:18Z</time>
</trkpt>
<trkpt lat="53.2997810" lon="18.4240553">
<ele>124</ele>
<time>2015-06-26T11:26:22Z</time>
</trkpt>
<trkpt lat="53.2997811" lon="18.4240553">
<ele>124</ele>
<time>2015-06-26T11:26:24Z</time>
</trkpt>
<trkpt lat="53.2997811" lon="18.4240553">
<ele>124</ele>
<time>2015-06-26T11:26:26Z</time>
</trkpt>
<trkpt lat="53.2997812" lon="18.4240553">
<ele>124</ele>
<time>2015-06-26T11:26:28Z</time>
</trkpt>
<trkpt lat="53.2997812" lon="18.4240554">
<ele>124</ele>
<time>2015-06-26T11:26:30Z</time>
</trkpt>
<trkpt lat="53.2997812" lon="18.4240555">
<ele>124</ele>
<time>2015-06-26T11:26:32Z</time>
</trkpt>
<trkpt lat="53.2997812" lon="18.4240556">
<ele>124</ele>
<time>2015-06-26T11:26:34Z</time>
</trkpt>
<trkpt lat="53.2997813" lon="18.4240556">
<ele>124</ele>
<time>2015-06-26T11:26:36Z</time>
</trkpt>
<trkpt lat="53.2997812" lon="18.4240556">
<ele>124</ele>
<time>2015-06-26T11:26:40Z</time>
</trkpt>
<trkpt lat="53.2997812" lon="18.4240556">
<ele>124</ele>
<time>2015-06-26T11:26:42Z</time>
</trkpt>
<trkpt lat="53.2997812" lon="18.4240556">
<ele>124</ele>
<time>2015-06-26T11:26:44Z</time>
</trkpt>
<trkpt lat="53.2997812" lon="18.4240555">
<ele>124</ele>
<time>2015-06-26T11:26:48Z</time>
</trkpt>
<trkpt lat="53.2997813" lon="18.4240554">
<ele>124</ele>
<time>2015-06-26T11:26:52Z</time>
</trkpt>
<trkpt lat="53.2997814" lon="18.4240553">
<ele>124</ele>
<time>2015-06-26T11:26:54Z</time>
</trkpt>
<trkpt lat="53.2997814" lon="18.4240552">
<ele>124</ele>
<time>2015-06-26T11:26:56Z</time>
</trkpt>
<trkpt lat="53.2997815" lon="18.4240551">
<ele>124</ele>
<time>2015-06-26T11:26:58Z</time>
</trkpt>
<trkpt lat="53.2997816" lon="18.4240550">
<ele>124</ele>
<time>2015-06-26T11:27:02Z</time>
</trkpt>
<trkpt lat="53.2997816" lon="18.4240549">
<ele>124</ele>
<time>2015-06-26T11:27:04Z</time>
</trkpt>
<trkpt lat="53.2997817" lon="18.4240549">
<ele>124</ele>
<time>2015-06-26T11:27:06Z</time>
</trkpt>
<trkpt lat="53.2997816" lon="18.4240550">
<ele>124</ele>
<time>2015-06-26T11:27:10Z</time>
</trkpt>
<trkpt lat="53.2997815" lon="18.4240550">
<ele>124</ele>
<time>2015-06-26T11:27:12Z</time>
</trkpt>
<trkpt lat="53.2997815" lon="18.4240550">
<ele>124</ele>
<time>2015-06-26T11:27:14Z</time>
</trkpt>
<trkpt lat="53.2997815" lon="18.4240549">
<ele>124</ele>
<time>2015-06-26T11:27:16Z</time>
</trkpt>
<trkpt lat="53.2997815" lon="18.4240549">
<ele>124</ele>
<time>2015-06-26T11:27:18Z</time>
</trkpt>
<trkpt lat="53.2997815" lon="18.4240549">
<ele>124</ele>
<time>2015-06-26T11:27:20Z</time>
</trkpt>
<trkpt lat="53.2997815" lon="18.4240548">
<ele>124</ele>
<time>2015-06-26T11:27:22Z</time>
</trkpt>
<trkpt lat="53.2997816" lon="18.4240548">
<ele>124</ele>
<time>2015-06-26T11:27:24Z</time>
</trkpt>
<trkpt lat="53.2997816" lon="18.4240547">
<ele>124</ele>
<time>2015-06-26T11:27:26Z</time>
</trkpt>
<trkpt lat="53.2997816" lon="18.4240547">
<ele>124</ele>
<time>2015-06-26T11:27:28Z</time>
</trkpt>
<trkpt lat="53.2997816" lon="18.4240548">
<ele>124</ele>
<time>2015-06-26T11:27:30Z</time>
</trkpt>
<trkpt lat="53.2997816" lon="18.4240549">
<ele>124</ele>
<time>2015-06-26T11:27:32Z</time>
</trkpt>
<trkpt lat="53.2997816" lon="18.4240550">
<ele>124</ele>
<time>2015-06-26T11:27:34Z</time>
</trkpt>
<trkpt lat="53.2997816" lon="18.4240551">
<ele>124</ele>
<time>2015-06-26T11:27:36Z</time>
</trkpt>
<trkpt lat="53.2997814" lon="18.4240558">
<ele>124</ele>
<time>2015-06-26T11:27:54Z</time>
</trkpt>
<trkpt lat="53.2997814" lon="18.4240558">
<ele>124</ele>
<time>2015-06-26T11:27:56Z</time>
</trkpt>
<trkpt lat="53.2997814" lon="18.4240559">
<ele>124</ele>
<time>2015-06-26T11:27:58Z</time>
</trkpt>
<trkpt lat="53.2997814" lon="18.4240559">
<ele>124</ele>
<time>2015-06-26T11:28:00Z</time>
</trkpt>
<trkpt lat="53.2997814" lon="18.4240560">
<ele>124</ele>
<time>2015-06-26T11:28:02Z</time>
</trkpt>
<trkpt lat="53.2997814" lon="18.4240560">
<ele>124</ele>
<time>2015-06-26T11:28:04Z</time>
</trkpt>
<trkpt lat="53.2997814" lon="18.4240561">
<ele>124</ele>
<time>2015-06-26T11:28:06Z</time>
</trkpt>
<trkpt lat="53.2997814" lon="18.4240561">
<ele>124</ele>
<time>2015-06-26T11:28:08Z</time>
</trkpt>
<trkpt lat="53.2997814" lon="18.4240562">
<ele>124</ele>
<time>2015-06-26T11:28:10Z</time>
</trkpt>
<trkpt lat="53.2997814" lon="18.4240562">
<ele>124</ele>
<time>2015-06-26T11:28:12Z</time>
</trkpt>
<trkpt lat="53.2997813" lon="18.4240563">
<ele>124</ele>
<time>2015-06-26T11:28:14Z</time>
</trkpt>
<trkpt lat="53.2997812" lon="18.4240564">
<ele>124</ele>
<time>2015-06-26T11:28:18Z</time>
</trkpt>
<trkpt lat="53.2997812" lon="18.4240564">
<ele>124</ele>
<time>2015-06-26T11:28:20Z</time>
</trkpt>
<trkpt lat="53.2997812" lon="18.4240565">
<ele>124</ele>
<time>2015-06-26T11:28:22Z</time>
</trkpt>
<trkpt lat="53.2997811" lon="18.4240565">
<ele>124</ele>
<time>2015-06-26T11:28:24Z</time>
</trkpt>
<trkpt lat="53.2997811" lon="18.4240566">
<ele>124</ele>
<time>2015-06-26T11:28:26Z</time>
</trkpt>
<trkpt lat="53.2997811" lon="18.4240567">
<ele>124</ele>
<time>2015-06-26T11:28:28Z</time>
</trkpt>
<trkpt lat="53.2997811" lon="18.4240568">
<ele>124</ele>
<time>2015-06-26T11:28:30Z</time>
</trkpt>
<trkpt lat="53.2997811" lon="18.4240568">
<ele>124</ele>
<time>2015-06-26T11:28:32Z</time>
</trkpt>
<trkpt lat="53.2997811" lon="18.4240568">
<ele>124</ele>
<time>2015-06-26T11:28:34Z</time>
</trkpt>
<trkpt lat="53.2997811" lon="18.4240569">
<ele>124</ele>
<time>2015-06-26T11:28:36Z</time>
</trkpt>
<trkpt lat="53.2997811" lon="18.4240569">
<ele>124</ele>
<time>2015-06-26T11:28:38Z</time>
</trkpt>
<trkpt lat="53.2997811" lon="18.4240569">
<ele>124</ele>
<time>2015-06-26T11:28:40Z</time>
</trkpt>
<trkpt lat="53.2997810" lon="18.4240570">
<ele>124</ele>
<time>2015-06-26T11:28:42Z</time>
</trkpt>
<trkpt lat="53.2997810" lon="18.4240571">
<ele>124</ele>
<time>2015-06-26T11:28:44Z</time>
</trkpt>
<trkpt lat="53.2997809" lon="18.4240571">
<ele>124</ele>
<time>2015-06-26T11:28:46Z</time>
</trkpt>
<trkpt lat="53.2997809" lon="18.4240571">
<ele>124</ele>
<time>2015-06-26T11:28:48Z</time>
</trkpt>
<trkpt lat="53.2997809" lon="18.4240571">
<ele>124</ele>
<time>2015-06-26T11:28:50Z</time>
</trkpt>
<trkpt lat="53.299781" lon="18.4240571">
<ele>124</ele>
<time>2015-06-26T11:28:52Z</time>
</trkpt>
<trkpt lat="53.2997809" lon="18.4240571">
<ele>124</ele>
<time>2015-06-26T11:28:54Z</time>
</trkpt>
<trkpt lat="53.2997809" lon="18.4240572">
<ele>124</ele>
<time>2015-06-26T11:28:56Z</time>
</trkpt>
<trkpt lat="53.2997809" lon="18.4240572">
<ele>124</ele>
<time>2015-06-26T11:28:58Z</time>
</trkpt>
<trkpt lat="53.2997809" lon="18.4240571">
<ele>124</ele>
<time>2015-06-26T11:29:00Z</time>
</trkpt>
<trkpt lat="53.2997809" lon="18.4240570">
<ele>124</ele>
<time>2015-06-26T11:29:02Z</time>
</trkpt>
<trkpt lat="53.2997808" lon="18.4240570">
<ele>124</ele>
<time>2015-06-26T11:29:04Z</time>
</trkpt>
<trkpt lat="53.2997809" lon="18.424057">
<ele>124</ele>
<time>2015-06-26T11:29:06Z</time>
</trkpt>
<trkpt lat="53.2997809" lon="18.4240570">
<ele>124</ele>
<time>2015-06-26T11:29:10Z</time>
</trkpt>
<trkpt lat="53.2997809" lon="18.4240571">
<ele>124</ele>
<time>2015-06-26T11:29:12Z</time>
</trkpt>
<trkpt lat="53.2997809" lon="18.4240571">
<ele>124</ele>
<time>2015-06-26T11:29:14Z</time>
</trkpt>
<trkpt lat="53.2997809" lon="18.4240571">
<ele>124</ele>
<time>2015-06-26T11:29:16Z</time>
</trkpt>
<trkpt lat="53.2997809" lon="18.4240571">
<ele>124</ele>
<time>2015-06-26T11:29:18Z</time>
</trkpt>
<trkpt lat="53.2997809" lon="18.4240572">
<ele>124</ele>
<time>2015-06-26T11:29:20Z</time>
</trkpt>
<trkpt lat="53.2997809" lon="18.4240572">
<ele>124</ele>
<time>2015-06-26T11:29:22Z</time>
</trkpt>
<trkpt lat="53.2997809" lon="18.4240572">
<ele>124</ele>
<time>2015-06-26T11:29:24Z</time>
</trkpt>
<trkpt lat="53.2997809" lon="18.4240572">
<ele>124</ele>
<time>2015-06-26T11:29:26Z</time>
</trkpt>
<trkpt lat="53.2997809" lon="18.4240572">
<ele>124</ele>
<time>2015-06-26T11:29:28Z</time>
</trkpt>
<trkpt lat="53.2997809" lon="18.4240572">
<ele>124</ele>
<time>2015-06-26T11:29:30Z</time>
</trkpt>
<trkpt lat="53.2997808" lon="18.4240573">
<ele>124</ele>
<time>2015-06-26T11:29:32Z</time>
</trkpt>
<trkpt lat="53.2997808" lon="18.4240573">
<ele>124</ele>
<time>2015-06-26T11:29:34Z</time>
</trkpt>
<trkpt lat="53.2997808" lon="18.4240574">
<ele>124</ele>
<time>2015-06-26T11:29:36Z</time>
</trkpt>
<trkpt lat="53.2997808" lon="18.4240574">
<ele>124</ele>
<time>2015-06-26T11:29:38Z</time>
</trkpt>
<trkpt lat="53.2997808" lon="18.4240574">
<ele>124</ele>
<time>2015-06-26T11:29:40Z</time>
</trkpt>
<trkpt lat="53.2997808" lon="18.4240574">
<ele>124</ele>
<time>2015-06-26T11:29:42Z</time>
</trkpt>
<trkpt lat="53.2997809" lon="18.4240574">
<ele>124</ele>
<time>2015-06-26T11:29:44Z</time>
</trkpt>
<trkpt lat="53.2997808" lon="18.4240574">
<ele>124</ele>
<time>2015-06-26T11:29:46Z</time>
</trkpt>
<trkpt lat="53.2997808" lon="18.4240574">
<ele>124</ele>
<time>2015-06-26T11:29:48Z</time>
</trkpt>
<trkpt lat="53.2997809" lon="18.4240574">
<ele>124</ele>
<time>2015-06-26T11:29:50Z</time>
</trkpt>
<trkpt lat="53.2997809" lon="18.4240574">
<ele>124</ele>
<time>2015-06-26T11:29:52Z</time>
</trkpt>
<trkpt lat="53.2997809" lon="18.4240574">
<ele>124</ele>
<time>2015-06-26T11:29:54Z</time>
</trkpt>
<trkpt lat="53.2997809" lon="18.4240574">
<ele>124</ele>
<time>2015-06-26T11:29:56Z</time>
</trkpt>
<trkpt lat="53.2997809" lon="18.4240574">
<ele>124</ele>
<time>2015-06-26T11:29:58Z</time>
</trkpt>
<trkpt lat="53.2997809" lon="18.4240574">
<ele>124</ele>
<time>2015-06-26T11:30:00Z</time>
</trkpt>
<trkpt lat="53.2997809" lon="18.4240574">
<ele>124</ele>
<time>2015-06-26T11:30:02Z</time>
</trkpt>
<trkpt lat="53.299781" lon="18.4240575">
<ele>124</ele>
<time>2015-06-26T11:30:04Z</time>
</trkpt>
<trkpt lat="53.2997810" lon="18.4240575">
<ele>124</ele>
<time>2015-06-26T11:30:06Z</time>
</trkpt>
<trkpt lat="53.2997810" lon="18.4240575">
<ele>124</ele>
<time>2015-06-26T11:30:08Z</time>
</trkpt>
<trkpt lat="53.2997811" lon="18.4240575">
<ele>124</ele>
<time>2015-06-26T11:30:10Z</time>
</trkpt>
<trkpt lat="53.2997811" lon="18.4240575">
<ele>124</ele>
<time>2015-06-26T11:30:12Z</time>
</trkpt>
<trkpt lat="53.2997811" lon="18.4240576">
<ele>124</ele>
<time>2015-06-26T11:30:14Z</time>
</trkpt>
<trkpt lat="53.2997810" lon="18.4240576">
<ele>124</ele>
<time>2015-06-26T11:30:16Z</time>
</trkpt>
<trkpt lat="53.2997810" lon="18.4240577">
<ele>124</ele>
<time>2015-06-26T11:30:18Z</time>
</trkpt>
<trkpt lat="53.2997810" lon="18.4240578">
<ele>124</ele>
<time>2015-06-26T11:30:20Z</time>
</trkpt>
<trkpt lat="53.2997810" lon="18.4240579">
<ele>124</ele>
<time>2015-06-26T11:30:22Z</time>
</trkpt>
<trkpt lat="53.2997810" lon="18.4240580">
<ele>124</ele>
<time>2015-06-26T11:30:24Z</time>
</trkpt>
<trkpt lat="53.2997810" lon="18.4240581">
<ele>124</ele>
<time>2015-06-26T11:30:26Z</time>
</trkpt>
<trkpt lat="53.2997811" lon="18.4240581">
<ele>124</ele>
<time>2015-06-26T11:30:28Z</time>
</trkpt>
<trkpt lat="53.2997811" lon="18.4240581">
<ele>124</ele>
<time>2015-06-26T11:30:30Z</time>
</trkpt>
<trkpt lat="53.2997812" lon="18.4240581">
<ele>124</ele>
<time>2015-06-26T11:30:32Z</time>
</trkpt>
<trkpt lat="53.2997812" lon="18.4240581">
<ele>124</ele>
<time>2015-06-26T11:30:34Z</time>
</trkpt>
<trkpt lat="53.2997812" lon="18.4240581">
<ele>124</ele>
<time>2015-06-26T11:30:36Z</time>
</trkpt>
<trkpt lat="53.2997812" lon="18.4240581">
<ele>124</ele>
<time>2015-06-26T11:30:38Z</time>
</trkpt>
<trkpt lat="53.2997813" lon="18.4240579">
<ele>124</ele>
<time>2015-06-26T11:30:40Z</time>
</trkpt>
<trkpt lat="53.2997813" lon="18.4240579">
<ele>124</ele>
<time>2015-06-26T11:30:42Z</time>
</trkpt>
<trkpt lat="53.2997813" lon="18.4240579">
<ele>124</ele>
<time>2015-06-26T11:30:44Z</time>
</trkpt>
<trkpt lat="53.2997813" lon="18.4240579">
<ele>124</ele>
<time>2015-06-26T11:30:46Z</time>
</trkpt>
<trkpt lat="53.2997813" lon="18.4240578">
<ele>124</ele>
<time>2015-06-26T11:30:48Z</time>
</trkpt>
<trkpt lat="53.2997814" lon="18.4240578">
<ele>124</ele>
<time>2015-06-26T11:30:50Z</time>
</trkpt>
<trkpt lat="53.2997814" lon="18.4240577">
<ele>124</ele>
<time>2015-06-26T11:30:52Z</time>
</trkpt>
<trkpt lat="53.2997814" lon="18.4240577">
<ele>124</ele>
<time>2015-06-26T11:30:54Z</time>
</trkpt>
<trkpt lat="53.2997814" lon="18.4240577">
<ele>124</ele>
<time>2015-06-26T11:30:56Z</time>
</trkpt>
<trkpt lat="53.2997813" lon="18.4240578">
<ele>124</ele>
<time>2015-06-26T11:30:58Z</time>
</trkpt>
<trkpt lat="53.2997813" lon="18.4240578">
<ele>124</ele>
<time>2015-06-26T11:31:00Z</time>
</trkpt>
<trkpt lat="53.2997813" lon="18.4240578">
<ele>124</ele>
<time>2015-06-26T11:31:02Z</time>
</trkpt>
<trkpt lat="53.2997813" lon="18.4240577">
<ele>124</ele>
<time>2015-06-26T11:31:04Z</time>
</trkpt>
<trkpt lat="53.2997813" lon="18.4240577">
<ele>124</ele>
<time>2015-06-26T11:31:06Z</time>
</trkpt>
<trkpt lat="53.2997813" lon="18.4240577">
<ele>124</ele>
<time>2015-06-26T11:31:10Z</time>
</trkpt>
<trkpt lat="53.2997814" lon="18.4240577">
<ele>124</ele>
<time>2015-06-26T11:31:12Z</time>
</trkpt>
<trkpt lat="53.2997814" lon="18.4240576">
<ele>124</ele>
<time>2015-06-26T11:31:14Z</time>
</trkpt>
<trkpt lat="53.2997814" lon="18.4240576">
<ele>124</ele>
<time>2015-06-26T11:31:16Z</time>
</trkpt>
<trkpt lat="53.2997815" lon="18.4240575">
<ele>124</ele>
<time>2015-06-26T11:31:18Z</time>
</trkpt>
<trkpt lat="53.2997815" lon="18.4240575">
<ele>124</ele>
<time>2015-06-26T11:31:20Z</time>
</trkpt>
<trkpt lat="53.2997814" lon="18.4240575">
<ele>124</ele>
<time>2015-06-26T11:31:22Z</time>
</trkpt>
<trkpt lat="53.2997815" lon="18.4240575">
<ele>124</ele>
<time>2015-06-26T11:31:26Z</time>
</trkpt>
<trkpt lat="53.2997815" lon="18.4240575">
<ele>124</ele>
<time>2015-06-26T11:31:28Z</time>
</trkpt>
<trkpt lat="53.2997815" lon="18.4240575">
<ele>124</ele>
<time>2015-06-26T11:31:32Z</time>
</trkpt>
<trkpt lat="53.2997815" lon="18.4240575">
<ele>124</ele>
<time>2015-06-26T11:31:34Z</time>
</trkpt>
<trkpt lat="53.2997815" lon="18.4240575">
<ele>124</ele>
<time>2015-06-26T11:31:36Z</time>
</trkpt>
<trkpt lat="53.2997815" lon="18.4240575">
<ele>124</ele>
<time>2015-06-26T11:31:38Z</time>
</trkpt>
<trkpt lat="53.2997816" lon="18.4240575">
<ele>124</ele>
<time>2015-06-26T11:31:40Z</time>
</trkpt>
<trkpt lat="53.2997816" lon="18.4240575">
<ele>124</ele>
<time>2015-06-26T11:31:42Z</time>
</trkpt>
<trkpt lat="53.2997816" lon="18.4240575">
<ele>124</ele>
<time>2015-06-26T11:31:44Z</time>
</trkpt>
<trkpt lat="53.2997815" lon="18.4240576">
<ele>124</ele>
<time>2015-06-26T11:31:46Z</time>
</trkpt>
<trkpt lat="53.2997815" lon="18.4240575">
<ele>124</ele>
<time>2015-06-26T11:31:48Z</time>
</trkpt>
<trkpt lat="53.2997815" lon="18.4240575">
<ele>124</ele>
<time>2015-06-26T11:31:50Z</time>
</trkpt>
<trkpt lat="53.2997815" lon="18.4240574">
<ele>124</ele>
<time>2015-06-26T11:31:52Z</time>
</trkpt>
<trkpt lat="53.2997815" lon="18.4240574">
<ele>124</ele>
<time>2015-06-26T11:31:54Z</time>
</trkpt>
<trkpt lat="53.2997815" lon="18.4240574">
<ele>124</ele>
<time>2015-06-26T11:31:56Z</time>
</trkpt>
<trkpt lat="53.2997814" lon="18.4240574">
<ele>124</ele>
<time>2015-06-26T11:31:58Z</time>
</trkpt>
<trkpt lat="53.2997814" lon="18.4240573">
<ele>124</ele>
<time>2015-06-26T11:32:00Z</time>
</trkpt>
<trkpt lat="53.2997813" lon="18.4240574">
<ele>124</ele>
<time>2015-06-26T11:32:02Z</time>
</trkpt>
<trkpt lat="53.2997813" lon="18.4240574">
<ele>124</ele>
<time>2015-06-26T11:32:04Z</time>
</trkpt>
<trkpt lat="53.2997813" lon="18.4240574">
<ele>124</ele>
<time>2015-06-26T11:32:06Z</time>
</trkpt>
<trkpt lat="53.2997812" lon="18.4240575">
<ele>124</ele>
<time>2015-06-26T11:32:08Z</time>
</trkpt>
<trkpt lat="53.2997812" lon="18.4240575">
<ele>124</ele>
<time>2015-06-26T11:32:10Z</time>
</trkpt>
<trkpt lat="53.2997812" lon="18.4240575">
<ele>124</ele>
<time>2015-06-26T11:32:12Z</time>
</trkpt>
<trkpt lat="53.2997812" lon="18.4240575">
<ele>124</ele>
<time>2015-06-26T11:32:14Z</time>
</trkpt>
<trkpt lat="53.2997812" lon="18.4240576">
<ele>124</ele>
<time>2015-06-26T11:32:18Z</time>
</trkpt>
<trkpt lat="53.2997812" lon="18.4240576">
<ele>124</ele>
<time>2015-06-26T11:32:20Z</time>
</trkpt>
<trkpt lat="53.2997813" lon="18.4240577">
<ele>124</ele>
<time>2015-06-26T11:32:24Z</time>
</trkpt>
<trkpt lat="53.2997813" lon="18.4240577">
<ele>124</ele>
<time>2015-06-26T11:32:26Z</time>
</trkpt>
<trkpt lat="53.2997813" lon="18.4240577">
<ele>124</ele>
<time>2015-06-26T11:32:28Z</time>
</trkpt>
<trkpt lat="53.2997813" lon="18.4240577">
<ele>124</ele>
<time>2015-06-26T11:32:30Z</time>
</trkpt>
<trkpt lat="53.2997813" lon="18.4240577">
<ele>124</ele>
<time>2015-06-26T11:32:32Z</time>
</trkpt>
<trkpt lat="53.2997812" lon="18.4240576">
<ele>124</ele>
<time>2015-06-26T11:32:34Z</time>
</trkpt>
<trkpt lat="53.2997813" lon="18.4240577">
<ele>124</ele>
<time>2015-06-26T11:32:36Z</time>
</trkpt>
<trkpt lat="53.2997812" lon="18.4240577">
<ele>124</ele>
<time>2015-06-26T11:32:38Z</time>
</trkpt>
<trkpt lat="53.2997812" lon="18.4240577">
<ele>124</ele>
<time>2015-06-26T11:32:40Z</time>
</trkpt>
<trkpt lat="53.2997812" lon="18.4240578">
<ele>124</ele>
<time>2015-06-26T11:32:42Z</time>
</trkpt>
<trkpt lat="53.2997812" lon="18.4240578">
<ele>124</ele>
<time>2015-06-26T11:32:44Z</time>
</trkpt>
<trkpt lat="53.2997812" lon="18.4240577">
<ele>124</ele>
<time>2015-06-26T11:32:48Z</time>
</trkpt>
<trkpt lat="53.2997812" lon="18.4240577">
<ele>124</ele>
<time>2015-06-26T11:32:50Z</time>
</trkpt>
<trkpt lat="53.2997812" lon="18.4240577">
<ele>124</ele>
<time>2015-06-26T11:32:52Z</time>
</trkpt>
<trkpt lat="53.2997811" lon="18.4240578">
<ele>124</ele>
<time>2015-06-26T11:32:54Z</time>
</trkpt>
<trkpt lat="53.2997811" lon="18.4240578">
<ele>124</ele>
<time>2015-06-26T11:32:56Z</time>
</trkpt>
<trkpt lat="53.2997811" lon="18.4240579">
<ele>124</ele>
<time>2015-06-26T11:32:58Z</time>
</trkpt>
<trkpt lat="53.2997811" lon="18.4240579">
<ele>124</ele>
<time>2015-06-26T11:33:00Z</time>
</trkpt>
<trkpt lat="53.2997811" lon="18.4240579">
<ele>124</ele>
<time>2015-06-26T11:33:02Z</time>
</trkpt>
<trkpt lat="53.2997811" lon="18.4240579">
<ele>124</ele>
<time>2015-06-26T11:33:04Z</time>
</trkpt>
<trkpt lat="53.2997811" lon="18.4240579">
<ele>124</ele>
<time>2015-06-26T11:33:06Z</time>
</trkpt>
<trkpt lat="53.2997810" lon="18.4240579">
<ele>124</ele>
<time>2015-06-26T11:33:08Z</time>
</trkpt>
<trkpt lat="53.2997810" lon="18.4240580">
<ele>124</ele>
<time>2015-06-26T11:33:14Z</time>
</trkpt>
<trkpt lat="53.2997810" lon="18.4240581">
<ele>124</ele>
<time>2015-06-26T11:33:16Z</time>
</trkpt>
<trkpt lat="53.2997811" lon="18.4240580">
<ele>124</ele>
<time>2015-06-26T11:33:18Z</time>
</trkpt>
<trkpt lat="53.2997811" lon="18.4240580">
<ele>124</ele>
<time>2015-06-26T11:33:20Z</time>
</trkpt>
<trkpt lat="53.2997810" lon="18.4240581">
<ele>124</ele>
<time>2015-06-26T11:33:22Z</time>
</trkpt>
<trkpt lat="53.2997811" lon="18.4240580">
<ele>124</ele>
<time>2015-06-26T11:33:24Z</time>
</trkpt>
<trkpt lat="53.2997811" lon="18.4240581">
<ele>124</ele>
<time>2015-06-26T11:33:26Z</time>
</trkpt>
<trkpt lat="53.2997810" lon="18.4240581">
<ele>124</ele>
<time>2015-06-26T11:33:28Z</time>
</trkpt>
<trkpt lat="53.2997810" lon="18.4240581">
<ele>124</ele>
<time>2015-06-26T11:33:30Z</time>
</trkpt>
<trkpt lat="53.2997810" lon="18.4240581">
<ele>124</ele>
<time>2015-06-26T11:33:32Z</time>
</trkpt>
<trkpt lat="53.2997810" lon="18.4240581">
<ele>124</ele>
<time>2015-06-26T11:33:34Z</time>
</trkpt>
<trkpt lat="53.2997810" lon="18.4240581">
<ele>124</ele>
<time>2015-06-26T11:33:36Z</time>
</trkpt>
<trkpt lat="53.2997810" lon="18.4240581">
<ele>124</ele>
<time>2015-06-26T11:33:38Z</time>
</trkpt>
<trkpt lat="53.2997810" lon="18.4240581">
<ele>124</ele>
<time>2015-06-26T11:33:40Z</time>
</trkpt>
<trkpt lat="53.2997809" lon="18.4240581">
<ele>124</ele>
<time>2015-06-26T11:33:42Z</time>
</trkpt>
<trkpt lat="53.2997809" lon="18.4240582">
<ele>124</ele>
<time>2015-06-26T11:33:44Z</time>
</trkpt>
<trkpt lat="53.2997809" lon="18.4240582">
<ele>124</ele>
<time>2015-06-26T11:33:46Z</time>
</trkpt>
<trkpt lat="53.2997808" lon="18.4240582">
<ele>124</ele>
<time>2015-06-26T11:33:48Z</time>
</trkpt>
<trkpt lat="53.2997808" lon="18.4240582">
<ele>124</ele>
<time>2015-06-26T11:33:50Z</time>
</trkpt>
<trkpt lat="53.2997808" lon="18.4240582">
<ele>124</ele>
<time>2015-06-26T11:33:52Z</time>
</trkpt>
<trkpt lat="53.2997808" lon="18.4240582">
<ele>124</ele>
<time>2015-06-26T11:33:54Z</time>
</trkpt>
<trkpt lat="53.2997808" lon="18.4240582">
<ele>124</ele>
<time>2015-06-26T11:33:56Z</time>
</trkpt>
<trkpt lat="53.2997808" lon="18.4240583">
<ele>124</ele>
<time>2015-06-26T11:33:58Z</time>
</trkpt>
<trkpt lat="53.2997807" lon="18.4240583">
<ele>124</ele>
<time>2015-06-26T11:34:00Z</time>
</trkpt>
<trkpt lat="53.2997807" lon="18.4240583">
<ele>124</ele>
<time>2015-06-26T11:34:02Z</time>
</trkpt>
<trkpt lat="53.2997807" lon="18.4240583">
<ele>124</ele>
<time>2015-06-26T11:34:04Z</time>
</trkpt>
<trkpt lat="53.2997807" lon="18.4240583">
<ele>124</ele>
<time>2015-06-26T11:34:06Z</time>
</trkpt>
<trkpt lat="53.2997806" lon="18.4240583">
<ele>124</ele>
<time>2015-06-26T11:34:08Z</time>
</trkpt>
<trkpt lat="53.2997806" lon="18.4240583">
<ele>124</ele>
<time>2015-06-26T11:34:10Z</time>
</trkpt>
<trkpt lat="53.2997806" lon="18.4240583">
<ele>124</ele>
<time>2015-06-26T11:34:12Z</time>
</trkpt>
<trkpt lat="53.2997807" lon="18.4240582">
<ele>124</ele>
<time>2015-06-26T11:34:14Z</time>
</trkpt>
<trkpt lat="53.2997806" lon="18.4240583">
<ele>124</ele>
<time>2015-06-26T11:34:16Z</time>
</trkpt>
<trkpt lat="53.2997806" lon="18.4240583">
<ele>124</ele>
<time>2015-06-26T11:34:18Z</time>
</trkpt>
<trkpt lat="53.2997806" lon="18.4240584">
<ele>124</ele>
<time>2015-06-26T11:34:20Z</time>
</trkpt>
<trkpt lat="53.2997806" lon="18.4240584">
<ele>124</ele>
<time>2015-06-26T11:34:22Z</time>
</trkpt>
<trkpt lat="53.2997806" lon="18.4240584">
<ele>124</ele>
<time>2015-06-26T11:34:24Z</time>
</trkpt>
<trkpt lat="53.2997806" lon="18.4240586">
<ele>124</ele>
<time>2015-06-26T11:34:28Z</time>
</trkpt>
<trkpt lat="53.2997805" lon="18.4240586">
<ele>124</ele>
<time>2015-06-26T11:34:30Z</time>
</trkpt>
<trkpt lat="53.2997805" lon="18.4240586">
<ele>124</ele>
<time>2015-06-26T11:34:32Z</time>
</trkpt>
<trkpt lat="53.2997805" lon="18.4240586">
<ele>124</ele>
<time>2015-06-26T11:34:34Z</time>
</trkpt>
<trkpt lat="53.2997775" lon="18.4240478">
<ele>124</ele>
<time>2015-06-26T11:34:38Z</time>
</trkpt>
<trkpt lat="53.2997765" lon="18.4240514">
<ele>124</ele>
<time>2015-06-26T11:34:40Z</time>
</trkpt>
<trkpt lat="53.2997732" lon="18.4240544">
<ele>124</ele>
<time>2015-06-26T11:34:42Z</time>
</trkpt>
<trkpt lat="53.2997693" lon="18.4240585">
<ele>124</ele>
<time>2015-06-26T11:34:44Z</time>
</trkpt>
<trkpt lat="53.2997669" lon="18.4240651">
<ele>124</ele>
<time>2015-06-26T11:34:46Z</time>
</trkpt>
<trkpt lat="53.2997643" lon="18.4240680">
<ele>124</ele>
<time>2015-06-26T11:34:48Z</time>
</trkpt>
<trkpt lat="53.2997638" lon="18.4240641">
<ele>124</ele>
<time>2015-06-26T11:34:50Z</time>
</trkpt>
<trkpt lat="53.2997647" lon="18.4240585">
<ele>125</ele>
<time>2015-06-26T11:34:52Z</time>
</trkpt>
<trkpt lat="53.2997611" lon="18.4240468">
<ele>123</ele>
<time>2015-06-26T11:34:56Z</time>
</trkpt>
<trkpt lat="53.2997591" lon="18.4240357">
<ele>123</ele>
<time>2015-06-26T11:35:00Z</time>
</trkpt>
<trkpt lat="53.299756" lon="18.4240105">
<ele>124</ele>
<time>2015-06-26T11:35:04Z</time>
</trkpt>
<trkpt lat="53.2997576" lon="18.4240054">
<ele>124</ele>
<time>2015-06-26T11:35:08Z</time>
</trkpt>
<trkpt lat="53.2997584" lon="18.4240191">
<ele>123</ele>
<time>2015-06-26T11:35:10Z</time>
</trkpt>
<trkpt lat="53.2997586" lon="18.4240266">
<ele>123</ele>
<time>2015-06-26T11:35:12Z</time>
</trkpt>
<trkpt lat="53.2997587" lon="18.4240185">
<ele>123</ele>
<time>2015-06-26T11:35:14Z</time>
</trkpt>
<trkpt lat="53.2997601" lon="18.4240098">
<ele>123</ele>
<time>2015-06-26T11:35:16Z</time>
</trkpt>
<trkpt lat="53.2997550" lon="18.4239940">
<ele>124</ele>
<time>2015-06-26T11:35:22Z</time>
</trkpt>
<trkpt lat="53.2997531" lon="18.4240011">
<ele>124</ele>
<time>2015-06-26T11:35:24Z</time>
</trkpt>
<trkpt lat="53.2997393" lon="18.4240000">
<ele>123</ele>
<time>2015-06-26T11:35:28Z</time>
</trkpt>
<trkpt lat="53.2997314" lon="18.4240083">
<ele>122</ele>
<time>2015-06-26T11:35:32Z</time>
</trkpt>
<trkpt lat="53.2997325" lon="18.4240107">
<ele>122</ele>
<time>2015-06-26T11:35:34Z</time>
</trkpt>
<trkpt lat="53.2997615" lon="18.4240008">
<ele>124</ele>
<time>2015-06-26T11:35:18Z</time>
</trkpt>
<trkpt lat="53.2997464" lon="18.4239915">
<ele>122</ele>
<time>2015-06-26T11:35:46Z</time>
</trkpt>
<trkpt lat="53.2997481" lon="18.4239889">
<ele>122</ele>
<time>2015-06-26T11:35:48Z</time>
</trkpt>
<trkpt lat="53.2997495" lon="18.4239863">
<ele>122</ele>
<time>2015-06-26T11:35:50Z</time>
</trkpt>
<trkpt lat="53.2997522" lon="18.4239941">
<ele>123</ele>
<time>2015-06-26T11:35:52Z</time>
</trkpt>
<trkpt lat="53.2997551" lon="18.4239941">
<ele>123</ele>
<time>2015-06-26T11:35:54Z</time>
</trkpt>
<trkpt lat="53.2997550" lon="18.4239898">
<ele>124</ele>
<time>2015-06-26T11:35:56Z</time>
</trkpt>
<trkpt lat="53.2997576" lon="18.4239887">
<ele>124</ele>
<time>2015-06-26T11:35:58Z</time>
</trkpt>
<trkpt lat="53.2997563" lon="18.4239880">
<ele>124</ele>
<time>2015-06-26T11:36:00Z</time>
</trkpt>
<trkpt lat="53.2997547" lon="18.4239939">
<ele>123</ele>
<time>2015-06-26T11:36:02Z</time>
</trkpt>
<trkpt lat="53.2997552" lon="18.4239990">
<ele>123</ele>
<time>2015-06-26T11:36:04Z</time>
</trkpt>
<trkpt lat="53.2997576" lon="18.4239898">
<ele>123</ele>
<time>2015-06-26T11:36:06Z</time>
</trkpt>
<trkpt lat="53.2997583" lon="18.4239798">
<ele>122</ele>
<time>2015-06-26T11:36:08Z</time>
</trkpt>
<trkpt lat="53.2997632" lon="18.4239747">
<ele>121</ele>
<time>2015-06-26T11:36:10Z</time>
</trkpt>
<trkpt lat="53.2997623" lon="18.4239762">
<ele>121</ele>
<time>2015-06-26T11:36:12Z</time>
</trkpt>
<trkpt lat="53.2997606" lon="18.4239785">
<ele>121</ele>
<time>2015-06-26T11:36:14Z</time>
</trkpt>
<trkpt lat="53.2997593" lon="18.4239796">
<ele>121</ele>
<time>2015-06-26T11:36:16Z</time>
</trkpt>
<trkpt lat="53.2997566" lon="18.4239768">
<ele>121</ele>
<time>2015-06-26T11:36:18Z</time>
</trkpt>
<trkpt lat="53.2997489" lon="18.4239789">
<ele>122</ele>
<time>2015-06-26T11:36:20Z</time>
</trkpt>
<trkpt lat="53.2997489" lon="18.4239815">
<ele>122</ele>
<time>2015-06-26T11:36:22Z</time>
</trkpt>
<trkpt lat="53.2997578" lon="18.4239842">
<ele>122</ele>
<time>2015-06-26T11:36:24Z</time>
</trkpt>
<trkpt lat="53.2997597" lon="18.4239830">
<ele>122</ele>
<time>2015-06-26T11:36:26Z</time>
</trkpt>
<trkpt lat="53.2997593" lon="18.4239893">
<ele>121</ele>
<time>2015-06-26T11:36:28Z</time>
</trkpt>
<trkpt lat="53.2997612" lon="18.4240044">
<ele>121</ele>
<time>2015-06-26T11:36:30Z</time>
</trkpt>
<trkpt lat="53.2997604" lon="18.4240220">
<ele>121</ele>
<time>2015-06-26T11:36:32Z</time>
</trkpt>
<trkpt lat="53.2997617" lon="18.4240343">
<ele>121</ele>
<time>2015-06-26T11:36:34Z</time>
</trkpt>
<trkpt lat="53.2997582" lon="18.4240329">
<ele>121</ele>
<time>2015-06-26T11:36:36Z</time>
</trkpt>
<trkpt lat="53.2997579" lon="18.4240323">
<ele>121</ele>
<time>2015-06-26T11:36:38Z</time>
</trkpt>
<trkpt lat="53.2997571" lon="18.4240314">
<ele>121</ele>
<time>2015-06-26T11:36:40Z</time>
</trkpt>
<trkpt lat="53.2997566" lon="18.4240316">
<ele>121</ele>
<time>2015-06-26T11:36:42Z</time>
</trkpt>
<trkpt lat="53.2997571" lon="18.4240326">
<ele>121</ele>
<time>2015-06-26T11:36:44Z</time>
</trkpt>
<trkpt lat="53.2997594" lon="18.4240335">
<ele>121</ele>
<time>2015-06-26T11:36:46Z</time>
</trkpt>
<trkpt lat="53.2997608" lon="18.4240345">
<ele>119</ele>
<time>2015-06-26T11:36:48Z</time>
</trkpt>
<trkpt lat="53.2997619" lon="18.4240334">
<ele>120</ele>
<time>2015-06-26T11:36:50Z</time>
</trkpt>
<trkpt lat="53.2997596" lon="18.4240429">
<ele>119</ele>
<time>2015-06-26T11:36:52Z</time>
</trkpt>
<trkpt lat="53.2997621" lon="18.4240514">
<ele>119</ele>
<time>2015-06-26T11:36:54Z</time>
</trkpt>
<trkpt lat="53.2997648" lon="18.4240573">
<ele>119</ele>
<time>2015-06-26T11:36:56Z</time>
</trkpt>
<trkpt lat="53.2997646" lon="18.4240606">
<ele>119</ele>
<time>2015-06-26T11:36:58Z</time>
</trkpt>
<trkpt lat="53.2997651" lon="18.4240584">
<ele>119</ele>
<time>2015-06-26T11:37:00Z</time>
</trkpt>
<trkpt lat="53.2997644" lon="18.4240573">
<ele>118</ele>
<time>2015-06-26T11:37:02Z</time>
</trkpt>
<trkpt lat="53.2997644" lon="18.4240565">
<ele>119</ele>
<time>2015-06-26T11:37:04Z</time>
</trkpt>
<trkpt lat="53.2997642" lon="18.4240568">
<ele>118</ele>
<time>2015-06-26T11:37:08Z</time>
</trkpt>
<trkpt lat="53.2997642" lon="18.4240569">
<ele>118</ele>
<time>2015-06-26T11:37:10Z</time>
</trkpt>
<trkpt lat="53.2997642" lon="18.4240569">
<ele>118</ele>
<time>2015-06-26T11:37:12Z</time>
</trkpt>
<trkpt lat="53.2997642" lon="18.4240569">
<ele>118</ele>
<time>2015-06-26T11:37:14Z</time>
</trkpt>
<trkpt lat="53.2997622" lon="18.4240555">
<ele>118</ele>
<time>2015-06-26T11:37:16Z</time>
</trkpt>
<trkpt lat="53.2997616" lon="18.4240537">
<ele>118</ele>
<time>2015-06-26T11:37:18Z</time>
</trkpt>
<trkpt lat="53.2997606" lon="18.4240520">
<ele>119</ele>
<time>2015-06-26T11:37:20Z</time>
</trkpt>
<trkpt lat="53.2997604" lon="18.4240472">
<ele>119</ele>
<time>2015-06-26T11:37:22Z</time>
</trkpt>
<trkpt lat="53.2997587" lon="18.4240460">
<ele>119</ele>
<time>2015-06-26T11:37:24Z</time>
</trkpt>
<trkpt lat="53.2997593" lon="18.4240471">
<ele>119</ele>
<time>2015-06-26T11:37:26Z</time>
</trkpt>
<trkpt lat="53.2997567" lon="18.4240453">
<ele>119</ele>
<time>2015-06-26T11:37:28Z</time>
</trkpt>
<trkpt lat="53.2997584" lon="18.4240454">
<ele>119</ele>
<time>2015-06-26T11:37:30Z</time>
</trkpt>
<trkpt lat="53.2997598" lon="18.424043">
<ele>119</ele>
<time>2015-06-26T11:37:32Z</time>
</trkpt>
<trkpt lat="53.2997608" lon="18.4240407">
<ele>119</ele>
<time>2015-06-26T11:37:34Z</time>
</trkpt>
<trkpt lat="53.2997612" lon="18.4240411">
<ele>119</ele>
<time>2015-06-26T11:37:36Z</time>
</trkpt>
<trkpt lat="53.2997607" lon="18.4240442">
<ele>119</ele>
<time>2015-06-26T11:37:38Z</time>
</trkpt>
<trkpt lat="53.2997609" lon="18.4240441">
<ele>119</ele>
<time>2015-06-26T11:37:40Z</time>
</trkpt>
<trkpt lat="53.2997595" lon="18.4240440">
<ele>119</ele>
<time>2015-06-26T11:37:42Z</time>
</trkpt>
<trkpt lat="53.2997597" lon="18.4240475">
<ele>118</ele>
<time>2015-06-26T11:37:44Z</time>
</trkpt>
<trkpt lat="53.2997591" lon="18.4240504">
<ele>118</ele>
<time>2015-06-26T11:37:46Z</time>
</trkpt>
<trkpt lat="53.299758" lon="18.4240512">
<ele>119</ele>
<time>2015-06-26T11:37:48Z</time>
</trkpt>
<trkpt lat="53.2997564" lon="18.4240486">
<ele>119</ele>
<time>2015-06-26T11:37:50Z</time>
</trkpt>
<trkpt lat="53.2997569" lon="18.4240522">
<ele>119</ele>
<time>2015-06-26T11:37:52Z</time>
</trkpt>
<trkpt lat="53.2997587" lon="18.4240544">
<ele>118</ele>
<time>2015-06-26T11:37:54Z</time>
</trkpt>
<trkpt lat="53.2997594" lon="18.4240545">
<ele>119</ele>
<time>2015-06-26T11:37:56Z</time>
</trkpt>
<trkpt lat="53.2997581" lon="18.4240537">
<ele>119</ele>
<time>2015-06-26T11:37:58Z</time>
</trkpt>
<trkpt lat="53.2997592" lon="18.4240526">
<ele>119</ele>
<time>2015-06-26T11:38:00Z</time>
</trkpt>
<trkpt lat="53.2997600" lon="18.4240453">
<ele>119</ele>
<time>2015-06-26T11:38:04Z</time>
</trkpt>
<trkpt lat="53.2997572" lon="18.4240351">
<ele>118</ele>
<time>2015-06-26T11:38:06Z</time>
</trkpt>
<trkpt lat="53.2997518" lon="18.4240235">
<ele>118</ele>
<time>2015-06-26T11:38:08Z</time>
</trkpt>
<trkpt lat="53.299746" lon="18.4240127">
<ele>119</ele>
<time>2015-06-26T11:38:10Z</time>
</trkpt>
<trkpt lat="53.2997378" lon="18.4240112">
<ele>120</ele>
<time>2015-06-26T11:38:12Z</time>
</trkpt>
<trkpt lat="53.2997308" lon="18.4240140">
<ele>120</ele>
<time>2015-06-26T11:38:14Z</time>
</trkpt>
<trkpt lat="53.2997245" lon="18.4240130">
<ele>120</ele>
<time>2015-06-26T11:38:16Z</time>
</trkpt>
<trkpt lat="53.2997279" lon="18.4240092">
<ele>120</ele>
<time>2015-06-26T11:38:18Z</time>
</trkpt>
<trkpt lat="53.2997293" lon="18.4240046">
<ele>120</ele>
<time>2015-06-26T11:38:20Z</time>
</trkpt>
<trkpt lat="53.2997311" lon="18.4240026">
<ele>120</ele>
<time>2015-06-26T11:38:22Z</time>
</trkpt>
<trkpt lat="53.2997329" lon="18.4239995">
<ele>121</ele>
<time>2015-06-26T11:38:24Z</time>
</trkpt>
<trkpt lat="53.2997356" lon="18.4240006">
<ele>121</ele>
<time>2015-06-26T11:38:26Z</time>
</trkpt>
<trkpt lat="53.2997354" lon="18.4240019">
<ele>121</ele>
<time>2015-06-26T11:38:28Z</time>
</trkpt>
<trkpt lat="53.2997350" lon="18.4240022">
<ele>121</ele>
<time>2015-06-26T11:38:30Z</time>
</trkpt>
<trkpt lat="53.2997348" lon="18.4240021">
<ele>121</ele>
<time>2015-06-26T11:38:34Z</time>
</trkpt>
<trkpt lat="53.2997347" lon="18.4240021">
<ele>121</ele>
<time>2015-06-26T11:38:36Z</time>
</trkpt>
<trkpt lat="53.2997333" lon="18.4240032">
<ele>121</ele>
<time>2015-06-26T11:38:38Z</time>
</trkpt>
<trkpt lat="53.2997316" lon="18.4239932">
<ele>121</ele>
<time>2015-06-26T11:38:40Z</time>
</trkpt>
<trkpt lat="53.2997282" lon="18.4239859">
<ele>121</ele>
<time>2015-06-26T11:38:42Z</time>
</trkpt>
<trkpt lat="53.2997244" lon="18.4239833">
<ele>121</ele>
<time>2015-06-26T11:38:44Z</time>
</trkpt>
<trkpt lat="53.2997260" lon="18.4239819">
<ele>121</ele>
<time>2015-06-26T11:38:46Z</time>
</trkpt>
<trkpt lat="53.2997287" lon="18.4239757">
<ele>122</ele>
<time>2015-06-26T11:38:48Z</time>
</trkpt>
<trkpt lat="53.2997325" lon="18.4239855">
<ele>122</ele>
<time>2015-06-26T11:38:50Z</time>
</trkpt>
<trkpt lat="53.2997364" lon="18.4240003">
<ele>122</ele>
<time>2015-06-26T11:38:52Z</time>
</trkpt>
<trkpt lat="53.2997363" lon="18.4240073">
<ele>122</ele>
<time>2015-06-26T11:38:54Z</time>
</trkpt>
<trkpt lat="53.2997366" lon="18.4240011">
<ele>123</ele>
<time>2015-06-26T11:38:58Z</time>
</trkpt>
<trkpt lat="53.2997358" lon="18.4239979">
<ele>124</ele>
<time>2015-06-26T11:39:00Z</time>
</trkpt>
<trkpt lat="53.2997363" lon="18.4239982">
<ele>124</ele>
<time>2015-06-26T11:39:02Z</time>
</trkpt>
<trkpt lat="53.2997376" lon="18.4240001">
<ele>124</ele>
<time>2015-06-26T11:39:04Z</time>
</trkpt>
<trkpt lat="53.2997395" lon="18.4240024">
<ele>124</ele>
<time>2015-06-26T11:39:06Z</time>
</trkpt>
<trkpt lat="53.2997419" lon="18.4239998">
<ele>123</ele>
<time>2015-06-26T11:39:08Z</time>
</trkpt>
<trkpt lat="53.2997466" lon="18.4240070">
<ele>123</ele>
<time>2015-06-26T11:39:10Z</time>
</trkpt>
<trkpt lat="53.2997502" lon="18.4240144">
<ele>124</ele>
<time>2015-06-26T11:39:12Z</time>
</trkpt>
<trkpt lat="53.2997470" lon="18.4240195">
<ele>123</ele>
<time>2015-06-26T11:39:14Z</time>
</trkpt>
<trkpt lat="53.2997465" lon="18.4240217">
<ele>124</ele>
<time>2015-06-26T11:39:16Z</time>
</trkpt>
<trkpt lat="53.2997468" lon="18.4240224">
<ele>124</ele>
<time>2015-06-26T11:39:18Z</time>
</trkpt>
<trkpt lat="53.2997459" lon="18.4240226">
<ele>124</ele>
<time>2015-06-26T11:39:20Z</time>
</trkpt>
<trkpt lat="53.2997450" lon="18.4240230">
<ele>125</ele>
<time>2015-06-26T11:39:22Z</time>
</trkpt>
<trkpt lat="53.2997451" lon="18.4240231">
<ele>125</ele>
<time>2015-06-26T11:39:24Z</time>
</trkpt>
<trkpt lat="53.2997451" lon="18.4240235">
<ele>125</ele>
<time>2015-06-26T11:39:26Z</time>
</trkpt>
<trkpt lat="53.2997463" lon="18.4240156">
<ele>124</ele>
<time>2015-06-26T11:39:30Z</time>
</trkpt>
<trkpt lat="53.2997481" lon="18.4240096">
<ele>124</ele>
<time>2015-06-26T11:39:32Z</time>
</trkpt>
<trkpt lat="53.2997503" lon="18.4240085">
<ele>124</ele>
<time>2015-06-26T11:39:34Z</time>
</trkpt>
<trkpt lat="53.2997518" lon="18.4240068">
<ele>123</ele>
<time>2015-06-26T11:39:38Z</time>
</trkpt>
<trkpt lat="53.2997500" lon="18.4240000">
<ele>124</ele>
<time>2015-06-26T11:39:40Z</time>
</trkpt>
<trkpt lat="53.2997489" lon="18.4239847">
<ele>124</ele>
<time>2015-06-26T11:39:42Z</time>
</trkpt>
<trkpt lat="53.2997453" lon="18.4239854">
<ele>123</ele>
<time>2015-06-26T11:39:44Z</time>
</trkpt>
<trkpt lat="53.2997431" lon="18.4239896">
<ele>123</ele>
<time>2015-06-26T11:39:46Z</time>
</trkpt>
<trkpt lat="53.2997426" lon="18.4239941">
<ele>123</ele>
<time>2015-06-26T11:39:48Z</time>
</trkpt>
<trkpt lat="53.2997359" lon="18.4240010">
<ele>123</ele>
<time>2015-06-26T11:39:50Z</time>
</trkpt>
<trkpt lat="53.2997271" lon="18.4240009">
<ele>123</ele>
<time>2015-06-26T11:39:52Z</time>
</trkpt>
<trkpt lat="53.2997229" lon="18.4239990">
<ele>123</ele>
<time>2015-06-26T11:39:54Z</time>
</trkpt>
<trkpt lat="53.2997211" lon="18.4239981">
<ele>124</ele>
<time>2015-06-26T11:39:58Z</time>
</trkpt>
<trkpt lat="53.2997229" lon="18.4240017">
<ele>123</ele>
<time>2015-06-26T11:40:00Z</time>
</trkpt>
<trkpt lat="53.2997278" lon="18.4240053">
<ele>124</ele>
<time>2015-06-26T11:40:02Z</time>
</trkpt>
<trkpt lat="53.2997337" lon="18.4240058">
<ele>124</ele>
<time>2015-06-26T11:40:04Z</time>
</trkpt>
<trkpt lat="53.2997388" lon="18.4240002">
<ele>125</ele>
<time>2015-06-26T11:40:08Z</time>
</trkpt>
<trkpt lat="53.2997416" lon="18.4240057">
<ele>124</ele>
<time>2015-06-26T11:40:10Z</time>
</trkpt>
<trkpt lat="53.2997434" lon="18.4240016">
<ele>124</ele>
<time>2015-06-26T11:40:12Z</time>
</trkpt>
<trkpt lat="53.2997448" lon="18.4239972">
<ele>124</ele>
<time>2015-06-26T11:40:14Z</time>
</trkpt>
<trkpt lat="53.2997270" lon="18.4239932">
<ele>122</ele>
<time>2015-06-26T11:40:20Z</time>
</trkpt>
<trkpt lat="53.2997248" lon="18.4239917">
<ele>122</ele>
<time>2015-06-26T11:40:22Z</time>
</trkpt>
<trkpt lat="53.2997242" lon="18.4239869">
<ele>122</ele>
<time>2015-06-26T11:40:24Z</time>
</trkpt>
<trkpt lat="53.2997253" lon="18.4239839">
<ele>122</ele>
<time>2015-06-26T11:40:26Z</time>
</trkpt>
<trkpt lat="53.2997242" lon="18.4239827">
<ele>122</ele>
<time>2015-06-26T11:40:28Z</time>
</trkpt>
<trkpt lat="53.2997238" lon="18.4239817">
<ele>123</ele>
<time>2015-06-26T11:40:30Z</time>
</trkpt>
<trkpt lat="53.2997223" lon="18.4239802">
<ele>122</ele>
<time>2015-06-26T11:40:32Z</time>
</trkpt>
<trkpt lat="53.2997223" lon="18.4239789">
<ele>122</ele>
<time>2015-06-26T11:40:34Z</time>
</trkpt>
<trkpt lat="53.2997218" lon="18.4239791">
<ele>122</ele>
<time>2015-06-26T11:40:36Z</time>
</trkpt>
<trkpt lat="53.2997199" lon="18.4239786">
<ele>122</ele>
<time>2015-06-26T11:40:38Z</time>
</trkpt>
<trkpt lat="53.2997194" lon="18.4239809">
<ele>122</ele>
<time>2015-06-26T11:40:42Z</time>
</trkpt>
<trkpt lat="53.2997193" lon="18.4239810">
<ele>122</ele>
<time>2015-06-26T11:40:44Z</time>
</trkpt>
<trkpt lat="53.2997193" lon="18.4239809">
<ele>122</ele>
<time>2015-06-26T11:40:46Z</time>
</trkpt>
<trkpt lat="53.2997193" lon="18.4239807">
<ele>122</ele>
<time>2015-06-26T11:40:48Z</time>
</trkpt>
<trkpt lat="53.2997193" lon="18.4239805">
<ele>122</ele>
<time>2015-06-26T11:40:52Z</time>
</trkpt>
<trkpt lat="53.2997194" lon="18.4239805">
<ele>122</ele>
<time>2015-06-26T11:40:54Z</time>
</trkpt>
<trkpt lat="53.2997205" lon="18.4239815">
<ele>122</ele>
<time>2015-06-26T11:40:58Z</time>
</trkpt>
<trkpt lat="53.2997244" lon="18.4239875">
<ele>122</ele>
<time>2015-06-26T11:41:00Z</time>
</trkpt>
<trkpt lat="53.2997271" lon="18.4239961">
<ele>122</ele>
<time>2015-06-26T11:41:02Z</time>
</trkpt>
<trkpt lat="53.2997321" lon="18.4240098">
<ele>123</ele>
<time>2015-06-26T11:41:06Z</time>
</trkpt>
<trkpt lat="53.2997407" lon="18.4240234">
<ele>122</ele>
<time>2015-06-26T11:41:08Z</time>
</trkpt>
<trkpt lat="53.2997617" lon="18.4240462">
<ele>121</ele>
<time>2015-06-26T11:41:14Z</time>
</trkpt>
<trkpt lat="53.2997591" lon="18.4240428">
<ele>121</ele>
<time>2015-06-26T11:41:16Z</time>
</trkpt>
<trkpt lat="53.2997600" lon="18.4240487">
<ele>121</ele>
<time>2015-06-26T11:41:18Z</time>
</trkpt>
<trkpt lat="53.2997620" lon="18.4240490">
<ele>121</ele>
<time>2015-06-26T11:41:20Z</time>
</trkpt>
<trkpt lat="53.2997620" lon="18.4240464">
<ele>121</ele>
<time>2015-06-26T11:41:22Z</time>
</trkpt>
<trkpt lat="53.2997618" lon="18.4240446">
<ele>121</ele>
<time>2015-06-26T11:41:24Z</time>
</trkpt>
<trkpt lat="53.2997625" lon="18.4240443">
<ele>120</ele>
<time>2015-06-26T11:41:26Z</time>
</trkpt>
<trkpt lat="53.2997646" lon="18.4240477">
<ele>121</ele>
<time>2015-06-26T11:41:28Z</time>
</trkpt>
<trkpt lat="53.2997647" lon="18.4240523">
<ele>121</ele>
<time>2015-06-26T11:41:30Z</time>
</trkpt>
<trkpt lat="53.2997641" lon="18.4240547">
<ele>121</ele>
<time>2015-06-26T11:41:32Z</time>
</trkpt>
<trkpt lat="53.2997564" lon="18.4240554">
<ele>121</ele>
<time>2015-06-26T11:41:34Z</time>
</trkpt>
<trkpt lat="53.2997454" lon="18.4240589">
<ele>119</ele>
<time>2015-06-26T11:41:38Z</time>
</trkpt>
<trkpt lat="53.2997418" lon="18.4240667">
<ele>118</ele>
<time>2015-06-26T11:41:40Z</time>
</trkpt>
<trkpt lat="53.2997391" lon="18.4240759">
<ele>118</ele>
<time>2015-06-26T11:41:42Z</time>
</trkpt>
<trkpt lat="53.2997377" lon="18.4240810">
<ele>119</ele>
<time>2015-06-26T11:41:44Z</time>
</trkpt>
<trkpt lat="53.2997342" lon="18.4240806">
<ele>119</ele>
<time>2015-06-26T11:41:46Z</time>
</trkpt>
<trkpt lat="53.2997317" lon="18.4240797">
<ele>119</ele>
<time>2015-06-26T11:41:48Z</time>
</trkpt>
<trkpt lat="53.2997294" lon="18.4240766">
<ele>119</ele>
<time>2015-06-26T11:41:50Z</time>
</trkpt>
<trkpt lat="53.2997320" lon="18.4240765">
<ele>120</ele>
<time>2015-06-26T11:41:52Z</time>
</trkpt>
<trkpt lat="53.2997376" lon="18.4240757">
<ele>120</ele>
<time>2015-06-26T11:41:54Z</time>
</trkpt>
<trkpt lat="53.2997417" lon="18.4240477">
<ele>119</ele>
<time>2015-06-26T11:41:58Z</time>
</trkpt>
<trkpt lat="53.2997427" lon="18.4240410">
<ele>119</ele>
<time>2015-06-26T11:42:00Z</time>
</trkpt>
<trkpt lat="53.2997453" lon="18.4240387">
<ele>119</ele>
<time>2015-06-26T11:42:02Z</time>
</trkpt>
<trkpt lat="53.2997501" lon="18.4240386">
<ele>119</ele>
<time>2015-06-26T11:42:04Z</time>
</trkpt>
<trkpt lat="53.2997715" lon="18.4240245">
<ele>121</ele>
<time>2015-06-26T11:42:08Z</time>
</trkpt>
<trkpt lat="53.2997623" lon="18.4240424">
<ele>119</ele>
<time>2015-06-26T11:42:14Z</time>
</trkpt>
<trkpt lat="53.2997592" lon="18.4240352">
<ele>119</ele>
<time>2015-06-26T11:42:16Z</time>
</trkpt>
<trkpt lat="53.2997529" lon="18.4240335">
<ele>119</ele>
<time>2015-06-26T11:42:18Z</time>
</trkpt>
<trkpt lat="53.2997525" lon="18.4240312">
<ele>118</ele>
<time>2015-06-26T11:42:20Z</time>
</trkpt>
<trkpt lat="53.2997492" lon="18.4240336">
<ele>118</ele>
<time>2015-06-26T11:42:22Z</time>
</trkpt>
<trkpt lat="53.2997473" lon="18.4240279">
<ele>119</ele>
<time>2015-06-26T11:42:24Z</time>
</trkpt>
<trkpt lat="53.2997442" lon="18.4240273">
<ele>119</ele>
<time>2015-06-26T11:42:26Z</time>
</trkpt>
<trkpt lat="53.2997423" lon="18.4240244">
<ele>119</ele>
<time>2015-06-26T11:42:28Z</time>
</trkpt>
<trkpt lat="53.2997426" lon="18.4240307">
<ele>119</ele>
<time>2015-06-26T11:42:30Z</time>
</trkpt>
<trkpt lat="53.2997450" lon="18.4240309">
<ele>118</ele>
<time>2015-06-26T11:42:32Z</time>
</trkpt>
<trkpt lat="53.2997456" lon="18.4240306">
<ele>118</ele>
<time>2015-06-26T11:42:34Z</time>
</trkpt>
<trkpt lat="53.2997419" lon="18.4240227">
<ele>119</ele>
<time>2015-06-26T11:42:36Z</time>
</trkpt>
<trkpt lat="53.2997415" lon="18.4240130">
<ele>119</ele>
<time>2015-06-26T11:42:38Z</time>
</trkpt>
<trkpt lat="53.2997426" lon="18.4240193">
<ele>118</ele>
<time>2015-06-26T11:42:40Z</time>
</trkpt>
<trkpt lat="53.2997447" lon="18.4240202">
<ele>120</ele>
<time>2015-06-26T11:42:44Z</time>
</trkpt>
<trkpt lat="53.2997445" lon="18.4240117">
<ele>119</ele>
<time>2015-06-26T11:42:48Z</time>
</trkpt>
<trkpt lat="53.299743" lon="18.4240102">
<ele>119</ele>
<time>2015-06-26T11:42:50Z</time>
</trkpt>
<trkpt lat="53.2997438" lon="18.4240072">
<ele>118</ele>
<time>2015-06-26T11:42:52Z</time>
</trkpt>
<trkpt lat="53.2997390" lon="18.4240053">
<ele>118</ele>
<time>2015-06-26T11:42:54Z</time>
</trkpt>
<trkpt lat="53.2997421" lon="18.4239994">
<ele>118</ele>
<time>2015-06-26T11:42:58Z</time>
</trkpt>
<trkpt lat="53.2997472" lon="18.4239940">
<ele>119</ele>
<time>2015-06-26T11:43:00Z</time>
</trkpt>
<trkpt lat="53.2997482" lon="18.4239953">
<ele>118</ele>
<time>2015-06-26T11:43:02Z</time>
</trkpt>
<trkpt lat="53.2997509" lon="18.4239979">
<ele>118</ele>
<time>2015-06-26T11:43:04Z</time>
</trkpt>
<trkpt lat="53.2997537" lon="18.4239960">
<ele>118</ele>
<time>2015-06-26T11:43:06Z</time>
</trkpt>
<trkpt lat="53.2997582" lon="18.4240016">
<ele>118</ele>
<time>2015-06-26T11:43:08Z</time>
</trkpt>
<trkpt lat="53.2997617" lon="18.4240071">
<ele>118</ele>
<time>2015-06-26T11:43:10Z</time>
</trkpt>
<trkpt lat="53.2997645" lon="18.4240108">
<ele>118</ele>
<time>2015-06-26T11:43:12Z</time>
</trkpt>
<trkpt lat="53.2997663" lon="18.4240117">
<ele>118</ele>
<time>2015-06-26T11:43:14Z</time>
</trkpt>
<trkpt lat="53.2997682" lon="18.4240108">
<ele>118</ele>
<time>2015-06-26T11:43:16Z</time>
</trkpt>
<trkpt lat="53.2997725" lon="18.4240064">
<ele>118</ele>
<time>2015-06-26T11:43:18Z</time>
</trkpt>
<trkpt lat="53.2997703" lon="18.4240041">
<ele>119</ele>
<time>2015-06-26T11:43:20Z</time>
</trkpt>
<trkpt lat="53.2997699" lon="18.4240043">
<ele>119</ele>
<time>2015-06-26T11:43:22Z</time>
</trkpt>
<trkpt lat="53.2997714" lon="18.4240023">
<ele>119</ele>
<time>2015-06-26T11:43:24Z</time>
</trkpt>
<trkpt lat="53.2997717" lon="18.4239994">
<ele>120</ele>
<time>2015-06-26T11:43:26Z</time>
</trkpt>
<trkpt lat="53.2997703" lon="18.4239973">
<ele>120</ele>
<time>2015-06-26T11:43:28Z</time>
</trkpt>
<trkpt lat="53.2997712" lon="18.4239971">
<ele>120</ele>
<time>2015-06-26T11:43:30Z</time>
</trkpt>
<trkpt lat="53.299771" lon="18.4239964">
<ele>119</ele>
<time>2015-06-26T11:43:32Z</time>
</trkpt>
<trkpt lat="53.2997671" lon="18.4239981">
<ele>120</ele>
<time>2015-06-26T11:43:34Z</time>
</trkpt>
<trkpt lat="53.2997644" lon="18.4240005">
<ele>120</ele>
<time>2015-06-26T11:43:36Z</time>
</trkpt>
<trkpt lat="53.2997578" lon="18.4240036">
<ele>119</ele>
<time>2015-06-26T11:43:38Z</time>
</trkpt>
<trkpt lat="53.2997574" lon="18.424006">
<ele>119</ele>
<time>2015-06-26T11:43:40Z</time>
</trkpt>
<trkpt lat="53.2997568" lon="18.4240062">
<ele>119</ele>
<time>2015-06-26T11:43:42Z</time>
</trkpt>
<trkpt lat="53.2997563" lon="18.4239984">
<ele>119</ele>
<time>2015-06-26T11:43:44Z</time>
</trkpt>
<trkpt lat="53.2997559" lon="18.4239956">
<ele>120</ele>
<time>2015-06-26T11:43:48Z</time>
</trkpt>
<trkpt lat="53.2997553" lon="18.4239969">
<ele>120</ele>
<time>2015-06-26T11:43:50Z</time>
</trkpt>
<trkpt lat="53.2997509" lon="18.4239987">
<ele>120</ele>
<time>2015-06-26T11:43:52Z</time>
</trkpt>
<trkpt lat="53.2997493" lon="18.4240098">
<ele>120</ele>
<time>2015-06-26T11:43:54Z</time>
</trkpt>
<trkpt lat="53.2997476" lon="18.4240135">
<ele>120</ele>
<time>2015-06-26T11:43:56Z</time>
</trkpt>
<trkpt lat="53.2997480" lon="18.4240149">
<ele>119</ele>
<time>2015-06-26T11:43:58Z</time>
</trkpt>
<trkpt lat="53.2997473" lon="18.424014">
<ele>120</ele>
<time>2015-06-26T11:44:00Z</time>
</trkpt>
<trkpt lat="53.2997485" lon="18.4240117">
<ele>120</ele>
<time>2015-06-26T11:44:02Z</time>
</trkpt>
<trkpt lat="53.2997486" lon="18.4240107">
<ele>120</ele>
<time>2015-06-26T11:44:04Z</time>
</trkpt>
<trkpt lat="53.2997472" lon="18.4240112">
<ele>120</ele>
<time>2015-06-26T11:44:06Z</time>
</trkpt>
<trkpt lat="53.2997505" lon="18.4240061">
<ele>120</ele>
<time>2015-06-26T11:44:08Z</time>
</trkpt>
<trkpt lat="53.2997535" lon="18.4240033">
<ele>120</ele>
<time>2015-06-26T11:44:10Z</time>
</trkpt>
<trkpt lat="53.2997520" lon="18.4239965">
<ele>121</ele>
<time>2015-06-26T11:44:14Z</time>
</trkpt>
<trkpt lat="53.2997527" lon="18.4239956">
<ele>120</ele>
<time>2015-06-26T11:44:16Z</time>
</trkpt>
<trkpt lat="53.2997522" lon="18.4239958">
<ele>120</ele>
<time>2015-06-26T11:44:18Z</time>
</trkpt>
<trkpt lat="53.2997512" lon="18.423998">
<ele>120</ele>
<time>2015-06-26T11:44:20Z</time>
</trkpt>
<trkpt lat="53.2997496" lon="18.4240005">
<ele>120</ele>
<time>2015-06-26T11:44:24Z</time>
</trkpt>
<trkpt lat="53.2997459" lon="18.4239991">
<ele>120</ele>
<time>2015-06-26T11:44:26Z</time>
</trkpt>
<trkpt lat="53.2997430" lon="18.4239940">
<ele>120</ele>
<time>2015-06-26T11:44:28Z</time>
</trkpt>
<trkpt lat="53.2997332" lon="18.4240031">
<ele>120</ele>
<time>2015-06-26T11:44:32Z</time>
</trkpt>
<trkpt lat="53.2997304" lon="18.4240053">
<ele>121</ele>
<time>2015-06-26T11:44:34Z</time>
</trkpt>
<trkpt lat="53.2997378" lon="18.4240267">
<ele>120</ele>
<time>2015-06-26T11:44:38Z</time>
</trkpt>
<trkpt lat="53.2997366" lon="18.4240314">
<ele>120</ele>
<time>2015-06-26T11:44:40Z</time>
</trkpt>
<trkpt lat="53.2997308" lon="18.4240327">
<ele>118</ele>
<time>2015-06-26T11:44:44Z</time>
</trkpt>
<trkpt lat="53.2997290" lon="18.4240346">
<ele>118</ele>
<time>2015-06-26T11:44:46Z</time>
</trkpt>
<trkpt lat="53.2997324" lon="18.4240377">
<ele>119</ele>
<time>2015-06-26T11:44:48Z</time>
</trkpt>
<trkpt lat="53.2997317" lon="18.4240347">
<ele>120</ele>
<time>2015-06-26T11:44:50Z</time>
</trkpt>
<trkpt lat="53.2997315" lon="18.4240391">
<ele>120</ele>
<time>2015-06-26T11:44:52Z</time>
</trkpt>
<trkpt lat="53.2997318" lon="18.4240388">
<ele>120</ele>
<time>2015-06-26T11:44:54Z</time>
</trkpt>
<trkpt lat="53.2997329" lon="18.4240404">
<ele>121</ele>
<time>2015-06-26T11:44:56Z</time>
</trkpt>
<trkpt lat="53.2997334" lon="18.4240409">
<ele>120</ele>
<time>2015-06-26T11:45:00Z</time>
</trkpt>
<trkpt lat="53.2997327" lon="18.4240379">
<ele>120</ele>
<time>2015-06-26T11:45:02Z</time>
</trkpt>
<trkpt lat="53.2997323" lon="18.4240367">
<ele>120</ele>
<time>2015-06-26T11:45:04Z</time>
</trkpt>
<trkpt lat="53.2997355" lon="18.4240341">
<ele>119</ele>
<time>2015-06-26T11:45:08Z</time>
</trkpt>
<trkpt lat="53.2997359" lon="18.4240302">
<ele>119</ele>
<time>2015-06-26T11:45:10Z</time>
</trkpt>
<trkpt lat="53.2997362" lon="18.4240304">
<ele>119</ele>
<time>2015-06-26T11:45:12Z</time>
</trkpt>
<trkpt lat="53.2997370" lon="18.4240292">
<ele>119</ele>
<time>2015-06-26T11:45:14Z</time>
</trkpt>
<trkpt lat="53.2997366" lon="18.4240272">
<ele>119</ele>
<time>2015-06-26T11:45:16Z</time>
</trkpt>
<trkpt lat="53.2997375" lon="18.4240234">
<ele>119</ele>
<time>2015-06-26T11:45:18Z</time>
</trkpt>
<trkpt lat="53.2997368" lon="18.4240193">
<ele>120</ele>
<time>2015-06-26T11:45:20Z</time>
</trkpt>
<trkpt lat="53.2997355" lon="18.4240092">
<ele>120</ele>
<time>2015-06-26T11:45:22Z</time>
</trkpt>
<trkpt lat="53.2997308" lon="18.4240004">
<ele>120</ele>
<time>2015-06-26T11:45:24Z</time>
</trkpt>
<trkpt lat="53.2997247" lon="18.4239935">
<ele>120</ele>
<time>2015-06-26T11:45:26Z</time>
</trkpt>
<trkpt lat="53.2997190" lon="18.4239908">
<ele>120</ele>
<time>2015-06-26T11:45:28Z</time>
</trkpt>
<trkpt lat="53.2997172" lon="18.4239886">
<ele>121</ele>
<time>2015-06-26T11:45:30Z</time>
</trkpt>
<trkpt lat="53.2997130" lon="18.4239975">
<ele>121</ele>
<time>2015-06-26T11:45:32Z</time>
</trkpt>
<trkpt lat="53.2997127" lon="18.4239996">
<ele>121</ele>
<time>2015-06-26T11:45:34Z</time>
</trkpt>
<trkpt lat="53.2997119" lon="18.4240004">
<ele>121</ele>
<time>2015-06-26T11:45:36Z</time>
</trkpt>
<trkpt lat="53.2997109" lon="18.4240017">
<ele>121</ele>
<time>2015-06-26T11:45:38Z</time>
</trkpt>
<trkpt lat="53.2997095" lon="18.4240033">
<ele>121</ele>
<time>2015-06-26T11:45:40Z</time>
</trkpt>
<trkpt lat="53.2997090" lon="18.4240032">
<ele>121</ele>
<time>2015-06-26T11:45:42Z</time>
</trkpt>
<trkpt lat="53.2997125" lon="18.4240026">
<ele>121</ele>
<time>2015-06-26T11:45:44Z</time>
</trkpt>
<trkpt lat="53.2997195" lon="18.4240070">
<ele>120</ele>
<time>2015-06-26T11:45:46Z</time>
</trkpt>
<trkpt lat="53.2997273" lon="18.4240118">
<ele>120</ele>
<time>2015-06-26T11:45:48Z</time>
</trkpt>
<trkpt lat="53.2997320" lon="18.4240199">
<ele>120</ele>
<time>2015-06-26T11:45:50Z</time>
</trkpt>
<trkpt lat="53.2997321" lon="18.4240069">
<ele>120</ele>
<time>2015-06-26T11:45:52Z</time>
</trkpt>
<trkpt lat="53.2997315" lon="18.4240025">
<ele>120</ele>
<time>2015-06-26T11:45:54Z</time>
</trkpt>
<trkpt lat="53.2997375" lon="18.4240140">
<ele>120</ele>
<time>2015-06-26T11:45:56Z</time>
</trkpt>
<trkpt lat="53.2997376" lon="18.4240118">
<ele>120</ele>
<time>2015-06-26T11:45:58Z</time>
</trkpt>
<trkpt lat="53.2997416" lon="18.4240123">
<ele>120</ele>
<time>2015-06-26T11:46:00Z</time>
</trkpt>
<trkpt lat="53.2997443" lon="18.4240124">
<ele>120</ele>
<time>2015-06-26T11:46:02Z</time>
</trkpt>
<trkpt lat="53.2997445" lon="18.4240120">
<ele>121</ele>
<time>2015-06-26T11:46:04Z</time>
</trkpt>
<trkpt lat="53.2997449" lon="18.4240139">
<ele>120</ele>
<time>2015-06-26T11:46:06Z</time>
</trkpt>
<trkpt lat="53.2997446" lon="18.4240178">
<ele>120</ele>
<time>2015-06-26T11:46:08Z</time>
</trkpt>
<trkpt lat="53.2997442" lon="18.4240182">
<ele>121</ele>
<time>2015-06-26T11:46:10Z</time>
</trkpt>
<trkpt lat="53.2997459" lon="18.4240187">
<ele>121</ele>
<time>2015-06-26T11:46:12Z</time>
</trkpt>
<trkpt lat="53.2997462" lon="18.4240178">
<ele>121</ele>
<time>2015-06-26T11:46:14Z</time>
</trkpt>
<trkpt lat="53.2997448" lon="18.4240182">
<ele>121</ele>
<time>2015-06-26T11:46:16Z</time>
</trkpt>
<trkpt lat="53.2997435" lon="18.4240161">
<ele>121</ele>
<time>2015-06-26T11:46:18Z</time>
</trkpt>
<trkpt lat="53.2997444" lon="18.4240221">
<ele>121</ele>
<time>2015-06-26T11:46:20Z</time>
</trkpt>
<trkpt lat="53.2997472" lon="18.4240287">
<ele>120</ele>
<time>2015-06-26T11:46:22Z</time>
</trkpt>
<trkpt lat="53.299749" lon="18.424032">
<ele>119</ele>
<time>2015-06-26T11:46:24Z</time>
</trkpt>
<trkpt lat="53.2997478" lon="18.4240361">
<ele>119</ele>
<time>2015-06-26T11:46:28Z</time>
</trkpt>
<trkpt lat="53.2997450" lon="18.4240365">
<ele>119</ele>
<time>2015-06-26T11:46:30Z</time>
</trkpt>
<trkpt lat="53.2997422" lon="18.4240366">
<ele>119</ele>
<time>2015-06-26T11:46:32Z</time>
</trkpt>
<trkpt lat="53.2997400" lon="18.4240315">
<ele>118</ele>
<time>2015-06-26T11:46:34Z</time>
</trkpt>
<trkpt lat="53.2997380" lon="18.4240325">
<ele>119</ele>
<time>2015-06-26T11:46:38Z</time>
</trkpt>
<trkpt lat="53.2997355" lon="18.4240294">
<ele>119</ele>
<time>2015-06-26T11:46:40Z</time>
</trkpt>
<trkpt lat="53.2997300" lon="18.4240234">
<ele>119</ele>
<time>2015-06-26T11:46:42Z</time>
</trkpt>
<trkpt lat="53.2997322" lon="18.4240328">
<ele>118</ele>
<time>2015-06-26T11:46:46Z</time>
</trkpt>
<trkpt lat="53.2997372" lon="18.4240303">
<ele>118</ele>
<time>2015-06-26T11:46:50Z</time>
</trkpt>
<trkpt lat="53.2997382" lon="18.4240280">
<ele>118</ele>
<time>2015-06-26T11:46:52Z</time>
</trkpt>
<trkpt lat="53.2997399" lon="18.4240260">
<ele>119</ele>
<time>2015-06-26T11:46:54Z</time>
</trkpt>
<trkpt lat="53.2997401" lon="18.4240255">
<ele>119</ele>
<time>2015-06-26T11:46:56Z</time>
</trkpt>
<trkpt lat="53.2997404" lon="18.4240253">
<ele>119</ele>
<time>2015-06-26T11:46:58Z</time>
</trkpt>
<trkpt lat="53.2997397" lon="18.4240179">
<ele>119</ele>
<time>2015-06-26T11:47:02Z</time>
</trkpt>
<trkpt lat="53.2997353" lon="18.4240190">
<ele>120</ele>
<time>2015-06-26T11:47:04Z</time>
</trkpt>
<trkpt lat="53.2997437" lon="18.4240191">
<ele>121</ele>
<time>2015-06-26T11:47:08Z</time>
</trkpt>
<trkpt lat="53.2997585" lon="18.4240501">
<ele>120</ele>
<time>2015-06-26T11:47:10Z</time>
</trkpt>
<trkpt lat="53.2997699" lon="18.4240823">
<ele>120</ele>
<time>2015-06-26T11:47:12Z</time>
</trkpt>
<trkpt lat="53.2997859" lon="18.4240919">
<ele>121</ele>
<time>2015-06-26T11:47:14Z</time>
</trkpt>
<trkpt lat="53.2997877" lon="18.4240930">
<ele>122</ele>
<time>2015-06-26T11:47:16Z</time>
</trkpt>
<trkpt lat="53.299786" lon="18.4240841">
<ele>123</ele>
<time>2015-06-26T11:47:18Z</time>
</trkpt>
<trkpt lat="53.2997863" lon="18.4240806">
<ele>122</ele>
<time>2015-06-26T11:47:20Z</time>
</trkpt>
<trkpt lat="53.2997867" lon="18.4240808">
<ele>123</ele>
<time>2015-06-26T11:47:22Z</time>
</trkpt>
<trkpt lat="53.2997879" lon="18.4240832">
<ele>122</ele>
<time>2015-06-26T11:47:24Z</time>
</trkpt>
<trkpt lat="53.2997867" lon="18.4240907">
<ele>123</ele>
<time>2015-06-26T11:47:26Z</time>
</trkpt>
<trkpt lat="53.2997857" lon="18.4240921">
<ele>123</ele>
<time>2015-06-26T11:47:28Z</time>
</trkpt>
<trkpt lat="53.2997839" lon="18.4240977">
<ele>123</ele>
<time>2015-06-26T11:47:30Z</time>
</trkpt>
<trkpt lat="53.2997836" lon="18.4241025">
<ele>123</ele>
<time>2015-06-26T11:47:32Z</time>
</trkpt>
<trkpt lat="53.2997759" lon="18.4240889">
<ele>122</ele>
<time>2015-06-26T11:47:34Z</time>
</trkpt>
<trkpt lat="53.2997625" lon="18.4240624">
<ele>122</ele>
<time>2015-06-26T11:47:36Z</time>
</trkpt>
<trkpt lat="53.2997535" lon="18.4240415">
<ele>122</ele>
<time>2015-06-26T11:47:38Z</time>
</trkpt>
<trkpt lat="53.2997480" lon="18.4240264">
<ele>122</ele>
<time>2015-06-26T11:47:40Z</time>
</trkpt>
<trkpt lat="53.2997448" lon="18.4240267">
<ele>123</ele>
<time>2015-06-26T11:47:42Z</time>
</trkpt>
<trkpt lat="53.2997441" lon="18.4240234">
<ele>123</ele>
<time>2015-06-26T11:47:44Z</time>
</trkpt>
<trkpt lat="53.2997450" lon="18.4240204">
<ele>121</ele>
<time>2015-06-26T11:47:46Z</time>
</trkpt>
<trkpt lat="53.2997482" lon="18.4240215">
<ele>122</ele>
<time>2015-06-26T11:47:48Z</time>
</trkpt>
<trkpt lat="53.2997483" lon="18.4240236">
<ele>122</ele>
<time>2015-06-26T11:47:50Z</time>
</trkpt>
<trkpt lat="53.2997465" lon="18.4240227">
<ele>122</ele>
<time>2015-06-26T11:47:52Z</time>
</trkpt>
<trkpt lat="53.2997451" lon="18.4240200">
<ele>122</ele>
<time>2015-06-26T11:47:54Z</time>
</trkpt>
<trkpt lat="53.2997476" lon="18.4240182">
<ele>122</ele>
<time>2015-06-26T11:47:56Z</time>
</trkpt>
<trkpt lat="53.2997489" lon="18.4240196">
<ele>122</ele>
<time>2015-06-26T11:47:58Z</time>
</trkpt>
<trkpt lat="53.2997462" lon="18.4240184">
<ele>122</ele>
<time>2015-06-26T11:48:00Z</time>
</trkpt>
<trkpt lat="53.2997472" lon="18.4240207">
<ele>122</ele>
<time>2015-06-26T11:48:02Z</time>
</trkpt>
<trkpt lat="53.2997482" lon="18.4240218">
<ele>122</ele>
<time>2015-06-26T11:48:04Z</time>
</trkpt>
<trkpt lat="53.2997500" lon="18.4240240">
<ele>121</ele>
<time>2015-06-26T11:48:06Z</time>
</trkpt>
<trkpt lat="53.2997480" lon="18.4240306">
<ele>122</ele>
<time>2015-06-26T11:48:08Z</time>
</trkpt>
<trkpt lat="53.2997475" lon="18.4240274">
<ele>122</ele>
<time>2015-06-26T11:48:10Z</time>
</trkpt>
<trkpt lat="53.2997463" lon="18.4240261">
<ele>122</ele>
<time>2015-06-26T11:48:12Z</time>
</trkpt>
<trkpt lat="53.2997451" lon="18.4240235">
<ele>123</ele>
<time>2015-06-26T11:48:14Z</time>
</trkpt>
<trkpt lat="53.2997446" lon="18.4240191">
<ele>122</ele>
<time>2015-06-26T11:48:16Z</time>
</trkpt>
<trkpt lat="53.2997447" lon="18.4240170">
<ele>122</ele>
<time>2015-06-26T11:48:18Z</time>
</trkpt>
<trkpt lat="53.2997418" lon="18.4240176">
<ele>123</ele>
<time>2015-06-26T11:48:20Z</time>
</trkpt>
<trkpt lat="53.2997392" lon="18.4240133">
<ele>122</ele>
<time>2015-06-26T11:48:22Z</time>
</trkpt>
<trkpt lat="53.2997380" lon="18.4240114">
<ele>122</ele>
<time>2015-06-26T11:48:24Z</time>
</trkpt>
<trkpt lat="53.2997401" lon="18.4240201">
<ele>122</ele>
<time>2015-06-26T11:48:26Z</time>
</trkpt>
<trkpt lat="53.2997439" lon="18.4240263">
<ele>123</ele>
<time>2015-06-26T11:48:28Z</time>
</trkpt>
<trkpt lat="53.2997470" lon="18.424028">
<ele>123</ele>
<time>2015-06-26T11:48:30Z</time>
</trkpt>
<trkpt lat="53.2997496" lon="18.4240317">
<ele>123</ele>
<time>2015-06-26T11:48:32Z</time>
</trkpt>
<trkpt lat="53.2997512" lon="18.4240359">
<ele>123</ele>
<time>2015-06-26T11:48:34Z</time>
</trkpt>
<trkpt lat="53.2997515" lon="18.4240377">
<ele>124</ele>
<time>2015-06-26T11:48:36Z</time>
</trkpt>
<trkpt lat="53.2997514" lon="18.4240386">
<ele>124</ele>
<time>2015-06-26T11:48:38Z</time>
</trkpt>
<trkpt lat="53.2997509" lon="18.4240380">
<ele>123</ele>
<time>2015-06-26T11:48:40Z</time>
</trkpt>
<trkpt lat="53.2997538" lon="18.4240372">
<ele>124</ele>
<time>2015-06-26T11:48:42Z</time>
</trkpt>
<trkpt lat="53.2997576" lon="18.4240329">
<ele>124</ele>
<time>2015-06-26T11:48:44Z</time>
</trkpt>
<trkpt lat="53.2997575" lon="18.4240268">
<ele>124</ele>
<time>2015-06-26T11:48:46Z</time>
</trkpt>
<trkpt lat="53.2997540" lon="18.4240246">
<ele>124</ele>
<time>2015-06-26T11:48:48Z</time>
</trkpt>
<trkpt lat="53.2997541" lon="18.4240235">
<ele>123</ele>
<time>2015-06-26T11:48:50Z</time>
</trkpt>
<trkpt lat="53.2997530" lon="18.424022">
<ele>124</ele>
<time>2015-06-26T11:48:52Z</time>
</trkpt>
<trkpt lat="53.2997517" lon="18.4240205">
<ele>124</ele>
<time>2015-06-26T11:48:54Z</time>
</trkpt>
<trkpt lat="53.2997508" lon="18.4240200">
<ele>124</ele>
<time>2015-06-26T11:48:56Z</time>
</trkpt>
<trkpt lat="53.2997505" lon="18.4240200">
<ele>124</ele>
<time>2015-06-26T11:48:58Z</time>
</trkpt>
<trkpt lat="53.2997502" lon="18.4240204">
<ele>124</ele>
<time>2015-06-26T11:49:00Z</time>
</trkpt>
<trkpt lat="53.2997482" lon="18.4240175">
<ele>124</ele>
<time>2015-06-26T11:49:02Z</time>
</trkpt>
<trkpt lat="53.2997535" lon="18.4240238">
<ele>124</ele>
<time>2015-06-26T11:49:04Z</time>
</trkpt>
<trkpt lat="53.2997589" lon="18.4240365">
<ele>125</ele>
<time>2015-06-26T11:49:06Z</time>
</trkpt>
<trkpt lat="53.2997615" lon="18.4240462">
<ele>125</ele>
<time>2015-06-26T11:49:08Z</time>
</trkpt>
<trkpt lat="53.2997629" lon="18.4240523">
<ele>124</ele>
<time>2015-06-26T11:49:10Z</time>
</trkpt>
<trkpt lat="53.2997616" lon="18.4240532">
<ele>125</ele>
<time>2015-06-26T11:49:14Z</time>
</trkpt>
<trkpt lat="53.2997615" lon="18.4240534">
<ele>125</ele>
<time>2015-06-26T11:49:16Z</time>
</trkpt>
<trkpt lat="53.2997596" lon="18.4240533">
<ele>125</ele>
<time>2015-06-26T11:49:18Z</time>
</trkpt>
<trkpt lat="53.2997458" lon="18.4240502">
<ele>124</ele>
<time>2015-06-26T11:49:22Z</time>
</trkpt>
<trkpt lat="53.2997482" lon="18.4240456">
<ele>124</ele>
<time>2015-06-26T11:49:24Z</time>
</trkpt>
<trkpt lat="53.2997474" lon="18.4240450">
<ele>124</ele>
<time>2015-06-26T11:49:26Z</time>
</trkpt>
<trkpt lat="53.2997500" lon="18.4240376">
<ele>123</ele>
<time>2015-06-26T11:49:28Z</time>
</trkpt>
<trkpt lat="53.2997508" lon="18.4240169">
<ele>122</ele>
<time>2015-06-26T11:49:32Z</time>
</trkpt>
<trkpt lat="53.2997500" lon="18.4240111">
<ele>121</ele>
<time>2015-06-26T11:49:34Z</time>
</trkpt>
<trkpt lat="53.2997485" lon="18.4240084">
<ele>120</ele>
<time>2015-06-26T11:49:36Z</time>
</trkpt>
<trkpt lat="53.299749" lon="18.4240102">
<ele>119</ele>
<time>2015-06-26T11:49:38Z</time>
</trkpt>
<trkpt lat="53.299747" lon="18.4240126">
<ele>120</ele>
<time>2015-06-26T11:49:40Z</time>
</trkpt>
<trkpt lat="53.2997440" lon="18.4240113">
<ele>120</ele>
<time>2015-06-26T11:49:42Z</time>
</trkpt>
<trkpt lat="53.2997408" lon="18.4240118">
<ele>119</ele>
<time>2015-06-26T11:49:44Z</time>
</trkpt>
<trkpt lat="53.2997390" lon="18.4240089">
<ele>119</ele>
<time>2015-06-26T11:49:46Z</time>
</trkpt>
<trkpt lat="53.2997403" lon="18.4240061">
<ele>119</ele>
<time>2015-06-26T11:49:48Z</time>
</trkpt>
<trkpt lat="53.2997377" lon="18.4240068">
<ele>119</ele>
<time>2015-06-26T11:49:50Z</time>
</trkpt>
<trkpt lat="53.2997329" lon="18.4240053">
<ele>119</ele>
<time>2015-06-26T11:49:52Z</time>
</trkpt>
<trkpt lat="53.2997307" lon="18.4240061">
<ele>119</ele>
<time>2015-06-26T11:49:54Z</time>
</trkpt>
<trkpt lat="53.2997292" lon="18.4240058">
<ele>120</ele>
<time>2015-06-26T11:49:56Z</time>
</trkpt>
<trkpt lat="53.2997254" lon="18.4240075">
<ele>119</ele>
<time>2015-06-26T11:49:58Z</time>
</trkpt>
<trkpt lat="53.2997247" lon="18.4240044">
<ele>120</ele>
<time>2015-06-26T11:50:00Z</time>
</trkpt>
<trkpt lat="53.2997247" lon="18.4240043">
<ele>121</ele>
<time>2015-06-26T11:50:02Z</time>
</trkpt>
<trkpt lat="53.2997255" lon="18.4240050">
<ele>121</ele>
<time>2015-06-26T11:50:04Z</time>
</trkpt>
<trkpt lat="53.2997265" lon="18.4240116">
<ele>121</ele>
<time>2015-06-26T11:50:06Z</time>
</trkpt>
<trkpt lat="53.2997253" lon="18.4240149">
<ele>121</ele>
<time>2015-06-26T11:50:08Z</time>
</trkpt>
<trkpt lat="53.2997307" lon="18.4240166">
<ele>121</ele>
<time>2015-06-26T11:50:10Z</time>
</trkpt>
<trkpt lat="53.2997330" lon="18.4240085">
<ele>120</ele>
<time>2015-06-26T11:50:12Z</time>
</trkpt>
<trkpt lat="53.2997337" lon="18.4240034">
<ele>121</ele>
<time>2015-06-26T11:50:14Z</time>
</trkpt>
<trkpt lat="53.2997334" lon="18.4240001">
<ele>120</ele>
<time>2015-06-26T11:50:16Z</time>
</trkpt>
<trkpt lat="53.2997329" lon="18.4239966">
<ele>120</ele>
<time>2015-06-26T11:50:18Z</time>
</trkpt>
<trkpt lat="53.2997321" lon="18.4239959">
<ele>120</ele>
<time>2015-06-26T11:50:20Z</time>
</trkpt>
<trkpt lat="53.2997334" lon="18.4239955">
<ele>120</ele>
<time>2015-06-26T11:50:22Z</time>
</trkpt>
<trkpt lat="53.2997339" lon="18.4239877">
<ele>120</ele>
<time>2015-06-26T11:50:24Z</time>
</trkpt>
<trkpt lat="53.2997333" lon="18.4239855">
<ele>119</ele>
<time>2015-06-26T11:50:26Z</time>
</trkpt>
<trkpt lat="53.2997337" lon="18.4239882">
<ele>119</ele>
<time>2015-06-26T11:50:28Z</time>
</trkpt>
<trkpt lat="53.2997362" lon="18.4239973">
<ele>120</ele>
<time>2015-06-26T11:50:30Z</time>
</trkpt>
<trkpt lat="53.2997385" lon="18.4240013">
<ele>120</ele>
<time>2015-06-26T11:50:32Z</time>
</trkpt>
<trkpt lat="53.2997398" lon="18.4240031">
<ele>120</ele>
<time>2015-06-26T11:50:34Z</time>
</trkpt>
<trkpt lat="53.2997413" lon="18.4240040">
<ele>120</ele>
<time>2015-06-26T11:50:36Z</time>
</trkpt>
<trkpt lat="53.2997427" lon="18.4240056">
<ele>120</ele>
<time>2015-06-26T11:50:38Z</time>
</trkpt>
<trkpt lat="53.2997439" lon="18.4240025">
<ele>120</ele>
<time>2015-06-26T11:50:40Z</time>
</trkpt>
<trkpt lat="53.2997437" lon="18.4240010">
<ele>120</ele>
<time>2015-06-26T11:50:42Z</time>
</trkpt>
<trkpt lat="53.2997447" lon="18.4239950">
<ele>120</ele>
<time>2015-06-26T11:50:44Z</time>
</trkpt>
<trkpt lat="53.2997452" lon="18.4239930">
<ele>119</ele>
<time>2015-06-26T11:50:46Z</time>
</trkpt>
<trkpt lat="53.2997467" lon="18.4239894">
<ele>120</ele>
<time>2015-06-26T11:50:48Z</time>
</trkpt>
<trkpt lat="53.299748" lon="18.4239926">
<ele>120</ele>
<time>2015-06-26T11:50:50Z</time>
</trkpt>
<trkpt lat="53.2997476" lon="18.4239833">
<ele>119</ele>
<time>2015-06-26T11:50:52Z</time>
</trkpt>
<trkpt lat="53.2997488" lon="18.4239749">
<ele>118</ele>
<time>2015-06-26T11:50:54Z</time>
</trkpt>
<trkpt lat="53.2997503" lon="18.4239761">
<ele>117</ele>
<time>2015-06-26T11:50:58Z</time>
</trkpt>
<trkpt lat="53.2997494" lon="18.4239765">
<ele>116</ele>
<time>2015-06-26T11:51:00Z</time>
</trkpt>
<trkpt lat="53.2997486" lon="18.4239765">
<ele>117</ele>
<time>2015-06-26T11:51:02Z</time>
</trkpt>
<trkpt lat="53.2997485" lon="18.4239786">
<ele>117</ele>
<time>2015-06-26T11:51:04Z</time>
</trkpt>
<trkpt lat="53.2997483" lon="18.4239792">
<ele>117</ele>
<time>2015-06-26T11:51:06Z</time>
</trkpt>
<trkpt lat="53.2997483" lon="18.4239795">
<ele>117</ele>
<time>2015-06-26T11:51:08Z</time>
</trkpt>
<trkpt lat="53.2997483" lon="18.4239797">
<ele>117</ele>
<time>2015-06-26T11:51:10Z</time>
</trkpt>
<trkpt lat="53.2997483" lon="18.4239797">
<ele>117</ele>
<time>2015-06-26T11:51:12Z</time>
</trkpt>
<trkpt lat="53.2997483" lon="18.4239797">
<ele>117</ele>
<time>2015-06-26T11:51:14Z</time>
</trkpt>
<trkpt lat="53.2997570" lon="18.4239858">
<ele>113</ele>
<time>2015-06-26T11:51:18Z</time>
</trkpt>
<trkpt lat="53.2997637" lon="18.4239889">
<ele>112</ele>
<time>2015-06-26T11:51:20Z</time>
</trkpt>
<trkpt lat="53.2997671" lon="18.4239795">
<ele>114</ele>
<time>2015-06-26T11:51:24Z</time>
</trkpt>
<trkpt lat="53.2997646" lon="18.4239717">
<ele>114</ele>
<time>2015-06-26T11:51:26Z</time>
</trkpt>
<trkpt lat="53.2997626" lon="18.4239719">
<ele>115</ele>
<time>2015-06-26T11:51:28Z</time>
</trkpt>
<trkpt lat="53.2997599" lon="18.4239753">
<ele>114</ele>
<time>2015-06-26T11:51:30Z</time>
</trkpt>
<trkpt lat="53.2997601" lon="18.4239778">
<ele>114</ele>
<time>2015-06-26T11:51:32Z</time>
</trkpt>
<trkpt lat="53.2997612" lon="18.423981">
<ele>114</ele>
<time>2015-06-26T11:51:34Z</time>
</trkpt>
<trkpt lat="53.2997620" lon="18.4239820">
<ele>114</ele>
<time>2015-06-26T11:51:36Z</time>
</trkpt>
<trkpt lat="53.2997623" lon="18.4239823">
<ele>114</ele>
<time>2015-06-26T11:51:38Z</time>
</trkpt>
<trkpt lat="53.2997600" lon="18.4239797">
<ele>113</ele>
<time>2015-06-26T11:51:42Z</time>
</trkpt>
<trkpt lat="53.2997612" lon="18.4239792">
<ele>113</ele>
<time>2015-06-26T11:51:44Z</time>
</trkpt>
<trkpt lat="53.2997659" lon="18.4239799">
<ele>113</ele>
<time>2015-06-26T11:51:46Z</time>
</trkpt>
<trkpt lat="53.2997671" lon="18.4239823">
<ele>113</ele>
<time>2015-06-26T11:51:48Z</time>
</trkpt>
<trkpt lat="53.2997660" lon="18.4239789">
<ele>113</ele>
<time>2015-06-26T11:51:50Z</time>
</trkpt>
<trkpt lat="53.2997613" lon="18.4239718">
<ele>112</ele>
<time>2015-06-26T11:51:52Z</time>
</trkpt>
<trkpt lat="53.2997569" lon="18.4239651">
<ele>112</ele>
<time>2015-06-26T11:51:56Z</time>
</trkpt>
<trkpt lat="53.2997561" lon="18.4239639">
<ele>112</ele>
<time>2015-06-26T11:51:58Z</time>
</trkpt>
<trkpt lat="53.2997558" lon="18.4239635">
<ele>112</ele>
<time>2015-06-26T11:52:00Z</time>
</trkpt>
<trkpt lat="53.2997563" lon="18.4239638">
<ele>113</ele>
<time>2015-06-26T11:52:02Z</time>
</trkpt>
<trkpt lat="53.2997638" lon="18.4239622">
<ele>113</ele>
<time>2015-06-26T11:52:06Z</time>
</trkpt>
<trkpt lat="53.2997682" lon="18.4239618">
<ele>114</ele>
<time>2015-06-26T11:52:08Z</time>
</trkpt>
<trkpt lat="53.2997702" lon="18.4239678">
<ele>114</ele>
<time>2015-06-26T11:52:10Z</time>
</trkpt>
<trkpt lat="53.2997724" lon="18.4239721">
<ele>114</ele>
<time>2015-06-26T11:52:12Z</time>
</trkpt>
<trkpt lat="53.2997744" lon="18.4239745">
<ele>115</ele>
<time>2015-06-26T11:52:14Z</time>
</trkpt>
<trkpt lat="53.2997751" lon="18.4239742">
<ele>115</ele>
<time>2015-06-26T11:52:16Z</time>
</trkpt>
<trkpt lat="53.2997758" lon="18.4239759">
<ele>115</ele>
<time>2015-06-26T11:52:18Z</time>
</trkpt>
<trkpt lat="53.2997751" lon="18.4239794">
<ele>115</ele>
<time>2015-06-26T11:52:20Z</time>
</trkpt>
<trkpt lat="53.2997733" lon="18.4239813">
<ele>115</ele>
<time>2015-06-26T11:52:22Z</time>
</trkpt>
<trkpt lat="53.2997732" lon="18.4239798">
<ele>115</ele>
<time>2015-06-26T11:52:24Z</time>
</trkpt>
<trkpt lat="53.2997723" lon="18.4239789">
<ele>115</ele>
<time>2015-06-26T11:52:26Z</time>
</trkpt>
<trkpt lat="53.2997711" lon="18.4239762">
<ele>115</ele>
<time>2015-06-26T11:52:28Z</time>
</trkpt>
<trkpt lat="53.2997747" lon="18.4239773">
<ele>115</ele>
<time>2015-06-26T11:52:30Z</time>
</trkpt>
<trkpt lat="53.2997741" lon="18.4239793">
<ele>115</ele>
<time>2015-06-26T11:52:32Z</time>
</trkpt>
<trkpt lat="53.2997703" lon="18.4239810">
<ele>116</ele>
<time>2015-06-26T11:52:34Z</time>
</trkpt>
<trkpt lat="53.2997688" lon="18.4239778">
<ele>116</ele>
<time>2015-06-26T11:52:36Z</time>
</trkpt>
<trkpt lat="53.2997658" lon="18.4239721">
<ele>116</ele>
<time>2015-06-26T11:52:38Z</time>
</trkpt>
<trkpt lat="53.2997650" lon="18.4239715">
<ele>116</ele>
<time>2015-06-26T11:52:40Z</time>
</trkpt>
<trkpt lat="53.2997660" lon="18.4239707">
<ele>116</ele>
<time>2015-06-26T11:52:42Z</time>
</trkpt>
<trkpt lat="53.2997649" lon="18.4239734">
<ele>116</ele>
<time>2015-06-26T11:52:44Z</time>
</trkpt>
<trkpt lat="53.2997626" lon="18.4239829">
<ele>116</ele>
<time>2015-06-26T11:52:46Z</time>
</trkpt>
<trkpt lat="53.2997601" lon="18.4239895">
<ele>116</ele>
<time>2015-06-26T11:52:48Z</time>
</trkpt>
<trkpt lat="53.2997589" lon="18.4239926">
<ele>117</ele>
<time>2015-06-26T11:52:50Z</time>
</trkpt>
<trkpt lat="53.2997628" lon="18.4239859">
<ele>116</ele>
<time>2015-06-26T11:52:52Z</time>
</trkpt>
<trkpt lat="53.2997729" lon="18.4239714">
<ele>116</ele>
<time>2015-06-26T11:52:56Z</time>
</trkpt>
<trkpt lat="53.2997708" lon="18.4239667">
<ele>117</ele>
<time>2015-06-26T11:53:00Z</time>
</trkpt>
<trkpt lat="53.2997732" lon="18.4239588">
<ele>117</ele>
<time>2015-06-26T11:53:02Z</time>
</trkpt>
<trkpt lat="53.2997772" lon="18.4239499">
<ele>117</ele>
<time>2015-06-26T11:53:04Z</time>
</trkpt>
<trkpt lat="53.2997733" lon="18.423949">
<ele>117</ele>
<time>2015-06-26T11:53:06Z</time>
</trkpt>
<trkpt lat="53.2997713" lon="18.4239478">
<ele>117</ele>
<time>2015-06-26T11:53:08Z</time>
</trkpt>
<trkpt lat="53.2997724" lon="18.4239463">
<ele>117</ele>
<time>2015-06-26T11:53:10Z</time>
</trkpt>
<trkpt lat="53.2997707" lon="18.4239409">
<ele>118</ele>
<time>2015-06-26T11:53:14Z</time>
</trkpt>
<trkpt lat="53.2997710" lon="18.4239446">
<ele>118</ele>
<time>2015-06-26T11:53:16Z</time>
</trkpt>
<trkpt lat="53.2997722" lon="18.4239463">
<ele>118</ele>
<time>2015-06-26T11:53:18Z</time>
</trkpt>
<trkpt lat="53.2997740" lon="18.4239478">
<ele>118</ele>
<time>2015-06-26T11:53:20Z</time>
</trkpt>
<trkpt lat="53.2997746" lon="18.4239518">
<ele>118</ele>
<time>2015-06-26T11:53:22Z</time>
</trkpt>
<trkpt lat="53.2997759" lon="18.4239555">
<ele>117</ele>
<time>2015-06-26T11:53:24Z</time>
</trkpt>
<trkpt lat="53.2997774" lon="18.4239601">
<ele>117</ele>
<time>2015-06-26T11:53:26Z</time>
</trkpt>
<trkpt lat="53.2997769" lon="18.423972">
<ele>117</ele>
<time>2015-06-26T11:53:30Z</time>
</trkpt>
<trkpt lat="53.2997788" lon="18.4239743">
<ele>117</ele>
<time>2015-06-26T11:53:32Z</time>
</trkpt>
<trkpt lat="53.2997821" lon="18.4239740">
<ele>117</ele>
<time>2015-06-26T11:53:34Z</time>
</trkpt>
<trkpt lat="53.2997827" lon="18.4239744">
<ele>117</ele>
<time>2015-06-26T11:53:36Z</time>
</trkpt>
<trkpt lat="53.2997820" lon="18.4239752">
<ele>117</ele>
<time>2015-06-26T11:53:38Z</time>
</trkpt>
<trkpt lat="53.2997829" lon="18.4239763">
<ele>117</ele>
<time>2015-06-26T11:53:40Z</time>
</trkpt>
<trkpt lat="53.2997830" lon="18.4239755">
<ele>117</ele>
<time>2015-06-26T11:53:42Z</time>
</trkpt>
<trkpt lat="53.2997827" lon="18.4239748">
<ele>117</ele>
<time>2015-06-26T11:53:44Z</time>
</trkpt>
<trkpt lat="53.2997825" lon="18.4239747">
<ele>117</ele>
<time>2015-06-26T11:53:46Z</time>
</trkpt>
<trkpt lat="53.2997825" lon="18.4239747">
<ele>117</ele>
<time>2015-06-26T11:53:48Z</time>
</trkpt>
<trkpt lat="53.2997825" lon="18.4239747">
<ele>117</ele>
<time>2015-06-26T11:53:50Z</time>
</trkpt>
<trkpt lat="53.2997824" lon="18.4239748">
<ele>117</ele>
<time>2015-06-26T11:53:52Z</time>
</trkpt>
<trkpt lat="53.2997804" lon="18.4239756">
<ele>117</ele>
<time>2015-06-26T11:53:54Z</time>
</trkpt>
<trkpt lat="53.2997753" lon="18.4239730">
<ele>117</ele>
<time>2015-06-26T11:53:56Z</time>
</trkpt>
<trkpt lat="53.2997701" lon="18.4239716">
<ele>117</ele>
<time>2015-06-26T11:53:58Z</time>
</trkpt>
<trkpt lat="53.2997658" lon="18.4239754">
<ele>117</ele>
<time>2015-06-26T11:54:00Z</time>
</trkpt>
<trkpt lat="53.2997638" lon="18.4239833">
<ele>118</ele>
<time>2015-06-26T11:54:02Z</time>
</trkpt>
<trkpt lat="53.2997638" lon="18.4239887">
<ele>118</ele>
<time>2015-06-26T11:54:04Z</time>
</trkpt>
<trkpt lat="53.2997642" lon="18.4239976">
<ele>119</ele>
<time>2015-06-26T11:54:06Z</time>
</trkpt>
<trkpt lat="53.2997664" lon="18.4240089">
<ele>119</ele>
<time>2015-06-26T11:54:08Z</time>
</trkpt>
<trkpt lat="53.2997693" lon="18.4240118">
<ele>119</ele>
<time>2015-06-26T11:54:10Z</time>
</trkpt>
<trkpt lat="53.2997698" lon="18.4240145">
<ele>119</ele>
<time>2015-06-26T11:54:12Z</time>
</trkpt>
<trkpt lat="53.2997683" lon="18.4240199">
<ele>119</ele>
<time>2015-06-26T11:54:14Z</time>
</trkpt>
<trkpt lat="53.2997668" lon="18.4240237">
<ele>119</ele>
<time>2015-06-26T11:54:16Z</time>
</trkpt>
<trkpt lat="53.2997649" lon="18.4240266">
<ele>119</ele>
<time>2015-06-26T11:54:18Z</time>
</trkpt>
<trkpt lat="53.2997628" lon="18.4240380">
<ele>118</ele>
<time>2015-06-26T11:54:20Z</time>
</trkpt>
<trkpt lat="53.2997653" lon="18.4240500">
<ele>118</ele>
<time>2015-06-26T11:54:22Z</time>
</trkpt>
<trkpt lat="53.2997663" lon="18.4240511">
<ele>118</ele>
<time>2015-06-26T11:54:24Z</time>
</trkpt>
<trkpt lat="53.2997651" lon="18.4240358">
<ele>117</ele>
<time>2015-06-26T11:54:26Z</time>
</trkpt>
<trkpt lat="53.2997676" lon="18.4240177">
<ele>118</ele>
<time>2015-06-26T11:54:28Z</time>
</trkpt>
<trkpt lat="53.2997702" lon="18.4240025">
<ele>118</ele>
<time>2015-06-26T11:54:30Z</time>
</trkpt>
<trkpt lat="53.2997693" lon="18.4239906">
<ele>118</ele>
<time>2015-06-26T11:54:32Z</time>
</trkpt>
<trkpt lat="53.2997702" lon="18.4239913">
<ele>118</ele>
<time>2015-06-26T11:54:34Z</time>
</trkpt>
<trkpt lat="53.2997715" lon="18.4239908">
<ele>118</ele>
<time>2015-06-26T11:54:36Z</time>
</trkpt>
<trkpt lat="53.2997712" lon="18.4239954">
<ele>117</ele>
<time>2015-06-26T11:54:40Z</time>
</trkpt>
<trkpt lat="53.2997749" lon="18.4239895">
<ele>117</ele>
<time>2015-06-26T11:54:42Z</time>
</trkpt>
<trkpt lat="53.2997772" lon="18.4239837">
<ele>117</ele>
<time>2015-06-26T11:54:44Z</time>
</trkpt>
<trkpt lat="53.2997755" lon="18.4239823">
<ele>117</ele>
<time>2015-06-26T11:54:46Z</time>
</trkpt>
<trkpt lat="53.2997741" lon="18.4239851">
<ele>118</ele>
<time>2015-06-26T11:54:48Z</time>
</trkpt>
<trkpt lat="53.2997745" lon="18.4239910">
<ele>117</ele>
<time>2015-06-26T11:54:50Z</time>
</trkpt>
<trkpt lat="53.2997730" lon="18.4239931">
<ele>118</ele>
<time>2015-06-26T11:54:52Z</time>
</trkpt>
<trkpt lat="53.2997708" lon="18.4239912">
<ele>118</ele>
<time>2015-06-26T11:54:54Z</time>
</trkpt>
<trkpt lat="53.2997687" lon="18.4239911">
<ele>119</ele>
<time>2015-06-26T11:54:56Z</time>
</trkpt>
<trkpt lat="53.2997679" lon="18.4239904">
<ele>118</ele>
<time>2015-06-26T11:54:58Z</time>
</trkpt>
<trkpt lat="53.2997678" lon="18.4239907">
<ele>118</ele>
<time>2015-06-26T11:55:00Z</time>
</trkpt>
<trkpt lat="53.2997651" lon="18.4239910">
<ele>118</ele>
<time>2015-06-26T11:55:02Z</time>
</trkpt>
<trkpt lat="53.2997603" lon="18.4239935">
<ele>118</ele>
<time>2015-06-26T11:55:04Z</time>
</trkpt>
<trkpt lat="53.2997562" lon="18.4239930">
<ele>118</ele>
<time>2015-06-26T11:55:06Z</time>
</trkpt>
<trkpt lat="53.2997566" lon="18.4239909">
<ele>118</ele>
<time>2015-06-26T11:55:08Z</time>
</trkpt>
<trkpt lat="53.2997551" lon="18.4239899">
<ele>119</ele>
<time>2015-06-26T11:55:10Z</time>
</trkpt>
<trkpt lat="53.2997527" lon="18.4239926">
<ele>119</ele>
<time>2015-06-26T11:55:12Z</time>
</trkpt>
<trkpt lat="53.2997532" lon="18.4239907">
<ele>118</ele>
<time>2015-06-26T11:55:14Z</time>
</trkpt>
<trkpt lat="53.2997524" lon="18.4239909">
<ele>119</ele>
<time>2015-06-26T11:55:16Z</time>
</trkpt>
<trkpt lat="53.2997528" lon="18.4239923">
<ele>119</ele>
<time>2015-06-26T11:55:18Z</time>
</trkpt>
<trkpt lat="53.2997502" lon="18.4239885">
<ele>120</ele>
<time>2015-06-26T11:55:20Z</time>
</trkpt>
<trkpt lat="53.2997503" lon="18.4239809">
<ele>120</ele>
<time>2015-06-26T11:55:22Z</time>
</trkpt>
<trkpt lat="53.2997575" lon="18.4239733">
<ele>120</ele>
<time>2015-06-26T11:55:24Z</time>
</trkpt>
<trkpt lat="53.2997632" lon="18.4239682">
<ele>119</ele>
<time>2015-06-26T11:55:26Z</time>
</trkpt>
<trkpt lat="53.2997679" lon="18.4239675">
<ele>120</ele>
<time>2015-06-26T11:55:28Z</time>
</trkpt>
<trkpt lat="53.2997631" lon="18.4239748">
<ele>120</ele>
<time>2015-06-26T11:55:30Z</time>
</trkpt>
<trkpt lat="53.2997600" lon="18.4239759">
<ele>120</ele>
<time>2015-06-26T11:55:32Z</time>
</trkpt>
<trkpt lat="53.2997570" lon="18.4239835">
<ele>120</ele>
<time>2015-06-26T11:55:34Z</time>
</trkpt>
<trkpt lat="53.2997590" lon="18.4239899">
<ele>120</ele>
<time>2015-06-26T11:55:36Z</time>
</trkpt>
<trkpt lat="53.2997639" lon="18.4239833">
<ele>120</ele>
<time>2015-06-26T11:55:38Z</time>
</trkpt>
<trkpt lat="53.2997684" lon="18.4239741">
<ele>120</ele>
<time>2015-06-26T11:55:40Z</time>
</trkpt>
<trkpt lat="53.2997687" lon="18.4239739">
<ele>120</ele>
<time>2015-06-26T11:55:42Z</time>
</trkpt>
<trkpt lat="53.2997693" lon="18.4239777">
<ele>120</ele>
<time>2015-06-26T11:55:44Z</time>
</trkpt>
<trkpt lat="53.2997675" lon="18.4239832">
<ele>119</ele>
<time>2015-06-26T11:55:46Z</time>
</trkpt>
<trkpt lat="53.2997676" lon="18.4239848">
<ele>119</ele>
<time>2015-06-26T11:55:48Z</time>
</trkpt>
<trkpt lat="53.2997688" lon="18.4239859">
<ele>119</ele>
<time>2015-06-26T11:55:50Z</time>
</trkpt>
<trkpt lat="53.2997608" lon="18.4240031">
<ele>119</ele>
<time>2015-06-26T11:55:54Z</time>
</trkpt>
<trkpt lat="53.2997489" lon="18.4240103">
<ele>120</ele>
<time>2015-06-26T11:55:58Z</time>
</trkpt>
<trkpt lat="53.2997466" lon="18.4240106">
<ele>120</ele>
<time>2015-06-26T11:56:00Z</time>
</trkpt>
<trkpt lat="53.2997476" lon="18.4239985">
<ele>121</ele>
<time>2015-06-26T11:56:02Z</time>
</trkpt>
<trkpt lat="53.2997515" lon="18.4239871">
<ele>120</ele>
<time>2015-06-26T11:56:04Z</time>
</trkpt>
<trkpt lat="53.2997543" lon="18.4239866">
<ele>121</ele>
<time>2015-06-26T11:56:06Z</time>
</trkpt>
<trkpt lat="53.2997577" lon="18.4239888">
<ele>121</ele>
<time>2015-06-26T11:56:08Z</time>
</trkpt>
<trkpt lat="53.2997595" lon="18.4239901">
<ele>121</ele>
<time>2015-06-26T11:56:10Z</time>
</trkpt>
<trkpt lat="53.299756" lon="18.4239883">
<ele>120</ele>
<time>2015-06-26T11:56:12Z</time>
</trkpt>
<trkpt lat="53.2997546" lon="18.4239911">
<ele>120</ele>
<time>2015-06-26T11:56:14Z</time>
</trkpt>
<trkpt lat="53.2997592" lon="18.4239954">
<ele>120</ele>
<time>2015-06-26T11:56:16Z</time>
</trkpt>
<trkpt lat="53.2997667" lon="18.4239935">
<ele>120</ele>
<time>2015-06-26T11:56:18Z</time>
</trkpt>
<trkpt lat="53.2997705" lon="18.4239943">
<ele>120</ele>
<time>2015-06-26T11:56:20Z</time>
</trkpt>
<trkpt lat="53.2997709" lon="18.4239922">
<ele>120</ele>
<time>2015-06-26T11:56:22Z</time>
</trkpt>
<trkpt lat="53.2997703" lon="18.4239891">
<ele>120</ele>
<time>2015-06-26T11:56:24Z</time>
</trkpt>
<trkpt lat="53.2997683" lon="18.4239888">
<ele>120</ele>
<time>2015-06-26T11:56:26Z</time>
</trkpt>
<trkpt lat="53.2997689" lon="18.4239908">
<ele>120</ele>
<time>2015-06-26T11:56:28Z</time>
</trkpt>
<trkpt lat="53.2997663" lon="18.4239985">
<ele>120</ele>
<time>2015-06-26T11:56:30Z</time>
</trkpt>
<trkpt lat="53.2997648" lon="18.4240036">
<ele>120</ele>
<time>2015-06-26T11:56:32Z</time>
</trkpt>
<trkpt lat="53.2997691" lon="18.4239916">
<ele>119</ele>
<time>2015-06-26T11:56:34Z</time>
</trkpt>
<trkpt lat="53.2997731" lon="18.4239792">
<ele>119</ele>
<time>2015-06-26T11:56:36Z</time>
</trkpt>
<trkpt lat="53.2997755" lon="18.4239683">
<ele>120</ele>
<time>2015-06-26T11:56:38Z</time>
</trkpt>
<trkpt lat="53.2997748" lon="18.4239661">
<ele>119</ele>
<time>2015-06-26T11:56:40Z</time>
</trkpt>
<trkpt lat="53.299774" lon="18.4239661">
<ele>119</ele>
<time>2015-06-26T11:56:42Z</time>
</trkpt>
<trkpt lat="53.2997775" lon="18.4239639">
<ele>119</ele>
<time>2015-06-26T11:56:44Z</time>
</trkpt>
<trkpt lat="53.2997798" lon="18.4239629">
<ele>119</ele>
<time>2015-06-26T11:56:46Z</time>
</trkpt>
<trkpt lat="53.2997743" lon="18.4239693">
<ele>118</ele>
<time>2015-06-26T11:56:48Z</time>
</trkpt>
<trkpt lat="53.2997678" lon="18.4239747">
<ele>118</ele>
<time>2015-06-26T11:56:50Z</time>
</trkpt>
<trkpt lat="53.2997637" lon="18.4239704">
<ele>118</ele>
<time>2015-06-26T11:56:52Z</time>
</trkpt>
<trkpt lat="53.2997647" lon="18.4239620">
<ele>118</ele>
<time>2015-06-26T11:56:54Z</time>
</trkpt>
<trkpt lat="53.2997680" lon="18.4239615">
<ele>118</ele>
<time>2015-06-26T11:56:56Z</time>
</trkpt>
<trkpt lat="53.2997709" lon="18.4239643">
<ele>118</ele>
<time>2015-06-26T11:56:58Z</time>
</trkpt>
<trkpt lat="53.2997737" lon="18.4239681">
<ele>117</ele>
<time>2015-06-26T11:57:00Z</time>
</trkpt>
<trkpt lat="53.2997739" lon="18.4239743">
<ele>118</ele>
<time>2015-06-26T11:57:02Z</time>
</trkpt>
<trkpt lat="53.2997696" lon="18.4239886">
<ele>118</ele>
<time>2015-06-26T11:57:04Z</time>
</trkpt>
<trkpt lat="53.2997675" lon="18.4240053">
<ele>118</ele>
<time>2015-06-26T11:57:06Z</time>
</trkpt>
<trkpt lat="53.2997675" lon="18.4240240">
<ele>119</ele>
<time>2015-06-26T11:57:08Z</time>
</trkpt>
<trkpt lat="53.2997743" lon="18.4240404">
<ele>118</ele>
<time>2015-06-26T11:57:10Z</time>
</trkpt>
<trkpt lat="53.2997818" lon="18.4240514">
<ele>118</ele>
<time>2015-06-26T11:57:12Z</time>
</trkpt>
<trkpt lat="53.2997759" lon="18.4240465">
<ele>118</ele>
<time>2015-06-26T11:57:14Z</time>
</trkpt>
<trkpt lat="53.2997749" lon="18.4240345">
<ele>118</ele>
<time>2015-06-26T11:57:16Z</time>
</trkpt>
<trkpt lat="53.2997758" lon="18.4240281">
<ele>118</ele>
<time>2015-06-26T11:57:18Z</time>
</trkpt>
<trkpt lat="53.2997831" lon="18.4240389">
<ele>118</ele>
<time>2015-06-26T11:57:20Z</time>
</trkpt>
<trkpt lat="53.2997823" lon="18.4240405">
<ele>120</ele>
<time>2015-06-26T11:57:22Z</time>
</trkpt>
<trkpt lat="53.2997823" lon="18.4240382">
<ele>119</ele>
<time>2015-06-26T11:57:24Z</time>
</trkpt>
<trkpt lat="53.2997822" lon="18.4240315">
<ele>120</ele>
<time>2015-06-26T11:57:26Z</time>
</trkpt>
<trkpt lat="53.2997769" lon="18.4240282">
<ele>120</ele>
<time>2015-06-26T11:57:28Z</time>
</trkpt>
<trkpt lat="53.2997709" lon="18.4240263">
<ele>120</ele>
<time>2015-06-26T11:57:30Z</time>
</trkpt>
<trkpt lat="53.2997685" lon="18.4240224">
<ele>120</ele>
<time>2015-06-26T11:57:32Z</time>
</trkpt>
<trkpt lat="53.2997653" lon="18.4240133">
<ele>120</ele>
<time>2015-06-26T11:57:34Z</time>
</trkpt>
<trkpt lat="53.2997616" lon="18.4240051">
<ele>120</ele>
<time>2015-06-26T11:57:36Z</time>
</trkpt>
<trkpt lat="53.2997596" lon="18.4240056">
<ele>120</ele>
<time>2015-06-26T11:57:40Z</time>
</trkpt>
<trkpt lat="53.2997576" lon="18.4240037">
<ele>120</ele>
<time>2015-06-26T11:57:42Z</time>
</trkpt>
<trkpt lat="53.2997552" lon="18.4240024">
<ele>120</ele>
<time>2015-06-26T11:57:44Z</time>
</trkpt>
<trkpt lat="53.2997580" lon="18.4239869">
<ele>117</ele>
<time>2015-06-26T11:57:46Z</time>
</trkpt>
<trkpt lat="53.2997605" lon="18.4239811">
<ele>118</ele>
<time>2015-06-26T11:57:48Z</time>
</trkpt>
<trkpt lat="53.2997625" lon="18.4239790">
<ele>117</ele>
<time>2015-06-26T11:57:50Z</time>
</trkpt>
<trkpt lat="53.2997605" lon="18.4239826">
<ele>118</ele>
<time>2015-06-26T11:57:52Z</time>
</trkpt>
<trkpt lat="53.2997564" lon="18.4239941">
<ele>119</ele>
<time>2015-06-26T11:57:54Z</time>
</trkpt>
<trkpt lat="53.2997539" lon="18.4239941">
<ele>118</ele>
<time>2015-06-26T11:57:56Z</time>
</trkpt>
<trkpt lat="53.2997564" lon="18.4239986">
<ele>119</ele>
<time>2015-06-26T11:57:58Z</time>
</trkpt>
<trkpt lat="53.2997605" lon="18.4240044">
<ele>119</ele>
<time>2015-06-26T11:58:00Z</time>
</trkpt>
<trkpt lat="53.2997660" lon="18.4240046">
<ele>119</ele>
<time>2015-06-26T11:58:02Z</time>
</trkpt>
<trkpt lat="53.2997707" lon="18.4240003">
<ele>119</ele>
<time>2015-06-26T11:58:04Z</time>
</trkpt>
<trkpt lat="53.2997734" lon="18.4240132">
<ele>119</ele>
<time>2015-06-26T11:58:06Z</time>
</trkpt>
<trkpt lat="53.2997738" lon="18.4240235">
<ele>118</ele>
<time>2015-06-26T11:58:08Z</time>
</trkpt>
<trkpt lat="53.2997727" lon="18.4240313">
<ele>119</ele>
<time>2015-06-26T11:58:10Z</time>
</trkpt>
<trkpt lat="53.299774" lon="18.4240337">
<ele>120</ele>
<time>2015-06-26T11:58:12Z</time>
</trkpt>
<trkpt lat="53.2997741" lon="18.4240358">
<ele>120</ele>
<time>2015-06-26T11:58:14Z</time>
</trkpt>
<trkpt lat="53.2997720" lon="18.4240281">
<ele>119</ele>
<time>2015-06-26T11:58:16Z</time>
</trkpt>
<trkpt lat="53.2997703" lon="18.4240160">
<ele>119</ele>
<time>2015-06-26T11:58:18Z</time>
</trkpt>
<trkpt lat="53.2997686" lon="18.4240060">
<ele>119</ele>
<time>2015-06-26T11:58:20Z</time>
</trkpt>
<trkpt lat="53.2997690" lon="18.4240049">
<ele>119</ele>
<time>2015-06-26T11:58:22Z</time>
</trkpt>
<trkpt lat="53.2997687" lon="18.4240093">
<ele>119</ele>
<time>2015-06-26T11:58:24Z</time>
</trkpt>
<trkpt lat="53.2997678" lon="18.4240074">
<ele>119</ele>
<time>2015-06-26T11:58:26Z</time>
</trkpt>
<trkpt lat="53.2997642" lon="18.4240115">
<ele>119</ele>
<time>2015-06-26T11:58:28Z</time>
</trkpt>
<trkpt lat="53.2997591" lon="18.4240115">
<ele>120</ele>
<time>2015-06-26T11:58:30Z</time>
</trkpt>
<trkpt lat="53.2997548" lon="18.4240093">
<ele>120</ele>
<time>2015-06-26T11:58:32Z</time>
</trkpt>
<trkpt lat="53.2997526" lon="18.4240102">
<ele>121</ele>
<time>2015-06-26T11:58:34Z</time>
</trkpt>
<trkpt lat="53.2997518" lon="18.4240039">
<ele>120</ele>
<time>2015-06-26T11:58:36Z</time>
</trkpt>
<trkpt lat="53.2997520" lon="18.4240143">
<ele>121</ele>
<time>2015-06-26T11:58:38Z</time>
</trkpt>
<trkpt lat="53.2997528" lon="18.4240214">
<ele>122</ele>
<time>2015-06-26T11:58:40Z</time>
</trkpt>
<trkpt lat="53.2997516" lon="18.4240220">
<ele>123</ele>
<time>2015-06-26T11:58:42Z</time>
</trkpt>
<trkpt lat="53.2997529" lon="18.4240197">
<ele>123</ele>
<time>2015-06-26T11:58:44Z</time>
</trkpt>
<trkpt lat="53.2997554" lon="18.4240127">
<ele>122</ele>
<time>2015-06-26T11:58:46Z</time>
</trkpt>
<trkpt lat="53.2997579" lon="18.4240104">
<ele>122</ele>
<time>2015-06-26T11:58:48Z</time>
</trkpt>
<trkpt lat="53.2997567" lon="18.4240112">
<ele>122</ele>
<time>2015-06-26T11:58:50Z</time>
</trkpt>
<trkpt lat="53.2997524" lon="18.4240120">
<ele>121</ele>
<time>2015-06-26T11:58:52Z</time>
</trkpt>
<trkpt lat="53.2997506" lon="18.4240069">
<ele>120</ele>
<time>2015-06-26T11:58:54Z</time>
</trkpt>
<trkpt lat="53.2997555" lon="18.4239947">
<ele>119</ele>
<time>2015-06-26T11:58:56Z</time>
</trkpt>
<trkpt lat="53.2997634" lon="18.4239864">
<ele>118</ele>
<time>2015-06-26T11:58:58Z</time>
</trkpt>
<trkpt lat="53.2997683" lon="18.4239815">
<ele>119</ele>
<time>2015-06-26T11:59:00Z</time>
</trkpt>
<trkpt lat="53.2997698" lon="18.4239787">
<ele>119</ele>
<time>2015-06-26T11:59:02Z</time>
</trkpt>
<trkpt lat="53.2997721" lon="18.4239754">
<ele>119</ele>
<time>2015-06-26T11:59:04Z</time>
</trkpt>
<trkpt lat="53.2997727" lon="18.4239773">
<ele>119</ele>
<time>2015-06-26T11:59:06Z</time>
</trkpt>
<trkpt lat="53.299772" lon="18.4239734">
<ele>119</ele>
<time>2015-06-26T11:59:08Z</time>
</trkpt>
<trkpt lat="53.2997705" lon="18.4239725">
<ele>119</ele>
<time>2015-06-26T11:59:10Z</time>
</trkpt>
<trkpt lat="53.2997705" lon="18.4239704">
<ele>119</ele>
<time>2015-06-26T11:59:12Z</time>
</trkpt>
<trkpt lat="53.2997709" lon="18.4239681">
<ele>119</ele>
<time>2015-06-26T11:59:14Z</time>
</trkpt>
<trkpt lat="53.2997705" lon="18.4239660">
<ele>119</ele>
<time>2015-06-26T11:59:16Z</time>
</trkpt>
<trkpt lat="53.2997706" lon="18.4239657">
<ele>119</ele>
<time>2015-06-26T11:59:18Z</time>
</trkpt>
<trkpt lat="53.2997704" lon="18.4239644">
<ele>119</ele>
<time>2015-06-26T11:59:20Z</time>
</trkpt>
<trkpt lat="53.2997678" lon="18.4239716">
<ele>119</ele>
<time>2015-06-26T11:59:22Z</time>
</trkpt>
<trkpt lat="53.2997700" lon="18.4239794">
<ele>119</ele>
<time>2015-06-26T11:59:24Z</time>
</trkpt>
<trkpt lat="53.2997699" lon="18.4239819">
<ele>119</ele>
<time>2015-06-26T11:59:26Z</time>
</trkpt>
<trkpt lat="53.2997724" lon="18.4239850">
<ele>120</ele>
<time>2015-06-26T11:59:28Z</time>
</trkpt>
<trkpt lat="53.2997764" lon="18.4239882">
<ele>120</ele>
<time>2015-06-26T11:59:30Z</time>
</trkpt>
<trkpt lat="53.2997780" lon="18.4239910">
<ele>119</ele>
<time>2015-06-26T11:59:32Z</time>
</trkpt>
<trkpt lat="53.2997787" lon="18.4239834">
<ele>119</ele>
<time>2015-06-26T11:59:34Z</time>
</trkpt>
<trkpt lat="53.2997784" lon="18.4239780">
<ele>118</ele>
<time>2015-06-26T11:59:36Z</time>
</trkpt>
<trkpt lat="53.2997772" lon="18.4239757">
<ele>118</ele>
<time>2015-06-26T11:59:38Z</time>
</trkpt>
<trkpt lat="53.2997766" lon="18.4239754">
<ele>118</ele>
<time>2015-06-26T11:59:40Z</time>
</trkpt>
<trkpt lat="53.2997750" lon="18.4239737">
<ele>117</ele>
<time>2015-06-26T11:59:42Z</time>
</trkpt>
<trkpt lat="53.2997722" lon="18.4239748">
<ele>118</ele>
<time>2015-06-26T11:59:44Z</time>
</trkpt>
<trkpt lat="53.2997750" lon="18.4239770">
<ele>117</ele>
<time>2015-06-26T11:59:48Z</time>
</trkpt>
<trkpt lat="53.2997739" lon="18.4239821">
<ele>118</ele>
<time>2015-06-26T11:59:50Z</time>
</trkpt>
<trkpt lat="53.2997757" lon="18.4239863">
<ele>118</ele>
<time>2015-06-26T11:59:52Z</time>
</trkpt>
<trkpt lat="53.2997760" lon="18.4239878">
<ele>118</ele>
<time>2015-06-26T11:59:54Z</time>
</trkpt>
<trkpt lat="53.2997786" lon="18.4239879">
<ele>117</ele>
<time>2015-06-26T11:59:56Z</time>
</trkpt>
<trkpt lat="53.2997779" lon="18.4239870">
<ele>117</ele>
<time>2015-06-26T11:59:58Z</time>
</trkpt>
<trkpt lat="53.2997972" lon="18.4239648">
<ele>115</ele>
<time>2015-06-26T12:00:08Z</time>
</trkpt>
<trkpt lat="53.2998001" lon="18.4239659">
<ele>115</ele>
<time>2015-06-26T12:00:10Z</time>
</trkpt>
<trkpt lat="53.2998014" lon="18.4239668">
<ele>116</ele>
<time>2015-06-26T12:00:12Z</time>
</trkpt>
<trkpt lat="53.2998005" lon="18.4239688">
<ele>116</ele>
<time>2015-06-26T12:00:14Z</time>
</trkpt>
<trkpt lat="53.2997984" lon="18.4239700">
<ele>116</ele>
<time>2015-06-26T12:00:16Z</time>
</trkpt>
<trkpt lat="53.2997980" lon="18.4239732">
<ele>116</ele>
<time>2015-06-26T12:00:18Z</time>
</trkpt>
<trkpt lat="53.2997977" lon="18.4239765">
<ele>116</ele>
<time>2015-06-26T12:00:20Z</time>
</trkpt>
<trkpt lat="53.2997988" lon="18.4239827">
<ele>116</ele>
<time>2015-06-26T12:00:22Z</time>
</trkpt>
<trkpt lat="53.2997985" lon="18.4239837">
<ele>116</ele>
<time>2015-06-26T12:00:24Z</time>
</trkpt>
<trkpt lat="53.2997978" lon="18.4239783">
<ele>117</ele>
<time>2015-06-26T12:00:26Z</time>
</trkpt>
<trkpt lat="53.2997973" lon="18.4239760">
<ele>117</ele>
<time>2015-06-26T12:00:28Z</time>
</trkpt>
<trkpt lat="53.2997948" lon="18.4239815">
<ele>117</ele>
<time>2015-06-26T12:00:30Z</time>
</trkpt>
<trkpt lat="53.2997947" lon="18.4239869">
<ele>117</ele>
<time>2015-06-26T12:00:32Z</time>
</trkpt>
<trkpt lat="53.2997939" lon="18.4239890">
<ele>117</ele>
<time>2015-06-26T12:00:34Z</time>
</trkpt>
<trkpt lat="53.2997929" lon="18.4239903">
<ele>117</ele>
<time>2015-06-26T12:00:36Z</time>
</trkpt>
<trkpt lat="53.2997925" lon="18.4239883">
<ele>117</ele>
<time>2015-06-26T12:00:38Z</time>
</trkpt>
<trkpt lat="53.2997894" lon="18.4239826">
<ele>118</ele>
<time>2015-06-26T12:00:40Z</time>
</trkpt>
<trkpt lat="53.2997872" lon="18.4239827">
<ele>118</ele>
<time>2015-06-26T12:00:42Z</time>
</trkpt>
<trkpt lat="53.2997809" lon="18.4239768">
<ele>118</ele>
<time>2015-06-26T12:00:44Z</time>
</trkpt>
<trkpt lat="53.2997764" lon="18.4239601">
<ele>118</ele>
<time>2015-06-26T12:00:46Z</time>
</trkpt>
<trkpt lat="53.2997773" lon="18.4239504">
<ele>118</ele>
<time>2015-06-26T12:00:48Z</time>
</trkpt>
<trkpt lat="53.2997773" lon="18.4239465">
<ele>118</ele>
<time>2015-06-26T12:00:50Z</time>
</trkpt>
<trkpt lat="53.2997782" lon="18.4239456">
<ele>118</ele>
<time>2015-06-26T12:00:52Z</time>
</trkpt>
<trkpt lat="53.2997789" lon="18.4239457">
<ele>118</ele>
<time>2015-06-26T12:00:54Z</time>
</trkpt>
<trkpt lat="53.2997791" lon="18.4239450">
<ele>118</ele>
<time>2015-06-26T12:00:56Z</time>
</trkpt>
<trkpt lat="53.2997796" lon="18.4239433">
<ele>118</ele>
<time>2015-06-26T12:00:58Z</time>
</trkpt>
<trkpt lat="53.2997852" lon="18.4239399">
<ele>118</ele>
<time>2015-06-26T12:01:00Z</time>
</trkpt>
<trkpt lat="53.2997948" lon="18.4239413">
<ele>118</ele>
<time>2015-06-26T12:01:02Z</time>
</trkpt>
<trkpt lat="53.2997993" lon="18.4239413">
<ele>118</ele>
<time>2015-06-26T12:01:04Z</time>
</trkpt>
<trkpt lat="53.2998029" lon="18.4239405">
<ele>117</ele>
<time>2015-06-26T12:01:06Z</time>
</trkpt>
<trkpt lat="53.2998026" lon="18.4239383">
<ele>118</ele>
<time>2015-06-26T12:01:08Z</time>
</trkpt>
<trkpt lat="53.2998003" lon="18.4239405">
<ele>118</ele>
<time>2015-06-26T12:01:10Z</time>
</trkpt>
<trkpt lat="53.2997863" lon="18.4239544">
<ele>118</ele>
<time>2015-06-26T12:01:14Z</time>
</trkpt>
<trkpt lat="53.2997771" lon="18.4239604">
<ele>118</ele>
<time>2015-06-26T12:01:16Z</time>
</trkpt>
<trkpt lat="53.2997684" lon="18.4239712">
<ele>117</ele>
<time>2015-06-26T12:01:18Z</time>
</trkpt>
<trkpt lat="53.2997635" lon="18.4239736">
<ele>118</ele>
<time>2015-06-26T12:01:20Z</time>
</trkpt>
<trkpt lat="53.2997600" lon="18.4239718">
<ele>118</ele>
<time>2015-06-26T12:01:22Z</time>
</trkpt>
<trkpt lat="53.2997600" lon="18.4239745">
<ele>118</ele>
<time>2015-06-26T12:01:24Z</time>
</trkpt>
<trkpt lat="53.2997624" lon="18.4239775">
<ele>117</ele>
<time>2015-06-26T12:01:26Z</time>
</trkpt>
<trkpt lat="53.2997661" lon="18.4239699">
<ele>118</ele>
<time>2015-06-26T12:01:28Z</time>
</trkpt>
<trkpt lat="53.2997668" lon="18.4239635">
<ele>118</ele>
<time>2015-06-26T12:01:30Z</time>
</trkpt>
<trkpt lat="53.2997679" lon="18.4239547">
<ele>118</ele>
<time>2015-06-26T12:01:32Z</time>
</trkpt>
<trkpt lat="53.2997721" lon="18.4239452">
<ele>118</ele>
<time>2015-06-26T12:01:34Z</time>
</trkpt>
<trkpt lat="53.2997882" lon="18.4239443">
<ele>118</ele>
<time>2015-06-26T12:01:40Z</time>
</trkpt>
<trkpt lat="53.2997914" lon="18.4239510">
<ele>118</ele>
<time>2015-06-26T12:01:42Z</time>
</trkpt>
<trkpt lat="53.2997965" lon="18.4239619">
<ele>117</ele>
<time>2015-06-26T12:01:44Z</time>
</trkpt>
<trkpt lat="53.2998085" lon="18.423985">
<ele>118</ele>
<time>2015-06-26T12:01:48Z</time>
</trkpt>
<trkpt lat="53.2998137" lon="18.4239842">
<ele>119</ele>
<time>2015-06-26T12:01:50Z</time>
</trkpt>
<trkpt lat="53.2998090" lon="18.4239811">
<ele>118</ele>
<time>2015-06-26T12:01:52Z</time>
</trkpt>
<trkpt lat="53.2998048" lon="18.4239757">
<ele>119</ele>
<time>2015-06-26T12:01:54Z</time>
</trkpt>
<trkpt lat="53.2997982" lon="18.4239703">
<ele>119</ele>
<time>2015-06-26T12:01:56Z</time>
</trkpt>
<trkpt lat="53.2997929" lon="18.4239604">
<ele>119</ele>
<time>2015-06-26T12:01:58Z</time>
</trkpt>
<trkpt lat="53.2997966" lon="18.4239607">
<ele>119</ele>
<time>2015-06-26T12:02:00Z</time>
</trkpt>
<trkpt lat="53.2997983" lon="18.4239634">
<ele>119</ele>
<time>2015-06-26T12:02:02Z</time>
</trkpt>
<trkpt lat="53.2998033" lon="18.4239618">
<ele>119</ele>
<time>2015-06-26T12:02:04Z</time>
</trkpt>
<trkpt lat="53.2998000" lon="18.4239578">
<ele>118</ele>
<time>2015-06-26T12:02:08Z</time>
</trkpt>
<trkpt lat="53.2997928" lon="18.4239606">
<ele>118</ele>
<time>2015-06-26T12:02:10Z</time>
</trkpt>
<trkpt lat="53.2997856" lon="18.4239695">
<ele>118</ele>
<time>2015-06-26T12:02:12Z</time>
</trkpt>
<trkpt lat="53.2997780" lon="18.4239757">
<ele>119</ele>
<time>2015-06-26T12:02:14Z</time>
</trkpt>
<trkpt lat="53.2997747" lon="18.4239662">
<ele>119</ele>
<time>2015-06-26T12:02:16Z</time>
</trkpt>
<trkpt lat="53.2997798" lon="18.4239624">
<ele>119</ele>
<time>2015-06-26T12:02:18Z</time>
</trkpt>
<trkpt lat="53.2997822" lon="18.4239705">
<ele>118</ele>
<time>2015-06-26T12:02:20Z</time>
</trkpt>
<trkpt lat="53.2997827" lon="18.4239700">
<ele>118</ele>
<time>2015-06-26T12:02:22Z</time>
</trkpt>
<trkpt lat="53.2997890" lon="18.4239641">
<ele>118</ele>
<time>2015-06-26T12:02:24Z</time>
</trkpt>
<trkpt lat="53.2998015" lon="18.4239641">
<ele>118</ele>
<time>2015-06-26T12:02:28Z</time>
</trkpt>
<trkpt lat="53.2998004" lon="18.4239621">
<ele>118</ele>
<time>2015-06-26T12:02:30Z</time>
</trkpt>
<trkpt lat="53.2997965" lon="18.4239655">
<ele>118</ele>
<time>2015-06-26T12:02:32Z</time>
</trkpt>
<trkpt lat="53.2997931" lon="18.4239722">
<ele>117</ele>
<time>2015-06-26T12:02:34Z</time>
</trkpt>
<trkpt lat="53.2997898" lon="18.4239824">
<ele>117</ele>
<time>2015-06-26T12:02:36Z</time>
</trkpt>
<trkpt lat="53.2997813" lon="18.4239894">
<ele>117</ele>
<time>2015-06-26T12:02:38Z</time>
</trkpt>
<trkpt lat="53.2997797" lon="18.4239836">
<ele>117</ele>
<time>2015-06-26T12:02:40Z</time>
</trkpt>
<trkpt lat="53.2997865" lon="18.4239784">
<ele>117</ele>
<time>2015-06-26T12:02:42Z</time>
</trkpt>
<trkpt lat="53.2997940" lon="18.4239762">
<ele>117</ele>
<time>2015-06-26T12:02:44Z</time>
</trkpt>
<trkpt lat="53.2997948" lon="18.4239826">
<ele>118</ele>
<time>2015-06-26T12:02:46Z</time>
</trkpt>
<trkpt lat="53.2997938" lon="18.4239883">
<ele>118</ele>
<time>2015-06-26T12:02:48Z</time>
</trkpt>
<trkpt lat="53.2997935" lon="18.4239844">
<ele>120</ele>
<time>2015-06-26T12:02:52Z</time>
</trkpt>
<trkpt lat="53.2997920" lon="18.4239826">
<ele>121</ele>
<time>2015-06-26T12:02:54Z</time>
</trkpt>
<trkpt lat="53.299787" lon="18.4239888">
<ele>121</ele>
<time>2015-06-26T12:02:58Z</time>
</trkpt>
<trkpt lat="53.2997788" lon="18.4239842">
<ele>120</ele>
<time>2015-06-26T12:03:02Z</time>
</trkpt>
<trkpt lat="53.2997828" lon="18.4239705">
<ele>120</ele>
<time>2015-06-26T12:03:04Z</time>
</trkpt>
<trkpt lat="53.2997898" lon="18.4239611">
<ele>120</ele>
<time>2015-06-26T12:03:06Z</time>
</trkpt>
<trkpt lat="53.2997896" lon="18.4239583">
<ele>120</ele>
<time>2015-06-26T12:03:08Z</time>
</trkpt>
<trkpt lat="53.2997878" lon="18.4239570">
<ele>121</ele>
<time>2015-06-26T12:03:10Z</time>
</trkpt>
<trkpt lat="53.2997876" lon="18.4239571">
<ele>121</ele>
<time>2015-06-26T12:03:12Z</time>
</trkpt>
<trkpt lat="53.2997899" lon="18.4239505">
<ele>121</ele>
<time>2015-06-26T12:03:14Z</time>
</trkpt>
<trkpt lat="53.2998090" lon="18.4239520">
<ele>121</ele>
<time>2015-06-26T12:03:18Z</time>
</trkpt>
<trkpt lat="53.2998115" lon="18.4239626">
<ele>120</ele>
<time>2015-06-26T12:03:20Z</time>
</trkpt>
<trkpt lat="53.2998051" lon="18.4239668">
<ele>120</ele>
<time>2015-06-26T12:03:22Z</time>
</trkpt>
<trkpt lat="53.2997979" lon="18.4239681">
<ele>120</ele>
<time>2015-06-26T12:03:24Z</time>
</trkpt>
<trkpt lat="53.2997912" lon="18.4239748">
<ele>119</ele>
<time>2015-06-26T12:03:26Z</time>
</trkpt>
<trkpt lat="53.2997875" lon="18.4239864">
<ele>119</ele>
<time>2015-06-26T12:03:28Z</time>
</trkpt>
<trkpt lat="53.2997816" lon="18.4239955">
<ele>118</ele>
<time>2015-06-26T12:03:30Z</time>
</trkpt>
<trkpt lat="53.2997789" lon="18.4239999">
<ele>119</ele>
<time>2015-06-26T12:03:32Z</time>
</trkpt>
<trkpt lat="53.2997802" lon="18.4239843">
<ele>120</ele>
<time>2015-06-26T12:03:36Z</time>
</trkpt>
<trkpt lat="53.2997823" lon="18.4239784">
<ele>121</ele>
<time>2015-06-26T12:03:38Z</time>
</trkpt>
<trkpt lat="53.2997839" lon="18.4239748">
<ele>121</ele>
<time>2015-06-26T12:03:40Z</time>
</trkpt>
<trkpt lat="53.2997883" lon="18.4239818">
<ele>120</ele>
<time>2015-06-26T12:03:42Z</time>
</trkpt>
<trkpt lat="53.2997885" lon="18.4239812">
<ele>121</ele>
<time>2015-06-26T12:03:44Z</time>
</trkpt>
<trkpt lat="53.2997915" lon="18.4239746">
<ele>121</ele>
<time>2015-06-26T12:03:46Z</time>
</trkpt>
<trkpt lat="53.2998011" lon="18.4239702">
<ele>119</ele>
<time>2015-06-26T12:03:48Z</time>
</trkpt>
<trkpt lat="53.2998082" lon="18.4239687">
<ele>119</ele>
<time>2015-06-26T12:03:50Z</time>
</trkpt>
<trkpt lat="53.2998061" lon="18.4239640">
<ele>119</ele>
<time>2015-06-26T12:03:52Z</time>
</trkpt>
<trkpt lat="53.2998020" lon="18.4239629">
<ele>119</ele>
<time>2015-06-26T12:03:54Z</time>
</trkpt>
<trkpt lat="53.2998009" lon="18.4239664">
<ele>119</ele>
<time>2015-06-26T12:03:56Z</time>
</trkpt>
<trkpt lat="53.2997992" lon="18.4239704">
<ele>120</ele>
<time>2015-06-26T12:03:58Z</time>
</trkpt>
<trkpt lat="53.2997896" lon="18.4239894">
<ele>118</ele>
<time>2015-06-26T12:04:02Z</time>
</trkpt>
<trkpt lat="53.2997854" lon="18.4239825">
<ele>118</ele>
<time>2015-06-26T12:04:04Z</time>
</trkpt>
<trkpt lat="53.2997852" lon="18.4239762">
<ele>118</ele>
<time>2015-06-26T12:04:06Z</time>
</trkpt>
<trkpt lat="53.2997914" lon="18.4239749">
<ele>118</ele>
<time>2015-06-26T12:04:08Z</time>
</trkpt>
<trkpt lat="53.2997943" lon="18.4239749">
<ele>118</ele>
<time>2015-06-26T12:04:10Z</time>
</trkpt>
<trkpt lat="53.2997944" lon="18.4239763">
<ele>117</ele>
<time>2015-06-26T12:04:12Z</time>
</trkpt>
<trkpt lat="53.299793" lon="18.4239754">
<ele>118</ele>
<time>2015-06-26T12:04:14Z</time>
</trkpt>
<trkpt lat="53.2997934" lon="18.4239801">
<ele>118</ele>
<time>2015-06-26T12:04:16Z</time>
</trkpt>
<trkpt lat="53.2997931" lon="18.4239841">
<ele>118</ele>
<time>2015-06-26T12:04:18Z</time>
</trkpt>
<trkpt lat="53.2997971" lon="18.4239766">
<ele>118</ele>
<time>2015-06-26T12:04:20Z</time>
</trkpt>
<trkpt lat="53.2998017" lon="18.4239682">
<ele>118</ele>
<time>2015-06-26T12:04:22Z</time>
</trkpt>
<trkpt lat="53.2998013" lon="18.4239663">
<ele>119</ele>
<time>2015-06-26T12:04:24Z</time>
</trkpt>
<trkpt lat="53.2998060" lon="18.4239691">
<ele>119</ele>
<time>2015-06-26T12:04:26Z</time>
</trkpt>
<trkpt lat="53.2997988" lon="18.4239748">
<ele>119</ele>
<time>2015-06-26T12:04:28Z</time>
</trkpt>
<trkpt lat="53.2997917" lon="18.4239806">
<ele>119</ele>
<time>2015-06-26T12:04:30Z</time>
</trkpt>
<trkpt lat="53.2997845" lon="18.4239869">
<ele>119</ele>
<time>2015-06-26T12:04:32Z</time>
</trkpt>
<trkpt lat="53.2997786" lon="18.4239849">
<ele>119</ele>
<time>2015-06-26T12:04:34Z</time>
</trkpt>
<trkpt lat="53.2997832" lon="18.4239662">
<ele>120</ele>
<time>2015-06-26T12:04:40Z</time>
</trkpt>
<trkpt lat="53.2997898" lon="18.4239660">
<ele>121</ele>
<time>2015-06-26T12:04:42Z</time>
</trkpt>
<trkpt lat="53.2997960" lon="18.4239694">
<ele>121</ele>
<time>2015-06-26T12:04:44Z</time>
</trkpt>
<trkpt lat="53.2998020" lon="18.4239730">
<ele>121</ele>
<time>2015-06-26T12:04:46Z</time>
</trkpt>
<trkpt lat="53.2998090" lon="18.4239772">
<ele>121</ele>
<time>2015-06-26T12:04:48Z</time>
</trkpt>
<trkpt lat="53.2998082" lon="18.4239882">
<ele>122</ele>
<time>2015-06-26T12:04:50Z</time>
</trkpt>
<trkpt lat="53.2998082" lon="18.4239932">
<ele>122</ele>
<time>2015-06-26T12:04:52Z</time>
</trkpt>
<trkpt lat="53.2998095" lon="18.4239869">
<ele>122</ele>
<time>2015-06-26T12:04:54Z</time>
</trkpt>
<trkpt lat="53.2998078" lon="18.4239871">
<ele>121</ele>
<time>2015-06-26T12:04:56Z</time>
</trkpt>
<trkpt lat="53.2998035" lon="18.4239870">
<ele>120</ele>
<time>2015-06-26T12:04:58Z</time>
</trkpt>
<trkpt lat="53.2997997" lon="18.4239821">
<ele>120</ele>
<time>2015-06-26T12:05:00Z</time>
</trkpt>
<trkpt lat="53.2997994" lon="18.4239784">
<ele>119</ele>
<time>2015-06-26T12:05:02Z</time>
</trkpt>
<trkpt lat="53.2997965" lon="18.4239816">
<ele>119</ele>
<time>2015-06-26T12:05:04Z</time>
</trkpt>
<trkpt lat="53.2997861" lon="18.4239857">
<ele>119</ele>
<time>2015-06-26T12:05:08Z</time>
</trkpt>
<trkpt lat="53.2997951" lon="18.4239820">
<ele>119</ele>
<time>2015-06-26T12:05:10Z</time>
</trkpt>
<trkpt lat="53.2997954" lon="18.4239904">
<ele>119</ele>
<time>2015-06-26T12:05:12Z</time>
</trkpt>
<trkpt lat="53.2997958" lon="18.4240006">
<ele>119</ele>
<time>2015-06-26T12:05:14Z</time>
</trkpt>
<trkpt lat="53.2997965" lon="18.4240137">
<ele>120</ele>
<time>2015-06-26T12:05:16Z</time>
</trkpt>
<trkpt lat="53.2997981" lon="18.4240288">
<ele>120</ele>
<time>2015-06-26T12:05:18Z</time>
</trkpt>
<trkpt lat="53.2997990" lon="18.4240468">
<ele>121</ele>
<time>2015-06-26T12:05:20Z</time>
</trkpt>
<trkpt lat="53.2997993" lon="18.4240584">
<ele>121</ele>
<time>2015-06-26T12:05:22Z</time>
</trkpt>
<trkpt lat="53.2998049" lon="18.4240578">
<ele>121</ele>
<time>2015-06-26T12:05:24Z</time>
</trkpt>
<trkpt lat="53.2998032" lon="18.4240332">
<ele>121</ele>
<time>2015-06-26T12:05:28Z</time>
</trkpt>
<trkpt lat="53.2997986" lon="18.4240191">
<ele>121</ele>
<time>2015-06-26T12:05:30Z</time>
</trkpt>
<trkpt lat="53.2997949" lon="18.4240183">
<ele>121</ele>
<time>2015-06-26T12:05:32Z</time>
</trkpt>
<trkpt lat="53.2997945" lon="18.4240195">
<ele>121</ele>
<time>2015-06-26T12:05:34Z</time>
</trkpt>
<trkpt lat="53.2997973" lon="18.4240261">
<ele>122</ele>
<time>2015-06-26T12:05:36Z</time>
</trkpt>
<trkpt lat="53.2998011" lon="18.4240285">
<ele>121</ele>
<time>2015-06-26T12:05:38Z</time>
</trkpt>
<trkpt lat="53.2997993" lon="18.4240323">
<ele>122</ele>
<time>2015-06-26T12:05:40Z</time>
</trkpt>
<trkpt lat="53.2997942" lon="18.4240286">
<ele>121</ele>
<time>2015-06-26T12:05:42Z</time>
</trkpt>
<trkpt lat="53.2997887" lon="18.4240140">
<ele>120</ele>
<time>2015-06-26T12:05:44Z</time>
</trkpt>
<trkpt lat="53.2997775" lon="18.4240020">
<ele>119</ele>
<time>2015-06-26T12:05:46Z</time>
</trkpt>
<trkpt lat="53.2997673" lon="18.4239984">
<ele>119</ele>
<time>2015-06-26T12:05:48Z</time>
</trkpt>
<trkpt lat="53.2997704" lon="18.4239954">
<ele>119</ele>
<time>2015-06-26T12:05:50Z</time>
</trkpt>
<trkpt lat="53.2997717" lon="18.4239971">
<ele>119</ele>
<time>2015-06-26T12:05:52Z</time>
</trkpt>
<trkpt lat="53.2997721" lon="18.4240008">
<ele>119</ele>
<time>2015-06-26T12:05:54Z</time>
</trkpt>
<trkpt lat="53.2997718" lon="18.4240023">
<ele>119</ele>
<time>2015-06-26T12:05:56Z</time>
</trkpt>
<trkpt lat="53.2997710" lon="18.4240066">
<ele>120</ele>
<time>2015-06-26T12:05:58Z</time>
</trkpt>
<trkpt lat="53.2997673" lon="18.4240065">
<ele>120</ele>
<time>2015-06-26T12:06:00Z</time>
</trkpt>
<trkpt lat="53.2997635" lon="18.4240022">
<ele>120</ele>
<time>2015-06-26T12:06:02Z</time>
</trkpt>
<trkpt lat="53.2997624" lon="18.4240010">
<ele>120</ele>
<time>2015-06-26T12:06:04Z</time>
</trkpt>
<trkpt lat="53.2997638" lon="18.4240006">
<ele>121</ele>
<time>2015-06-26T12:06:06Z</time>
</trkpt>
<trkpt lat="53.2997656" lon="18.4240020">
<ele>121</ele>
<time>2015-06-26T12:06:08Z</time>
</trkpt>
<trkpt lat="53.2997703" lon="18.4240019">
<ele>121</ele>
<time>2015-06-26T12:06:12Z</time>
</trkpt>
<trkpt lat="53.2997710" lon="18.4240006">
<ele>121</ele>
<time>2015-06-26T12:06:14Z</time>
</trkpt>
<trkpt lat="53.2997714" lon="18.4240000">
<ele>121</ele>
<time>2015-06-26T12:06:18Z</time>
</trkpt>
<trkpt lat="53.2997714" lon="18.424">
<ele>121</ele>
<time>2015-06-26T12:06:20Z</time>
</trkpt>
<trkpt lat="53.2997714" lon="18.4239999">
<ele>121</ele>
<time>2015-06-26T12:06:22Z</time>
</trkpt>
<trkpt lat="53.2997714" lon="18.4239998">
<ele>121</ele>
<time>2015-06-26T12:06:24Z</time>
</trkpt>
<trkpt lat="53.2997710" lon="18.4239990">
<ele>121</ele>
<time>2015-06-26T12:06:26Z</time>
</trkpt>
<trkpt lat="53.2997761" lon="18.4240039">
<ele>120</ele>
<time>2015-06-26T12:06:28Z</time>
</trkpt>
<trkpt lat="53.2997792" lon="18.424004">
<ele>120</ele>
<time>2015-06-26T12:06:30Z</time>
</trkpt>
<trkpt lat="53.2997815" lon="18.4240048">
<ele>120</ele>
<time>2015-06-26T12:06:32Z</time>
</trkpt>
<trkpt lat="53.2997824" lon="18.4240050">
<ele>120</ele>
<time>2015-06-26T12:06:34Z</time>
</trkpt>
<trkpt lat="53.2997827" lon="18.4240008">
<ele>120</ele>
<time>2015-06-26T12:06:36Z</time>
</trkpt>
<trkpt lat="53.2997824" lon="18.4239978">
<ele>120</ele>
<time>2015-06-26T12:06:38Z</time>
</trkpt>
<trkpt lat="53.2997819" lon="18.4239956">
<ele>120</ele>
<time>2015-06-26T12:06:40Z</time>
</trkpt>
<trkpt lat="53.2997818" lon="18.4239950">
<ele>120</ele>
<time>2015-06-26T12:06:42Z</time>
</trkpt>
<trkpt lat="53.2997818" lon="18.4239947">
<ele>120</ele>
<time>2015-06-26T12:06:46Z</time>
</trkpt>
<trkpt lat="53.2997818" lon="18.4239947">
<ele>120</ele>
<time>2015-06-26T12:06:48Z</time>
</trkpt>
<trkpt lat="53.2997818" lon="18.4239947">
<ele>120</ele>
<time>2015-06-26T12:06:50Z</time>
</trkpt>
<trkpt lat="53.2997818" lon="18.4239947">
<ele>120</ele>
<time>2015-06-26T12:06:52Z</time>
</trkpt>
<trkpt lat="53.2997818" lon="18.4239947">
<ele>120</ele>
<time>2015-06-26T12:06:54Z</time>
</trkpt>
<trkpt lat="53.2997818" lon="18.4239947">
<ele>120</ele>
<time>2015-06-26T12:06:56Z</time>
</trkpt>
<trkpt lat="53.2997804" lon="18.4239891">
<ele>120</ele>
<time>2015-06-26T12:06:58Z</time>
</trkpt>
<trkpt lat="53.2997790" lon="18.4239890">
<ele>120</ele>
<time>2015-06-26T12:07:00Z</time>
</trkpt>
<trkpt lat="53.2997782" lon="18.4239869">
<ele>120</ele>
<time>2015-06-26T12:07:02Z</time>
</trkpt>
<trkpt lat="53.2997770" lon="18.4239698">
<ele>120</ele>
<time>2015-06-26T12:07:06Z</time>
</trkpt>
<trkpt lat="53.2997796" lon="18.4239607">
<ele>120</ele>
<time>2015-06-26T12:07:08Z</time>
</trkpt>
<trkpt lat="53.2997818" lon="18.4239570">
<ele>121</ele>
<time>2015-06-26T12:07:10Z</time>
</trkpt>
<trkpt lat="53.2997812" lon="18.4239510">
<ele>121</ele>
<time>2015-06-26T12:07:14Z</time>
</trkpt>
<trkpt lat="53.2997821" lon="18.4239319">
<ele>120</ele>
<time>2015-06-26T12:07:18Z</time>
</trkpt>
<trkpt lat="53.2997814" lon="18.4239368">
<ele>119</ele>
<time>2015-06-26T12:07:20Z</time>
</trkpt>
<trkpt lat="53.2997781" lon="18.4239445">
<ele>119</ele>
<time>2015-06-26T12:07:22Z</time>
</trkpt>
<trkpt lat="53.2997744" lon="18.4239506">
<ele>120</ele>
<time>2015-06-26T12:07:24Z</time>
</trkpt>
<trkpt lat="53.2997680" lon="18.4239522">
<ele>120</ele>
<time>2015-06-26T12:07:26Z</time>
</trkpt>
<trkpt lat="53.2997595" lon="18.4239563">
<ele>120</ele>
<time>2015-06-26T12:07:28Z</time>
</trkpt>
<trkpt lat="53.2997513" lon="18.4239622">
<ele>120</ele>
<time>2015-06-26T12:07:30Z</time>
</trkpt>
<trkpt lat="53.2997501" lon="18.4239641">
<ele>121</ele>
<time>2015-06-26T12:07:32Z</time>
</trkpt>
<trkpt lat="53.2997501" lon="18.4239684">
<ele>121</ele>
<time>2015-06-26T12:07:34Z</time>
</trkpt>
<trkpt lat="53.2997534" lon="18.4239502">
<ele>121</ele>
<time>2015-06-26T12:07:38Z</time>
</trkpt>
<trkpt lat="53.2997539" lon="18.4239460">
<ele>121</ele>
<time>2015-06-26T12:07:40Z</time>
</trkpt>
<trkpt lat="53.2997515" lon="18.4239329">
<ele>121</ele>
<time>2015-06-26T12:07:44Z</time>
</trkpt>
<trkpt lat="53.2997556" lon="18.423932">
<ele>121</ele>
<time>2015-06-26T12:07:50Z</time>
</trkpt>
<trkpt lat="53.2997589" lon="18.4239313">
<ele>121</ele>
<time>2015-06-26T12:07:52Z</time>
</trkpt>
<trkpt lat="53.2997572" lon="18.4239336">
<ele>121</ele>
<time>2015-06-26T12:07:54Z</time>
</trkpt>
<trkpt lat="53.2997550" lon="18.4239313">
<ele>121</ele>
<time>2015-06-26T12:07:56Z</time>
</trkpt>
<trkpt lat="53.2997565" lon="18.4239292">
<ele>121</ele>
<time>2015-06-26T12:07:58Z</time>
</trkpt>
<trkpt lat="53.2997556" lon="18.4239396">
<ele>121</ele>
<time>2015-06-26T12:08:00Z</time>
</trkpt>
<trkpt lat="53.2997576" lon="18.4239514">
<ele>121</ele>
<time>2015-06-26T12:08:02Z</time>
</trkpt>
<trkpt lat="53.2997638" lon="18.4239602">
<ele>121</ele>
<time>2015-06-26T12:08:04Z</time>
</trkpt>
<trkpt lat="53.2997722" lon="18.4239660">
<ele>121</ele>
<time>2015-06-26T12:08:06Z</time>
</trkpt>
<trkpt lat="53.2997802" lon="18.4239687">
<ele>121</ele>
<time>2015-06-26T12:08:08Z</time>
</trkpt>
<trkpt lat="53.2997816" lon="18.4239719">
<ele>121</ele>
<time>2015-06-26T12:08:10Z</time>
</trkpt>
<trkpt lat="53.2997825" lon="18.4239751">
<ele>121</ele>
<time>2015-06-26T12:08:12Z</time>
</trkpt>
<trkpt lat="53.2997818" lon="18.4239770">
<ele>120</ele>
<time>2015-06-26T12:08:14Z</time>
</trkpt>
<trkpt lat="53.2997794" lon="18.4239755">
<ele>120</ele>
<time>2015-06-26T12:08:16Z</time>
</trkpt>
<trkpt lat="53.2997760" lon="18.4239803">
<ele>120</ele>
<time>2015-06-26T12:08:18Z</time>
</trkpt>
<trkpt lat="53.2997739" lon="18.4239849">
<ele>120</ele>
<time>2015-06-26T12:08:22Z</time>
</trkpt>
<trkpt lat="53.2997719" lon="18.4239854">
<ele>120</ele>
<time>2015-06-26T12:08:24Z</time>
</trkpt>
<trkpt lat="53.2997698" lon="18.4239864">
<ele>120</ele>
<time>2015-06-26T12:08:26Z</time>
</trkpt>
<trkpt lat="53.2997676" lon="18.4239860">
<ele>120</ele>
<time>2015-06-26T12:08:28Z</time>
</trkpt>
<trkpt lat="53.2997667" lon="18.4239854">
<ele>120</ele>
<time>2015-06-26T12:08:30Z</time>
</trkpt>
<trkpt lat="53.2997664" lon="18.4239852">
<ele>120</ele>
<time>2015-06-26T12:08:32Z</time>
</trkpt>
<trkpt lat="53.2997651" lon="18.4239871">
<ele>120</ele>
<time>2015-06-26T12:08:34Z</time>
</trkpt>
<trkpt lat="53.2997686" lon="18.4239912">
<ele>120</ele>
<time>2015-06-26T12:08:36Z</time>
</trkpt>
<trkpt lat="53.2997744" lon="18.4239861">
<ele>120</ele>
<time>2015-06-26T12:08:38Z</time>
</trkpt>
<trkpt lat="53.2997809" lon="18.4239846">
<ele>119</ele>
<time>2015-06-26T12:08:40Z</time>
</trkpt>
<trkpt lat="53.2997833" lon="18.4239827">
<ele>119</ele>
<time>2015-06-26T12:08:42Z</time>
</trkpt>
<trkpt lat="53.2997866" lon="18.4239859">
<ele>119</ele>
<time>2015-06-26T12:08:44Z</time>
</trkpt>
<trkpt lat="53.2997880" lon="18.4239898">
<ele>119</ele>
<time>2015-06-26T12:08:46Z</time>
</trkpt>
<trkpt lat="53.2997854" lon="18.4239955">
<ele>118</ele>
<time>2015-06-26T12:08:48Z</time>
</trkpt>
<trkpt lat="53.2997799" lon="18.4239935">
<ele>118</ele>
<time>2015-06-26T12:08:50Z</time>
</trkpt>
<trkpt lat="53.2997777" lon="18.4239972">
<ele>118</ele>
<time>2015-06-26T12:08:52Z</time>
</trkpt>
<trkpt lat="53.2997811" lon="18.4240135">
<ele>119</ele>
<time>2015-06-26T12:08:54Z</time>
</trkpt>
<trkpt lat="53.2997848" lon="18.4240221">
<ele>118</ele>
<time>2015-06-26T12:08:56Z</time>
</trkpt>
<trkpt lat="53.2997883" lon="18.4240249">
<ele>118</ele>
<time>2015-06-26T12:08:58Z</time>
</trkpt>
<trkpt lat="53.2997875" lon="18.4240261">
<ele>118</ele>
<time>2015-06-26T12:09:00Z</time>
</trkpt>
<trkpt lat="53.2997862" lon="18.4240322">
<ele>118</ele>
<time>2015-06-26T12:09:02Z</time>
</trkpt>
<trkpt lat="53.2997844" lon="18.4240343">
<ele>118</ele>
<time>2015-06-26T12:09:04Z</time>
</trkpt>
<trkpt lat="53.2997823" lon="18.4240249">
<ele>118</ele>
<time>2015-06-26T12:09:06Z</time>
</trkpt>
<trkpt lat="53.2997801" lon="18.4240219">
<ele>119</ele>
<time>2015-06-26T12:09:08Z</time>
</trkpt>
<trkpt lat="53.2997801" lon="18.4240220">
<ele>119</ele>
<time>2015-06-26T12:09:10Z</time>
</trkpt>
<trkpt lat="53.2997844" lon="18.4240246">
<ele>119</ele>
<time>2015-06-26T12:09:12Z</time>
</trkpt>
<trkpt lat="53.2997872" lon="18.4240288">
<ele>119</ele>
<time>2015-06-26T12:09:14Z</time>
</trkpt>
<trkpt lat="53.2997836" lon="18.4240315">
<ele>120</ele>
<time>2015-06-26T12:09:18Z</time>
</trkpt>
<trkpt lat="53.2997824" lon="18.4240324">
<ele>120</ele>
<time>2015-06-26T12:09:20Z</time>
</trkpt>
<trkpt lat="53.2997820" lon="18.4240326">
<ele>120</ele>
<time>2015-06-26T12:09:22Z</time>
</trkpt>
<trkpt lat="53.2997819" lon="18.4240326">
<ele>120</ele>
<time>2015-06-26T12:09:24Z</time>
</trkpt>
<trkpt lat="53.2997819" lon="18.4240326">
<ele>120</ele>
<time>2015-06-26T12:09:26Z</time>
</trkpt>
<trkpt lat="53.2997819" lon="18.4240326">
<ele>120</ele>
<time>2015-06-26T12:09:28Z</time>
</trkpt>
<trkpt lat="53.2997819" lon="18.4240327">
<ele>120</ele>
<time>2015-06-26T12:09:30Z</time>
</trkpt>
<trkpt lat="53.2997818" lon="18.4240327">
<ele>120</ele>
<time>2015-06-26T12:09:32Z</time>
</trkpt>
<trkpt lat="53.2997819" lon="18.4240327">
<ele>120</ele>
<time>2015-06-26T12:09:34Z</time>
</trkpt>
<trkpt lat="53.2997819" lon="18.4240327">
<ele>120</ele>
<time>2015-06-26T12:09:36Z</time>
</trkpt>
<trkpt lat="53.2997819" lon="18.4240327">
<ele>120</ele>
<time>2015-06-26T12:09:38Z</time>
</trkpt>
<trkpt lat="53.2997819" lon="18.4240327">
<ele>120</ele>
<time>2015-06-26T12:09:40Z</time>
</trkpt>
<trkpt lat="53.2997819" lon="18.4240327">
<ele>120</ele>
<time>2015-06-26T12:09:42Z</time>
</trkpt>
<trkpt lat="53.2997819" lon="18.4240328">
<ele>120</ele>
<time>2015-06-26T12:09:44Z</time>
</trkpt>
<trkpt lat="53.2997825" lon="18.4240355">
<ele>120</ele>
<time>2015-06-26T12:09:46Z</time>
</trkpt>
<trkpt lat="53.2997841" lon="18.4240353">
<ele>121</ele>
<time>2015-06-26T12:09:48Z</time>
</trkpt>
<trkpt lat="53.2997852" lon="18.4240415">
<ele>121</ele>
<time>2015-06-26T12:09:52Z</time>
</trkpt>
<trkpt lat="53.2997854" lon="18.4240445">
<ele>121</ele>
<time>2015-06-26T12:09:54Z</time>
</trkpt>
<trkpt lat="53.2997847" lon="18.4240471">
<ele>121</ele>
<time>2015-06-26T12:09:56Z</time>
</trkpt>
<trkpt lat="53.2997841" lon="18.4240460">
<ele>122</ele>
<time>2015-06-26T12:09:58Z</time>
</trkpt>
<trkpt lat="53.2997842" lon="18.4240451">
<ele>122</ele>
<time>2015-06-26T12:10:00Z</time>
</trkpt>
<trkpt lat="53.2997842" lon="18.4240448">
<ele>122</ele>
<time>2015-06-26T12:10:02Z</time>
</trkpt>
<trkpt lat="53.2997842" lon="18.4240447">
<ele>122</ele>
<time>2015-06-26T12:10:04Z</time>
</trkpt>
<trkpt lat="53.2997841" lon="18.4240447">
<ele>122</ele>
<time>2015-06-26T12:10:06Z</time>
</trkpt>
<trkpt lat="53.2997838" lon="18.424046">
<ele>122</ele>
<time>2015-06-26T12:10:08Z</time>
</trkpt>
<trkpt lat="53.2997822" lon="18.4240466">
<ele>122</ele>
<time>2015-06-26T12:10:10Z</time>
</trkpt>
<trkpt lat="53.2997811" lon="18.4240484">
<ele>122</ele>
<time>2015-06-26T12:10:12Z</time>
</trkpt>
<trkpt lat="53.2997792" lon="18.4240521">
<ele>122</ele>
<time>2015-06-26T12:10:14Z</time>
</trkpt>
<trkpt lat="53.2997748" lon="18.42406">
<ele>123</ele>
<time>2015-06-26T12:10:18Z</time>
</trkpt>
<trkpt lat="53.2997739" lon="18.4240604">
<ele>123</ele>
<time>2015-06-26T12:10:20Z</time>
</trkpt>
<trkpt lat="53.2997735" lon="18.4240604">
<ele>123</ele>
<time>2015-06-26T12:10:24Z</time>
</trkpt>
<trkpt lat="53.2997735" lon="18.4240604">
<ele>123</ele>
<time>2015-06-26T12:10:26Z</time>
</trkpt>
<trkpt lat="53.2997735" lon="18.4240604">
<ele>123</ele>
<time>2015-06-26T12:10:28Z</time>
</trkpt>
<trkpt lat="53.2997735" lon="18.4240605">
<ele>123</ele>
<time>2015-06-26T12:10:30Z</time>
</trkpt>
<trkpt lat="53.2997734" lon="18.4240605">
<ele>123</ele>
<time>2015-06-26T12:10:34Z</time>
</trkpt>
<trkpt lat="53.2997734" lon="18.4240605">
<ele>123</ele>
<time>2015-06-26T12:10:36Z</time>
</trkpt>
<trkpt lat="53.2997734" lon="18.4240605">
<ele>123</ele>
<time>2015-06-26T12:10:38Z</time>
</trkpt>
<trkpt lat="53.2997734" lon="18.4240604">
<ele>123</ele>
<time>2015-06-26T12:10:40Z</time>
</trkpt>
<trkpt lat="53.2997734" lon="18.4240604">
<ele>123</ele>
<time>2015-06-26T12:10:42Z</time>
</trkpt>
<trkpt lat="53.2997734" lon="18.4240605">
<ele>123</ele>
<time>2015-06-26T12:10:44Z</time>
</trkpt>
<trkpt lat="53.2997734" lon="18.4240605">
<ele>123</ele>
<time>2015-06-26T12:10:46Z</time>
</trkpt>
<trkpt lat="53.2997734" lon="18.4240605">
<ele>123</ele>
<time>2015-06-26T12:10:48Z</time>
</trkpt>
<trkpt lat="53.2997734" lon="18.4240605">
<ele>123</ele>
<time>2015-06-26T12:10:50Z</time>
</trkpt>
<trkpt lat="53.2997735" lon="18.4240605">
<ele>123</ele>
<time>2015-06-26T12:10:52Z</time>
</trkpt>
<trkpt lat="53.2997719" lon="18.4240610">
<ele>123</ele>
<time>2015-06-26T12:10:54Z</time>
</trkpt>
<trkpt lat="53.2997720" lon="18.4240426">
<ele>123</ele>
<time>2015-06-26T12:10:56Z</time>
</trkpt>
<trkpt lat="53.2997768" lon="18.4240250">
<ele>123</ele>
<time>2015-06-26T12:10:58Z</time>
</trkpt>
<trkpt lat="53.2997836" lon="18.4240228">
<ele>123</ele>
<time>2015-06-26T12:11:00Z</time>
</trkpt>
<trkpt lat="53.2997842" lon="18.4240310">
<ele>122</ele>
<time>2015-06-26T12:11:02Z</time>
</trkpt>
<trkpt lat="53.2997841" lon="18.4240252">
<ele>122</ele>
<time>2015-06-26T12:11:04Z</time>
</trkpt>
<trkpt lat="53.2997832" lon="18.4240232">
<ele>122</ele>
<time>2015-06-26T12:11:06Z</time>
</trkpt>
<trkpt lat="53.2997854" lon="18.4240208">
<ele>121</ele>
<time>2015-06-26T12:11:08Z</time>
</trkpt>
<trkpt lat="53.2997845" lon="18.4240201">
<ele>121</ele>
<time>2015-06-26T12:11:10Z</time>
</trkpt>
<trkpt lat="53.2997822" lon="18.42402">
<ele>121</ele>
<time>2015-06-26T12:11:12Z</time>
</trkpt>
<trkpt lat="53.2997804" lon="18.4240200">
<ele>121</ele>
<time>2015-06-26T12:11:14Z</time>
</trkpt>
<trkpt lat="53.2997795" lon="18.4240217">
<ele>121</ele>
<time>2015-06-26T12:11:16Z</time>
</trkpt>
<trkpt lat="53.2997787" lon="18.4240198">
<ele>121</ele>
<time>2015-06-26T12:11:18Z</time>
</trkpt>
<trkpt lat="53.2997776" lon="18.4240198">
<ele>121</ele>
<time>2015-06-26T12:11:20Z</time>
</trkpt>
<trkpt lat="53.2997770" lon="18.4240206">
<ele>122</ele>
<time>2015-06-26T12:11:22Z</time>
</trkpt>
<trkpt lat="53.2997746" lon="18.4240204">
<ele>121</ele>
<time>2015-06-26T12:11:24Z</time>
</trkpt>
<trkpt lat="53.2997718" lon="18.4240194">
<ele>121</ele>
<time>2015-06-26T12:11:26Z</time>
</trkpt>
<trkpt lat="53.2997717" lon="18.4240185">
<ele>121</ele>
<time>2015-06-26T12:11:28Z</time>
</trkpt>
<trkpt lat="53.2997723" lon="18.4240183">
<ele>121</ele>
<time>2015-06-26T12:11:30Z</time>
</trkpt>
<trkpt lat="53.2997678" lon="18.4240215">
<ele>121</ele>
<time>2015-06-26T12:11:32Z</time>
</trkpt>
<trkpt lat="53.2997685" lon="18.4240201">
<ele>120</ele>
<time>2015-06-26T12:11:34Z</time>
</trkpt>
<trkpt lat="53.2997732" lon="18.4240333">
<ele>121</ele>
<time>2015-06-26T12:11:38Z</time>
</trkpt>
<trkpt lat="53.2997730" lon="18.4240364">
<ele>121</ele>
<time>2015-06-26T12:11:40Z</time>
</trkpt>
<trkpt lat="53.2997788" lon="18.4240360">
<ele>121</ele>
<time>2015-06-26T12:11:42Z</time>
</trkpt>
<trkpt lat="53.2997829" lon="18.4240344">
<ele>120</ele>
<time>2015-06-26T12:11:44Z</time>
</trkpt>
<trkpt lat="53.2997817" lon="18.4240392">
<ele>121</ele>
<time>2015-06-26T12:11:48Z</time>
</trkpt>
<trkpt lat="53.2997810" lon="18.4240365">
<ele>121</ele>
<time>2015-06-26T12:11:52Z</time>
</trkpt>
<trkpt lat="53.2997823" lon="18.4240347">
<ele>121</ele>
<time>2015-06-26T12:11:54Z</time>
</trkpt>
<trkpt lat="53.2997830" lon="18.4240380">
<ele>121</ele>
<time>2015-06-26T12:11:56Z</time>
</trkpt>
<trkpt lat="53.2997827" lon="18.4240393">
<ele>121</ele>
<time>2015-06-26T12:11:58Z</time>
</trkpt>
<trkpt lat="53.2997806" lon="18.4240402">
<ele>121</ele>
<time>2015-06-26T12:12:00Z</time>
</trkpt>
<trkpt lat="53.2997795" lon="18.4240403">
<ele>121</ele>
<time>2015-06-26T12:12:02Z</time>
</trkpt>
<trkpt lat="53.2997803" lon="18.4240406">
<ele>121</ele>
<time>2015-06-26T12:12:04Z</time>
</trkpt>
<trkpt lat="53.2997817" lon="18.4240399">
<ele>121</ele>
<time>2015-06-26T12:12:06Z</time>
</trkpt>
<trkpt lat="53.2997813" lon="18.4240345">
<ele>121</ele>
<time>2015-06-26T12:12:08Z</time>
</trkpt>
<trkpt lat="53.2997808" lon="18.4240274">
<ele>121</ele>
<time>2015-06-26T12:12:10Z</time>
</trkpt>
<trkpt lat="53.299781" lon="18.4240185">
<ele>121</ele>
<time>2015-06-26T12:12:14Z</time>
</trkpt>
<trkpt lat="53.2997837" lon="18.4240100">
<ele>120</ele>
<time>2015-06-26T12:12:16Z</time>
</trkpt>
<trkpt lat="53.2997861" lon="18.4240063">
<ele>121</ele>
<time>2015-06-26T12:12:18Z</time>
</trkpt>
<trkpt lat="53.2997845" lon="18.4240026">
<ele>121</ele>
<time>2015-06-26T12:12:20Z</time>
</trkpt>
<trkpt lat="53.2997840" lon="18.4239990">
<ele>121</ele>
<time>2015-06-26T12:12:22Z</time>
</trkpt>
<trkpt lat="53.2997847" lon="18.4240020">
<ele>121</ele>
<time>2015-06-26T12:12:24Z</time>
</trkpt>
<trkpt lat="53.2997842" lon="18.4240162">
<ele>121</ele>
<time>2015-06-26T12:12:26Z</time>
</trkpt>
<trkpt lat="53.2997857" lon="18.4240301">
<ele>121</ele>
<time>2015-06-26T12:12:28Z</time>
</trkpt>
<trkpt lat="53.2997846" lon="18.4240371">
<ele>121</ele>
<time>2015-06-26T12:12:30Z</time>
</trkpt>
<trkpt lat="53.2997811" lon="18.4240379">
<ele>121</ele>
<time>2015-06-26T12:12:32Z</time>
</trkpt>
<trkpt lat="53.2997793" lon="18.4240373">
<ele>121</ele>
<time>2015-06-26T12:12:34Z</time>
</trkpt>
<trkpt lat="53.2997785" lon="18.4240287">
<ele>121</ele>
<time>2015-06-26T12:12:38Z</time>
</trkpt>
<trkpt lat="53.2997771" lon="18.4240291">
<ele>120</ele>
<time>2015-06-26T12:12:40Z</time>
</trkpt>
<trkpt lat="53.2997747" lon="18.4240236">
<ele>121</ele>
<time>2015-06-26T12:12:42Z</time>
</trkpt>
<trkpt lat="53.2997707" lon="18.4240153">
<ele>121</ele>
<time>2015-06-26T12:12:44Z</time>
</trkpt>
<trkpt lat="53.2997649" lon="18.4240077">
<ele>121</ele>
<time>2015-06-26T12:12:46Z</time>
</trkpt>
<trkpt lat="53.2997656" lon="18.4240005">
<ele>121</ele>
<time>2015-06-26T12:12:48Z</time>
</trkpt>
<trkpt lat="53.2997646" lon="18.4239987">
<ele>121</ele>
<time>2015-06-26T12:12:50Z</time>
</trkpt>
<trkpt lat="53.2997618" lon="18.4239967">
<ele>121</ele>
<time>2015-06-26T12:12:52Z</time>
</trkpt>
<trkpt lat="53.2997652" lon="18.4239938">
<ele>120</ele>
<time>2015-06-26T12:12:54Z</time>
</trkpt>
<trkpt lat="53.2997652" lon="18.4239936">
<ele>120</ele>
<time>2015-06-26T12:12:56Z</time>
</trkpt>
<trkpt lat="53.2997694" lon="18.4239969">
<ele>120</ele>
<time>2015-06-26T12:13:00Z</time>
</trkpt>
<trkpt lat="53.2997691" lon="18.4239977">
<ele>120</ele>
<time>2015-06-26T12:13:02Z</time>
</trkpt>
<trkpt lat="53.2997691" lon="18.4239981">
<ele>120</ele>
<time>2015-06-26T12:13:04Z</time>
</trkpt>
<trkpt lat="53.2997682" lon="18.4239982">
<ele>120</ele>
<time>2015-06-26T12:13:06Z</time>
</trkpt>
<trkpt lat="53.2997674" lon="18.4239985">
<ele>120</ele>
<time>2015-06-26T12:13:08Z</time>
</trkpt>
<trkpt lat="53.2997669" lon="18.4239984">
<ele>120</ele>
<time>2015-06-26T12:13:12Z</time>
</trkpt>
<trkpt lat="53.2997669" lon="18.4239984">
<ele>120</ele>
<time>2015-06-26T12:13:14Z</time>
</trkpt>
<trkpt lat="53.2997676" lon="18.4240007">
<ele>120</ele>
<time>2015-06-26T12:13:18Z</time>
</trkpt>
<trkpt lat="53.299769" lon="18.4240005">
<ele>119</ele>
<time>2015-06-26T12:13:20Z</time>
</trkpt>
<trkpt lat="53.2997693" lon="18.4239989">
<ele>119</ele>
<time>2015-06-26T12:13:22Z</time>
</trkpt>
<trkpt lat="53.2997684" lon="18.4239981">
<ele>119</ele>
<time>2015-06-26T12:13:24Z</time>
</trkpt>
<trkpt lat="53.2997676" lon="18.4239965">
<ele>119</ele>
<time>2015-06-26T12:13:26Z</time>
</trkpt>
<trkpt lat="53.2997676" lon="18.4239948">
<ele>119</ele>
<time>2015-06-26T12:13:28Z</time>
</trkpt>
<trkpt lat="53.299768" lon="18.4239978">
<ele>119</ele>
<time>2015-06-26T12:13:30Z</time>
</trkpt>
<trkpt lat="53.2997663" lon="18.4240013">
<ele>120</ele>
<time>2015-06-26T12:13:32Z</time>
</trkpt>
<trkpt lat="53.2997657" lon="18.4240018">
<ele>120</ele>
<time>2015-06-26T12:13:34Z</time>
</trkpt>
<trkpt lat="53.2997663" lon="18.4240061">
<ele>121</ele>
<time>2015-06-26T12:13:36Z</time>
</trkpt>
<trkpt lat="53.2997666" lon="18.4240145">
<ele>121</ele>
<time>2015-06-26T12:13:38Z</time>
</trkpt>
<trkpt lat="53.2997650" lon="18.4240159">
<ele>121</ele>
<time>2015-06-26T12:13:40Z</time>
</trkpt>
<trkpt lat="53.2997622" lon="18.4240129">
<ele>121</ele>
<time>2015-06-26T12:13:42Z</time>
</trkpt>
<trkpt lat="53.2997582" lon="18.4240107">
<ele>120</ele>
<time>2015-06-26T12:13:44Z</time>
</trkpt>
<trkpt lat="53.2997587" lon="18.4240091">
<ele>120</ele>
<time>2015-06-26T12:13:46Z</time>
</trkpt>
<trkpt lat="53.2997588" lon="18.4240091">
<ele>120</ele>
<time>2015-06-26T12:13:48Z</time>
</trkpt>
<trkpt lat="53.2997583" lon="18.4240117">
<ele>120</ele>
<time>2015-06-26T12:13:50Z</time>
</trkpt>
<trkpt lat="53.2997588" lon="18.4240154">
<ele>120</ele>
<time>2015-06-26T12:13:52Z</time>
</trkpt>
<trkpt lat="53.2997577" lon="18.4240174">
<ele>119</ele>
<time>2015-06-26T12:13:54Z</time>
</trkpt>
<trkpt lat="53.2997558" lon="18.4240121">
<ele>119</ele>
<time>2015-06-26T12:13:58Z</time>
</trkpt>
<trkpt lat="53.2997567" lon="18.4240072">
<ele>119</ele>
<time>2015-06-26T12:14:02Z</time>
</trkpt>
<trkpt lat="53.2997564" lon="18.4240077">
<ele>120</ele>
<time>2015-06-26T12:14:04Z</time>
</trkpt>
<trkpt lat="53.2997560" lon="18.4240049">
<ele>119</ele>
<time>2015-06-26T12:14:06Z</time>
</trkpt>
<trkpt lat="53.2997548" lon="18.4240031">
<ele>119</ele>
<time>2015-06-26T12:14:08Z</time>
</trkpt>
<trkpt lat="53.2997536" lon="18.4240029">
<ele>119</ele>
<time>2015-06-26T12:14:10Z</time>
</trkpt>
<trkpt lat="53.2997541" lon="18.4240022">
<ele>118</ele>
<time>2015-06-26T12:14:14Z</time>
</trkpt>
<trkpt lat="53.2997552" lon="18.4240040">
<ele>118</ele>
<time>2015-06-26T12:14:18Z</time>
</trkpt>
<trkpt lat="53.2997560" lon="18.4240007">
<ele>118</ele>
<time>2015-06-26T12:14:20Z</time>
</trkpt>
<trkpt lat="53.2997541" lon="18.4239996">
<ele>118</ele>
<time>2015-06-26T12:14:22Z</time>
</trkpt>
<trkpt lat="53.2997510" lon="18.4240021">
<ele>118</ele>
<time>2015-06-26T12:14:24Z</time>
</trkpt>
<trkpt lat="53.2997447" lon="18.4239970">
<ele>118</ele>
<time>2015-06-26T12:14:28Z</time>
</trkpt>
<trkpt lat="53.2997433" lon="18.4239971">
<ele>118</ele>
<time>2015-06-26T12:14:30Z</time>
</trkpt>
<trkpt lat="53.2997434" lon="18.4239978">
<ele>118</ele>
<time>2015-06-26T12:14:32Z</time>
</trkpt>
<trkpt lat="53.2997435" lon="18.4239981">
<ele>118</ele>
<time>2015-06-26T12:14:34Z</time>
</trkpt>
<trkpt lat="53.2997425" lon="18.4239998">
<ele>118</ele>
<time>2015-06-26T12:14:36Z</time>
</trkpt>
<trkpt lat="53.2997436" lon="18.4240006">
<ele>119</ele>
<time>2015-06-26T12:14:38Z</time>
</trkpt>
<trkpt lat="53.2997434" lon="18.4239997">
<ele>119</ele>
<time>2015-06-26T12:14:40Z</time>
</trkpt>
<trkpt lat="53.2997434" lon="18.4239985">
<ele>119</ele>
<time>2015-06-26T12:14:42Z</time>
</trkpt>
<trkpt lat="53.2997436" lon="18.4240007">
<ele>119</ele>
<time>2015-06-26T12:14:44Z</time>
</trkpt>
<trkpt lat="53.2997463" lon="18.424002">
<ele>119</ele>
<time>2015-06-26T12:14:46Z</time>
</trkpt>
<trkpt lat="53.2997484" lon="18.4240004">
<ele>119</ele>
<time>2015-06-26T12:14:48Z</time>
</trkpt>
<trkpt lat="53.2997500" lon="18.4239993">
<ele>118</ele>
<time>2015-06-26T12:14:50Z</time>
</trkpt>
<trkpt lat="53.2997508" lon="18.4240089">
<ele>118</ele>
<time>2015-06-26T12:14:52Z</time>
</trkpt>
<trkpt lat="53.2997505" lon="18.4240247">
<ele>119</ele>
<time>2015-06-26T12:14:54Z</time>
</trkpt>
<trkpt lat="53.2997476" lon="18.4240407">
<ele>119</ele>
<time>2015-06-26T12:14:58Z</time>
</trkpt>
<trkpt lat="53.2997457" lon="18.4240392">
<ele>119</ele>
<time>2015-06-26T12:15:02Z</time>
</trkpt>
<trkpt lat="53.2997451" lon="18.4240326">
<ele>120</ele>
<time>2015-06-26T12:15:04Z</time>
</trkpt>
<trkpt lat="53.2997463" lon="18.4240171">
<ele>120</ele>
<time>2015-06-26T12:15:08Z</time>
</trkpt>
<trkpt lat="53.2997469" lon="18.4240126">
<ele>121</ele>
<time>2015-06-26T12:15:10Z</time>
</trkpt>
<trkpt lat="53.2997501" lon="18.4240143">
<ele>120</ele>
<time>2015-06-26T12:15:14Z</time>
</trkpt>
<trkpt lat="53.2997517" lon="18.4240160">
<ele>120</ele>
<time>2015-06-26T12:15:16Z</time>
</trkpt>
<trkpt lat="53.2997533" lon="18.4240227">
<ele>121</ele>
<time>2015-06-26T12:15:18Z</time>
</trkpt>
<trkpt lat="53.2997640" lon="18.4240305">
<ele>121</ele>
<time>2015-06-26T12:15:20Z</time>
</trkpt>
<trkpt lat="53.2997792" lon="18.4240386">
<ele>121</ele>
<time>2015-06-26T12:15:22Z</time>
</trkpt>
<trkpt lat="53.2997752" lon="18.4240461">
<ele>121</ele>
<time>2015-06-26T12:15:24Z</time>
</trkpt>
<trkpt lat="53.2997677" lon="18.4240344">
<ele>122</ele>
<time>2015-06-26T12:15:26Z</time>
</trkpt>
<trkpt lat="53.2997639" lon="18.4240263">
<ele>122</ele>
<time>2015-06-26T12:15:28Z</time>
</trkpt>
<trkpt lat="53.2997611" lon="18.4240202">
<ele>122</ele>
<time>2015-06-26T12:15:30Z</time>
</trkpt>
<trkpt lat="53.2997600" lon="18.4240164">
<ele>122</ele>
<time>2015-06-26T12:15:32Z</time>
</trkpt>
<trkpt lat="53.2997592" lon="18.4240153">
<ele>122</ele>
<time>2015-06-26T12:15:34Z</time>
</trkpt>
<trkpt lat="53.2997572" lon="18.4240139">
<ele>122</ele>
<time>2015-06-26T12:15:36Z</time>
</trkpt>
<trkpt lat="53.2997548" lon="18.4240091">
<ele>121</ele>
<time>2015-06-26T12:15:38Z</time>
</trkpt>
<trkpt lat="53.2997584" lon="18.4240075">
<ele>121</ele>
<time>2015-06-26T12:15:40Z</time>
</trkpt>
<trkpt lat="53.2997615" lon="18.4240044">
<ele>121</ele>
<time>2015-06-26T12:15:42Z</time>
</trkpt>
<trkpt lat="53.2997607" lon="18.4240012">
<ele>120</ele>
<time>2015-06-26T12:15:44Z</time>
</trkpt>
<trkpt lat="53.2997614" lon="18.4240033">
<ele>120</ele>
<time>2015-06-26T12:15:48Z</time>
</trkpt>
<trkpt lat="53.2997625" lon="18.4240044">
<ele>121</ele>
<time>2015-06-26T12:15:50Z</time>
</trkpt>
<trkpt lat="53.2997613" lon="18.4240064">
<ele>121</ele>
<time>2015-06-26T12:15:52Z</time>
</trkpt>
<trkpt lat="53.2997597" lon="18.4240044">
<ele>121</ele>
<time>2015-06-26T12:15:54Z</time>
</trkpt>
<trkpt lat="53.2997609" lon="18.4240017">
<ele>120</ele>
<time>2015-06-26T12:15:58Z</time>
</trkpt>
<trkpt lat="53.2997609" lon="18.4239992">
<ele>120</ele>
<time>2015-06-26T12:16:00Z</time>
</trkpt>
<trkpt lat="53.2997629" lon="18.4239979">
<ele>121</ele>
<time>2015-06-26T12:16:02Z</time>
</trkpt>
<trkpt lat="53.2997632" lon="18.4240019">
<ele>121</ele>
<time>2015-06-26T12:16:04Z</time>
</trkpt>
<trkpt lat="53.2997628" lon="18.4240005">
<ele>121</ele>
<time>2015-06-26T12:16:06Z</time>
</trkpt>
<trkpt lat="53.2997636" lon="18.4239964">
<ele>121</ele>
<time>2015-06-26T12:16:08Z</time>
</trkpt>
<trkpt lat="53.2997643" lon="18.4240005">
<ele>120</ele>
<time>2015-06-26T12:16:10Z</time>
</trkpt>
<trkpt lat="53.2997649" lon="18.4240050">
<ele>120</ele>
<time>2015-06-26T12:16:12Z</time>
</trkpt>
<trkpt lat="53.2997664" lon="18.4240078">
<ele>119</ele>
<time>2015-06-26T12:16:14Z</time>
</trkpt>
<trkpt lat="53.2997666" lon="18.4240068">
<ele>119</ele>
<time>2015-06-26T12:16:16Z</time>
</trkpt>
<trkpt lat="53.2997659" lon="18.4240058">
<ele>119</ele>
<time>2015-06-26T12:16:18Z</time>
</trkpt>
<trkpt lat="53.2997662" lon="18.4240053">
<ele>119</ele>
<time>2015-06-26T12:16:20Z</time>
</trkpt>
<trkpt lat="53.2997662" lon="18.4240051">
<ele>119</ele>
<time>2015-06-26T12:16:22Z</time>
</trkpt>
<trkpt lat="53.2997661" lon="18.4240050">
<ele>119</ele>
<time>2015-06-26T12:16:24Z</time>
</trkpt>
<trkpt lat="53.2997661" lon="18.4240049">
<ele>119</ele>
<time>2015-06-26T12:16:26Z</time>
</trkpt>
<trkpt lat="53.2997669" lon="18.4240056">
<ele>119</ele>
<time>2015-06-26T12:16:28Z</time>
</trkpt>
<trkpt lat="53.2997674" lon="18.4240059">
<ele>119</ele>
<time>2015-06-26T12:16:30Z</time>
</trkpt>
<trkpt lat="53.2997659" lon="18.4239975">
<ele>119</ele>
<time>2015-06-26T12:16:32Z</time>
</trkpt>
<trkpt lat="53.2997644" lon="18.4239981">
<ele>118</ele>
<time>2015-06-26T12:16:34Z</time>
</trkpt>
<trkpt lat="53.2997616" lon="18.4240011">
<ele>119</ele>
<time>2015-06-26T12:16:38Z</time>
</trkpt>
<trkpt lat="53.2997624" lon="18.4240018">
<ele>119</ele>
<time>2015-06-26T12:16:40Z</time>
</trkpt>
<trkpt lat="53.2997633" lon="18.4240019">
<ele>119</ele>
<time>2015-06-26T12:16:42Z</time>
</trkpt>
<trkpt lat="53.2997643" lon="18.4240068">
<ele>119</ele>
<time>2015-06-26T12:16:44Z</time>
</trkpt>
<trkpt lat="53.2997628" lon="18.4240274">
<ele>118</ele>
<time>2015-06-26T12:16:48Z</time>
</trkpt>
<trkpt lat="53.2997576" lon="18.4240382">
<ele>119</ele>
<time>2015-06-26T12:16:52Z</time>
</trkpt>
<trkpt lat="53.2997557" lon="18.4240345">
<ele>120</ele>
<time>2015-06-26T12:16:54Z</time>
</trkpt>
<trkpt lat="53.2997535" lon="18.4240327">
<ele>120</ele>
<time>2015-06-26T12:16:56Z</time>
</trkpt>
<trkpt lat="53.2997505" lon="18.4240296">
<ele>120</ele>
<time>2015-06-26T12:17:00Z</time>
</trkpt>
<trkpt lat="53.2997492" lon="18.4240299">
<ele>120</ele>
<time>2015-06-26T12:17:04Z</time>
</trkpt>
<trkpt lat="53.2997491" lon="18.4240299">
<ele>120</ele>
<time>2015-06-26T12:17:06Z</time>
</trkpt>
<trkpt lat="53.2997476" lon="18.4240275">
<ele>120</ele>
<time>2015-06-26T12:17:08Z</time>
</trkpt>
<trkpt lat="53.2997497" lon="18.4240175">
<ele>120</ele>
<time>2015-06-26T12:17:10Z</time>
</trkpt>
<trkpt lat="53.2997557" lon="18.4240125">
<ele>120</ele>
<time>2015-06-26T12:17:12Z</time>
</trkpt>
<trkpt lat="53.2997584" lon="18.4240100">
<ele>120</ele>
<time>2015-06-26T12:17:14Z</time>
</trkpt>
<trkpt lat="53.2997606" lon="18.4240071">
<ele>120</ele>
<time>2015-06-26T12:17:16Z</time>
</trkpt>
<trkpt lat="53.2997602" lon="18.4240078">
<ele>120</ele>
<time>2015-06-26T12:17:18Z</time>
</trkpt>
<trkpt lat="53.2997603" lon="18.4240090">
<ele>119</ele>
<time>2015-06-26T12:17:20Z</time>
</trkpt>
<trkpt lat="53.2997615" lon="18.4240052">
<ele>119</ele>
<time>2015-06-26T12:17:24Z</time>
</trkpt>
<trkpt lat="53.2997618" lon="18.4240037">
<ele>119</ele>
<time>2015-06-26T12:17:26Z</time>
</trkpt>
<trkpt lat="53.2997621" lon="18.4240026">
<ele>119</ele>
<time>2015-06-26T12:17:28Z</time>
</trkpt>
<trkpt lat="53.2997626" lon="18.4240010">
<ele>119</ele>
<time>2015-06-26T12:17:32Z</time>
</trkpt>
<trkpt lat="53.2997619" lon="18.4240052">
<ele>119</ele>
<time>2015-06-26T12:17:34Z</time>
</trkpt>
<trkpt lat="53.2997644" lon="18.4240105">
<ele>119</ele>
<time>2015-06-26T12:17:36Z</time>
</trkpt>
<trkpt lat="53.2997656" lon="18.4240107">
<ele>118</ele>
<time>2015-06-26T12:17:38Z</time>
</trkpt>
<trkpt lat="53.2997682" lon="18.4240167">
<ele>118</ele>
<time>2015-06-26T12:17:40Z</time>
</trkpt>
<trkpt lat="53.2997679" lon="18.4240142">
<ele>119</ele>
<time>2015-06-26T12:17:42Z</time>
</trkpt>
<trkpt lat="53.2997668" lon="18.4240115">
<ele>118</ele>
<time>2015-06-26T12:17:44Z</time>
</trkpt>
<trkpt lat="53.2997650" lon="18.4239977">
<ele>119</ele>
<time>2015-06-26T12:17:46Z</time>
</trkpt>
<trkpt lat="53.2997632" lon="18.4239908">
<ele>119</ele>
<time>2015-06-26T12:17:48Z</time>
</trkpt>
<trkpt lat="53.2997666" lon="18.4239951">
<ele>119</ele>
<time>2015-06-26T12:17:52Z</time>
</trkpt>
<trkpt lat="53.2997843" lon="18.4240207">
<ele>119</ele>
<time>2015-06-26T12:17:56Z</time>
</trkpt>
<trkpt lat="53.2997902" lon="18.4240335">
<ele>119</ele>
<time>2015-06-26T12:17:58Z</time>
</trkpt>
<trkpt lat="53.2997909" lon="18.4240400">
<ele>120</ele>
<time>2015-06-26T12:18:00Z</time>
</trkpt>
<trkpt lat="53.2997908" lon="18.4240420">
<ele>119</ele>
<time>2015-06-26T12:18:04Z</time>
</trkpt>
<trkpt lat="53.2997931" lon="18.4240438">
<ele>119</ele>
<time>2015-06-26T12:18:08Z</time>
</trkpt>
<trkpt lat="53.2997938" lon="18.4240462">
<ele>119</ele>
<time>2015-06-26T12:18:12Z</time>
</trkpt>
<trkpt lat="53.2997943" lon="18.4240461">
<ele>119</ele>
<time>2015-06-26T12:18:14Z</time>
</trkpt>
<trkpt lat="53.2997933" lon="18.4240461">
<ele>119</ele>
<time>2015-06-26T12:18:16Z</time>
</trkpt>
<trkpt lat="53.2997925" lon="18.4240442">
<ele>119</ele>
<time>2015-06-26T12:18:18Z</time>
</trkpt>
<trkpt lat="53.2997926" lon="18.4240442">
<ele>119</ele>
<time>2015-06-26T12:18:20Z</time>
</trkpt>
<trkpt lat="53.2997927" lon="18.4240443">
<ele>119</ele>
<time>2015-06-26T12:18:22Z</time>
</trkpt>
<trkpt lat="53.2997928" lon="18.4240444">
<ele>119</ele>
<time>2015-06-26T12:18:24Z</time>
</trkpt>
<trkpt lat="53.2997928" lon="18.4240451">
<ele>119</ele>
<time>2015-06-26T12:18:28Z</time>
</trkpt>
<trkpt lat="53.2997929" lon="18.4240454">
<ele>119</ele>
<time>2015-06-26T12:18:30Z</time>
</trkpt>
<trkpt lat="53.2997929" lon="18.4240455">
<ele>119</ele>
<time>2015-06-26T12:18:32Z</time>
</trkpt>
<trkpt lat="53.2997930" lon="18.4240455">
<ele>119</ele>
<time>2015-06-26T12:18:34Z</time>
</trkpt>
<trkpt lat="53.2997930" lon="18.4240455">
<ele>119</ele>
<time>2015-06-26T12:18:36Z</time>
</trkpt>
<trkpt lat="53.2997930" lon="18.4240455">
<ele>119</ele>
<time>2015-06-26T12:18:38Z</time>
</trkpt>
<trkpt lat="53.2997930" lon="18.4240455">
<ele>119</ele>
<time>2015-06-26T12:18:40Z</time>
</trkpt>
<trkpt lat="53.2997930" lon="18.4240455">
<ele>119</ele>
<time>2015-06-26T12:18:42Z</time>
</trkpt>
<trkpt lat="53.2997930" lon="18.4240455">
<ele>119</ele>
<time>2015-06-26T12:18:44Z</time>
</trkpt>
<trkpt lat="53.2997930" lon="18.4240455">
<ele>119</ele>
<time>2015-06-26T12:18:46Z</time>
</trkpt>
<trkpt lat="53.2997930" lon="18.4240455">
<ele>119</ele>
<time>2015-06-26T12:18:48Z</time>
</trkpt>
<trkpt lat="53.2997931" lon="18.4240455">
<ele>119</ele>
<time>2015-06-26T12:18:50Z</time>
</trkpt>
<trkpt lat="53.2997931" lon="18.4240455">
<ele>119</ele>
<time>2015-06-26T12:18:52Z</time>
</trkpt>
<trkpt lat="53.2997931" lon="18.4240455">
<ele>119</ele>
<time>2015-06-26T12:18:54Z</time>
</trkpt>
<trkpt lat="53.2997931" lon="18.4240455">
<ele>119</ele>
<time>2015-06-26T12:18:56Z</time>
</trkpt>
<trkpt lat="53.2997931" lon="18.4240455">
<ele>119</ele>
<time>2015-06-26T12:18:58Z</time>
</trkpt>
<trkpt lat="53.2997931" lon="18.4240455">
<ele>119</ele>
<time>2015-06-26T12:19:00Z</time>
</trkpt>
<trkpt lat="53.2997931" lon="18.4240455">
<ele>119</ele>
<time>2015-06-26T12:19:02Z</time>
</trkpt>
<trkpt lat="53.2997931" lon="18.4240455">
<ele>119</ele>
<time>2015-06-26T12:19:04Z</time>
</trkpt>
<trkpt lat="53.2997932" lon="18.4240455">
<ele>119</ele>
<time>2015-06-26T12:19:06Z</time>
</trkpt>
<trkpt lat="53.2997932" lon="18.4240455">
<ele>119</ele>
<time>2015-06-26T12:19:08Z</time>
</trkpt>
<trkpt lat="53.2997932" lon="18.4240455">
<ele>119</ele>
<time>2015-06-26T12:19:10Z</time>
</trkpt>
<trkpt lat="53.2997932" lon="18.4240455">
<ele>119</ele>
<time>2015-06-26T12:19:12Z</time>
</trkpt>
<trkpt lat="53.2997932" lon="18.4240455">
<ele>119</ele>
<time>2015-06-26T12:19:14Z</time>
</trkpt>
<trkpt lat="53.2997932" lon="18.4240455">
<ele>119</ele>
<time>2015-06-26T12:19:16Z</time>
</trkpt>
<trkpt lat="53.2997931" lon="18.4240455">
<ele>119</ele>
<time>2015-06-26T12:19:18Z</time>
</trkpt>
<trkpt lat="53.2997931" lon="18.4240455">
<ele>119</ele>
<time>2015-06-26T12:19:20Z</time>
</trkpt>
<trkpt lat="53.2997931" lon="18.4240455">
<ele>119</ele>
<time>2015-06-26T12:19:22Z</time>
</trkpt>
<trkpt lat="53.2997931" lon="18.4240455">
<ele>119</ele>
<time>2015-06-26T12:19:24Z</time>
</trkpt>
<trkpt lat="53.2997931" lon="18.4240455">
<ele>119</ele>
<time>2015-06-26T12:19:26Z</time>
</trkpt>
<trkpt lat="53.2997931" lon="18.4240455">
<ele>119</ele>
<time>2015-06-26T12:19:28Z</time>
</trkpt>
<trkpt lat="53.2997931" lon="18.4240456">
<ele>119</ele>
<time>2015-06-26T12:19:32Z</time>
</trkpt>
<trkpt lat="53.2997933" lon="18.4240436">
<ele>119</ele>
<time>2015-06-26T12:19:34Z</time>
</trkpt>
<trkpt lat="53.2997878" lon="18.4240254">
<ele>120</ele>
<time>2015-06-26T12:19:36Z</time>
</trkpt>
<trkpt lat="53.2997737" lon="18.4240043">
<ele>121</ele>
<time>2015-06-26T12:19:38Z</time>
</trkpt>
<trkpt lat="53.2997655" lon="18.4240010">
<ele>120</ele>
<time>2015-06-26T12:19:40Z</time>
</trkpt>
<trkpt lat="53.2997760" lon="18.4240141">
<ele>120</ele>
<time>2015-06-26T12:19:42Z</time>
</trkpt>
<trkpt lat="53.2997861" lon="18.4240245">
<ele>120</ele>
<time>2015-06-26T12:19:44Z</time>
</trkpt>
<trkpt lat="53.2997947" lon="18.4240339">
<ele>120</ele>
<time>2015-06-26T12:19:46Z</time>
</trkpt>
<trkpt lat="53.2997673" lon="18.4241706">
<ele>121</ele>
<time>2015-06-26T12:19:54Z</time>
</trkpt>
<trkpt lat="53.2997704" lon="18.4242577">
<ele>121</ele>
<time>2015-06-26T12:19:56Z</time>
</trkpt>
<trkpt lat="53.2997705" lon="18.4243530">
<ele>119</ele>
<time>2015-06-26T12:19:58Z</time>
</trkpt>
<trkpt lat="53.2997743" lon="18.4244485">
<ele>121</ele>
<time>2015-06-26T12:20:00Z</time>
</trkpt>
<trkpt lat="53.2997765" lon="18.4245455">
<ele>121</ele>
<time>2015-06-26T12:20:02Z</time>
</trkpt>
<trkpt lat="53.2997785" lon="18.4247362">
<ele>120</ele>
<time>2015-06-26T12:20:06Z</time>
</trkpt>
<trkpt lat="53.2997801" lon="18.4248278">
<ele>119</ele>
<time>2015-06-26T12:20:08Z</time>
</trkpt>
<trkpt lat="53.2997800" lon="18.4250082">
<ele>121</ele>
<time>2015-06-26T12:20:12Z</time>
</trkpt>
<trkpt lat="53.2997761" lon="18.4250949">
<ele>121</ele>
<time>2015-06-26T12:20:14Z</time>
</trkpt>
<trkpt lat="53.2997711" lon="18.4251844">
<ele>120</ele>
<time>2015-06-26T12:20:16Z</time>
</trkpt>
<trkpt lat="53.2997715" lon="18.4252646">
<ele>120</ele>
<time>2015-06-26T12:20:18Z</time>
</trkpt>
<trkpt lat="53.2997759" lon="18.4253275">
<ele>119</ele>
<time>2015-06-26T12:20:20Z</time>
</trkpt>
<trkpt lat="53.2997808" lon="18.4253938">
<ele>120</ele>
<time>2015-06-26T12:20:22Z</time>
</trkpt>
<trkpt lat="53.2997853" lon="18.4254498">
<ele>122</ele>
<time>2015-06-26T12:20:24Z</time>
</trkpt>
<trkpt lat="53.2997890" lon="18.4255036">
<ele>123</ele>
<time>2015-06-26T12:20:26Z</time>
</trkpt>
<trkpt lat="53.2997910" lon="18.4255591">
<ele>123</ele>
<time>2015-06-26T12:20:28Z</time>
</trkpt>
<trkpt lat="53.2997942" lon="18.4256032">
<ele>122</ele>
<time>2015-06-26T12:20:30Z</time>
</trkpt>
<trkpt lat="53.2997971" lon="18.4255985">
<ele>123</ele>
<time>2015-06-26T12:20:32Z</time>
</trkpt>
<trkpt lat="53.2998037" lon="18.4255953">
<ele>122</ele>
<time>2015-06-26T12:20:34Z</time>
</trkpt>
<trkpt lat="53.2998027" lon="18.4255920">
<ele>121</ele>
<time>2015-06-26T12:20:36Z</time>
</trkpt>
<trkpt lat="53.2998010" lon="18.4255882">
<ele>121</ele>
<time>2015-06-26T12:20:38Z</time>
</trkpt>
<trkpt lat="53.2998017" lon="18.4255882">
<ele>120</ele>
<time>2015-06-26T12:20:40Z</time>
</trkpt>
<trkpt lat="53.2997911" lon="18.4256193">
<ele>121</ele>
<time>2015-06-26T12:20:44Z</time>
</trkpt>
<trkpt lat="53.2997492" lon="18.425664">
<ele>122</ele>
<time>2015-06-26T12:20:46Z</time>
</trkpt>
<trkpt lat="53.2996959" lon="18.4257022">
<ele>122</ele>
<time>2015-06-26T12:20:48Z</time>
</trkpt>
<trkpt lat="53.2996320" lon="18.4257358">
<ele>122</ele>
<time>2015-06-26T12:20:50Z</time>
</trkpt>
<trkpt lat="53.2995574" lon="18.4257776">
<ele>123</ele>
<time>2015-06-26T12:20:52Z</time>
</trkpt>
<trkpt lat="53.2994790" lon="18.425825">
<ele>122</ele>
<time>2015-06-26T12:20:54Z</time>
</trkpt>
<trkpt lat="53.2993993" lon="18.4258704">
<ele>122</ele>
<time>2015-06-26T12:20:56Z</time>
</trkpt>
<trkpt lat="53.2993078" lon="18.4259204">
<ele>121</ele>
<time>2015-06-26T12:20:58Z</time>
</trkpt>
<trkpt lat="53.2991811" lon="18.4259809">
<ele>120</ele>
<time>2015-06-26T12:21:00Z</time>
</trkpt>
<trkpt lat="53.2990766" lon="18.4260402">
<ele>121</ele>
<time>2015-06-26T12:21:02Z</time>
</trkpt>
<trkpt lat="53.2989743" lon="18.4261158">
<ele>120</ele>
<time>2015-06-26T12:21:04Z</time>
</trkpt>
<trkpt lat="53.2988576" lon="18.4261601">
<ele>121</ele>
<time>2015-06-26T12:21:06Z</time>
</trkpt>
<trkpt lat="53.2987462" lon="18.4262197">
<ele>122</ele>
<time>2015-06-26T12:21:08Z</time>
</trkpt>
<trkpt lat="53.2986039" lon="18.4262643">
<ele>121</ele>
<time>2015-06-26T12:21:10Z</time>
</trkpt>
<trkpt lat="53.2985153" lon="18.4263405">
<ele>121</ele>
<time>2015-06-26T12:21:12Z</time>
</trkpt>
<trkpt lat="53.2984603" lon="18.4264100">
<ele>122</ele>
<time>2015-06-26T12:21:14Z</time>
</trkpt>
<trkpt lat="53.2984649" lon="18.4265191">
<ele>119</ele>
<time>2015-06-26T12:21:16Z</time>
</trkpt>
<trkpt lat="53.2984805" lon="18.4265478">
<ele>117</ele>
<time>2015-06-26T12:21:18Z</time>
</trkpt>
<trkpt lat="53.2985126" lon="18.4265443">
<ele>117</ele>
<time>2015-06-26T12:21:20Z</time>
</trkpt>
<trkpt lat="53.2985076" lon="18.4265526">
<ele>119</ele>
<time>2015-06-26T12:21:22Z</time>
</trkpt>
<trkpt lat="53.2984889" lon="18.4265456">
<ele>119</ele>
<time>2015-06-26T12:21:24Z</time>
</trkpt>
<trkpt lat="53.2984808" lon="18.4265465">
<ele>120</ele>
<time>2015-06-26T12:21:26Z</time>
</trkpt>
<trkpt lat="53.2984759" lon="18.4265474">
<ele>120</ele>
<time>2015-06-26T12:21:28Z</time>
</trkpt>
<trkpt lat="53.2984815" lon="18.4265319">
<ele>120</ele>
<time>2015-06-26T12:21:30Z</time>
</trkpt>
<trkpt lat="53.2984799" lon="18.4264951">
<ele>118</ele>
<time>2015-06-26T12:21:32Z</time>
</trkpt>
<trkpt lat="53.2984805" lon="18.4264564">
<ele>117</ele>
<time>2015-06-26T12:21:34Z</time>
</trkpt>
<trkpt lat="53.2985086" lon="18.4264050">
<ele>116</ele>
<time>2015-06-26T12:21:36Z</time>
</trkpt>
<trkpt lat="53.2985570" lon="18.4263719">
<ele>117</ele>
<time>2015-06-26T12:21:38Z</time>
</trkpt>
<trkpt lat="53.2986221" lon="18.4263414">
<ele>117</ele>
<time>2015-06-26T12:21:40Z</time>
</trkpt>
<trkpt lat="53.2987248" lon="18.4263027">
<ele>116</ele>
<time>2015-06-26T12:21:42Z</time>
</trkpt>
<trkpt lat="53.2988739" lon="18.4262616">
<ele>117</ele>
<time>2015-06-26T12:21:44Z</time>
</trkpt>
<trkpt lat="53.2989645" lon="18.4262242">
<ele>117</ele>
<time>2015-06-26T12:21:46Z</time>
</trkpt>
<trkpt lat="53.2990466" lon="18.4261893">
<ele>116</ele>
<time>2015-06-26T12:21:48Z</time>
</trkpt>
<trkpt lat="53.2991352" lon="18.4261394">
<ele>114</ele>
<time>2015-06-26T12:21:50Z</time>
</trkpt>
<trkpt lat="53.2992243" lon="18.4260986">
<ele>114</ele>
<time>2015-06-26T12:21:52Z</time>
</trkpt>
<trkpt lat="53.2992747" lon="18.4260417">
<ele>117</ele>
<time>2015-06-26T12:21:54Z</time>
</trkpt>
<trkpt lat="53.2993738" lon="18.4259815">
<ele>117</ele>
<time>2015-06-26T12:21:56Z</time>
</trkpt>
<trkpt lat="53.2994518" lon="18.4259267">
<ele>119</ele>
<time>2015-06-26T12:21:58Z</time>
</trkpt>
<trkpt lat="53.2995206" lon="18.4258456">
<ele>116</ele>
<time>2015-06-26T12:22:00Z</time>
</trkpt>
<trkpt lat="53.2996056" lon="18.4257786">
<ele>116</ele>
<time>2015-06-26T12:22:02Z</time>
</trkpt>
<trkpt lat="53.2997454" lon="18.4257084">
<ele>119</ele>
<time>2015-06-26T12:22:04Z</time>
</trkpt>
<trkpt lat="53.3000569" lon="18.4255506">
<ele>120</ele>
<time>2015-06-26T12:22:08Z</time>
</trkpt>
<trkpt lat="53.3002881" lon="18.4253799">
<ele>116</ele>
<time>2015-06-26T12:22:10Z</time>
</trkpt>
<trkpt lat="53.3005858" lon="18.4252037">
<ele>116</ele>
<time>2015-06-26T12:22:12Z</time>
</trkpt>
<trkpt lat="53.3009038" lon="18.4250349">
<ele>115</ele>
<time>2015-06-26T12:22:14Z</time>
</trkpt>
<trkpt lat="53.3012486" lon="18.4248889">
<ele>111</ele>
<time>2015-06-26T12:22:16Z</time>
</trkpt>
<trkpt lat="53.3016254" lon="18.4248766">
<ele>112</ele>
<time>2015-06-26T12:22:18Z</time>
</trkpt>
<trkpt lat="53.3020067" lon="18.4248612">
<ele>114</ele>
<time>2015-06-26T12:22:20Z</time>
</trkpt>
<trkpt lat="53.3023870" lon="18.4248622">
<ele>116</ele>
<time>2015-06-26T12:22:22Z</time>
</trkpt>
<trkpt lat="53.3027552" lon="18.4248538">
<ele>119</ele>
<time>2015-06-26T12:22:24Z</time>
</trkpt>
<trkpt lat="53.3031129" lon="18.4248093">
<ele>119</ele>
<time>2015-06-26T12:22:26Z</time>
</trkpt>
<trkpt lat="53.3038316" lon="18.4247838">
<ele>121</ele>
<time>2015-06-26T12:22:30Z</time>
</trkpt>
<trkpt lat="53.3041725" lon="18.4247719">
<ele>121</ele>
<time>2015-06-26T12:22:32Z</time>
</trkpt>
<trkpt lat="53.3045092" lon="18.4247125">
<ele>120</ele>
<time>2015-06-26T12:22:34Z</time>
</trkpt>
<trkpt lat="53.3048292" lon="18.4246891">
<ele>119</ele>
<time>2015-06-26T12:22:36Z</time>
</trkpt>
<trkpt lat="53.3051616" lon="18.4246845">
<ele>120</ele>
<time>2015-06-26T12:22:38Z</time>
</trkpt>
<trkpt lat="53.3054941" lon="18.4246701">
<ele>119</ele>
<time>2015-06-26T12:22:40Z</time>
</trkpt>
<trkpt lat="53.3058259" lon="18.4246294">
<ele>119</ele>
<time>2015-06-26T12:22:42Z</time>
</trkpt>
<trkpt lat="53.3061450" lon="18.4245641">
<ele>119</ele>
<time>2015-06-26T12:22:44Z</time>
</trkpt>
<trkpt lat="53.3064659" lon="18.4245070">
<ele>117</ele>
<time>2015-06-26T12:22:46Z</time>
</trkpt>
<trkpt lat="53.3067771" lon="18.4244354">
<ele>119</ele>
<time>2015-06-26T12:22:48Z</time>
</trkpt>
<trkpt lat="53.3070795" lon="18.4243983">
<ele>119</ele>
<time>2015-06-26T12:22:50Z</time>
</trkpt>
<trkpt lat="53.3073892" lon="18.4243445">
<ele>119</ele>
<time>2015-06-26T12:22:52Z</time>
</trkpt>
<trkpt lat="53.3076707" lon="18.4242928">
<ele>119</ele>
<time>2015-06-26T12:22:54Z</time>
</trkpt>
<trkpt lat="53.3079716" lon="18.4242070">
<ele>116</ele>
<time>2015-06-26T12:22:56Z</time>
</trkpt>
<trkpt lat="53.3082793" lon="18.4241277">
<ele>117</ele>
<time>2015-06-26T12:22:58Z</time>
</trkpt>
<trkpt lat="53.3086230" lon="18.4240636">
<ele>116</ele>
<time>2015-06-26T12:23:00Z</time>
</trkpt>
<trkpt lat="53.3089589" lon="18.4239764">
<ele>115</ele>
<time>2015-06-26T12:23:02Z</time>
</trkpt>
<trkpt lat="53.3096092" lon="18.4238617">
<ele>113</ele>
<time>2015-06-26T12:23:06Z</time>
</trkpt>
<trkpt lat="53.3099155" lon="18.4237878">
<ele>112</ele>
<time>2015-06-26T12:23:08Z</time>
</trkpt>
<trkpt lat="53.3102189" lon="18.4237321">
<ele>112</ele>
<time>2015-06-26T12:23:10Z</time>
</trkpt>
<trkpt lat="53.3105190" lon="18.4236563">
<ele>110</ele>
<time>2015-06-26T12:23:12Z</time>
</trkpt>
<trkpt lat="53.3108162" lon="18.4235781">
<ele>108</ele>
<time>2015-06-26T12:23:14Z</time>
</trkpt>
<trkpt lat="53.3111053" lon="18.4235377">
<ele>109</ele>
<time>2015-06-26T12:23:16Z</time>
</trkpt>
<trkpt lat="53.3113905" lon="18.4235005">
<ele>109</ele>
<time>2015-06-26T12:23:18Z</time>
</trkpt>
<trkpt lat="53.3116823" lon="18.4234559">
<ele>110</ele>
<time>2015-06-26T12:23:20Z</time>
</trkpt>
<trkpt lat="53.3119433" lon="18.4234107">
<ele>112</ele>
<time>2015-06-26T12:23:22Z</time>
</trkpt>
<trkpt lat="53.3122056" lon="18.4233539">
<ele>113</ele>
<time>2015-06-26T12:23:24Z</time>
</trkpt>
<trkpt lat="53.3124372" lon="18.4233066">
<ele>114</ele>
<time>2015-06-26T12:23:26Z</time>
</trkpt>
<trkpt lat="53.3129152" lon="18.4231911">
<ele>113</ele>
<time>2015-06-26T12:23:30Z</time>
</trkpt>
<trkpt lat="53.3131529" lon="18.4231403">
<ele>112</ele>
<time>2015-06-26T12:23:32Z</time>
</trkpt>
<trkpt lat="53.3133926" lon="18.4231223">
<ele>116</ele>
<time>2015-06-26T12:23:34Z</time>
</trkpt>
<trkpt lat="53.3136306" lon="18.4230400">
<ele>114</ele>
<time>2015-06-26T12:23:36Z</time>
</trkpt>
<trkpt lat="53.3138484" lon="18.4229786">
<ele>111</ele>
<time>2015-06-26T12:23:38Z</time>
</trkpt>
<trkpt lat="53.3140683" lon="18.4229296">
<ele>111</ele>
<time>2015-06-26T12:23:40Z</time>
</trkpt>
<trkpt lat="53.3143106" lon="18.4228951">
<ele>111</ele>
<time>2015-06-26T12:23:42Z</time>
</trkpt>
<trkpt lat="53.3145450" lon="18.4228659">
<ele>113</ele>
<time>2015-06-26T12:23:44Z</time>
</trkpt>
<trkpt lat="53.3147788" lon="18.4228337">
<ele>114</ele>
<time>2015-06-26T12:23:46Z</time>
</trkpt>
<trkpt lat="53.3150455" lon="18.4228021">
<ele>116</ele>
<time>2015-06-26T12:23:48Z</time>
</trkpt>
<trkpt lat="53.3155064" lon="18.4226850">
<ele>113</ele>
<time>2015-06-26T12:23:52Z</time>
</trkpt>
<trkpt lat="53.3157421" lon="18.4226462">
<ele>113</ele>
<time>2015-06-26T12:23:54Z</time>
</trkpt>
<trkpt lat="53.3159967" lon="18.4226019">
<ele>113</ele>
<time>2015-06-26T12:23:56Z</time>
</trkpt>
<trkpt lat="53.3162458" lon="18.4225828">
<ele>114</ele>
<time>2015-06-26T12:23:58Z</time>
</trkpt>
<trkpt lat="53.3164845" lon="18.4225291">
<ele>114</ele>
<time>2015-06-26T12:24:00Z</time>
</trkpt>
<trkpt lat="53.3167127" lon="18.4224870">
<ele>116</ele>
<time>2015-06-26T12:24:02Z</time>
</trkpt>
<trkpt lat="53.3169881" lon="18.4224713">
<ele>116</ele>
<time>2015-06-26T12:24:04Z</time>
</trkpt>
<trkpt lat="53.3172317" lon="18.4224154">
<ele>117</ele>
<time>2015-06-26T12:24:06Z</time>
</trkpt>
<trkpt lat="53.3174675" lon="18.4223554">
<ele>119</ele>
<time>2015-06-26T12:24:08Z</time>
</trkpt>
<trkpt lat="53.3179370" lon="18.4222484">
<ele>119</ele>
<time>2015-06-26T12:24:12Z</time>
</trkpt>
<trkpt lat="53.3181986" lon="18.4221842">
<ele>118</ele>
<time>2015-06-26T12:24:14Z</time>
</trkpt>
<trkpt lat="53.3184638" lon="18.4221213">
<ele>118</ele>
<time>2015-06-26T12:24:16Z</time>
</trkpt>
<trkpt lat="53.3187260" lon="18.4220781">
<ele>118</ele>
<time>2015-06-26T12:24:18Z</time>
</trkpt>
<trkpt lat="53.3189889" lon="18.4220138">
<ele>117</ele>
<time>2015-06-26T12:24:20Z</time>
</trkpt>
<trkpt lat="53.3192586" lon="18.4219546">
<ele>115</ele>
<time>2015-06-26T12:24:22Z</time>
</trkpt>
<trkpt lat="53.3195232" lon="18.4218935">
<ele>114</ele>
<time>2015-06-26T12:24:24Z</time>
</trkpt>
<trkpt lat="53.3198437" lon="18.4218140">
<ele>111</ele>
<time>2015-06-26T12:24:26Z</time>
</trkpt>
<trkpt lat="53.3201308" lon="18.4217594">
<ele>114</ele>
<time>2015-06-26T12:24:28Z</time>
</trkpt>
<trkpt lat="53.3203798" lon="18.4216567">
<ele>112</ele>
<time>2015-06-26T12:24:30Z</time>
</trkpt>
<trkpt lat="53.3206691" lon="18.4216145">
<ele>111</ele>
<time>2015-06-26T12:24:32Z</time>
</trkpt>
<trkpt lat="53.3209482" lon="18.4215477">
<ele>110</ele>
<time>2015-06-26T12:24:34Z</time>
</trkpt>
<trkpt lat="53.3211725" lon="18.4214678">
<ele>109</ele>
<time>2015-06-26T12:24:36Z</time>
</trkpt>
<trkpt lat="53.3214128" lon="18.4214006">
<ele>109</ele>
<time>2015-06-26T12:24:38Z</time>
</trkpt>
<trkpt lat="53.3217670" lon="18.4213770">
<ele>111</ele>
<time>2015-06-26T12:24:42Z</time>
</trkpt>
<trkpt lat="53.3218541" lon="18.4215137">
<ele>112</ele>
<time>2015-06-26T12:24:44Z</time>
</trkpt>
<trkpt lat="53.3219037" lon="18.4216847">
<ele>112</ele>
<time>2015-06-26T12:24:46Z</time>
</trkpt>
<trkpt lat="53.3219508" lon="18.4219278">
<ele>113</ele>
<time>2015-06-26T12:24:48Z</time>
</trkpt>
<trkpt lat="53.3219953" lon="18.4221863">
<ele>113</ele>
<time>2015-06-26T12:24:50Z</time>
</trkpt>
<trkpt lat="53.3220413" lon="18.4225125">
<ele>116</ele>
<time>2015-06-26T12:24:52Z</time>
</trkpt>
<trkpt lat="53.3221169" lon="18.4228854">
<ele>118</ele>
<time>2015-06-26T12:24:54Z</time>
</trkpt>
<trkpt lat="53.3221662" lon="18.4232470">
<ele>118</ele>
<time>2015-06-26T12:24:56Z</time>
</trkpt>
<trkpt lat="53.3221867" lon="18.4235882">
<ele>119</ele>
<time>2015-06-26T12:24:58Z</time>
</trkpt>
<trkpt lat="53.3222758" lon="18.4240461">
<ele>118</ele>
<time>2015-06-26T12:25:00Z</time>
</trkpt>
<trkpt lat="53.3223607" lon="18.4243686">
<ele>120</ele>
<time>2015-06-26T12:25:02Z</time>
</trkpt>
<trkpt lat="53.3224530" lon="18.4247537">
<ele>121</ele>
<time>2015-06-26T12:25:04Z</time>
</trkpt>
<trkpt lat="53.3226431" lon="18.4251322">
<ele>120</ele>
<time>2015-06-26T12:25:06Z</time>
</trkpt>
<trkpt lat="53.3227933" lon="18.4255047">
<ele>120</ele>
<time>2015-06-26T12:25:08Z</time>
</trkpt>
<trkpt lat="53.3229110" lon="18.4258669">
<ele>119</ele>
<time>2015-06-26T12:25:10Z</time>
</trkpt>
<trkpt lat="53.3230087" lon="18.4261802">
<ele>119</ele>
<time>2015-06-26T12:25:12Z</time>
</trkpt>
<trkpt lat="53.3231105" lon="18.4264867">
<ele>119</ele>
<time>2015-06-26T12:25:14Z</time>
</trkpt>
<trkpt lat="53.3231963" lon="18.4268004">
<ele>118</ele>
<time>2015-06-26T12:25:16Z</time>
</trkpt>
<trkpt lat="53.3233214" lon="18.4275814">
<ele>114</ele>
<time>2015-06-26T12:25:20Z</time>
</trkpt>
<trkpt lat="53.3233525" lon="18.4278900">
<ele>115</ele>
<time>2015-06-26T12:25:22Z</time>
</trkpt>
<trkpt lat="53.3233789" lon="18.4281796">
<ele>116</ele>
<time>2015-06-26T12:25:24Z</time>
</trkpt>
<trkpt lat="53.3234083" lon="18.4284783">
<ele>117</ele>
<time>2015-06-26T12:25:26Z</time>
</trkpt>
<trkpt lat="53.3234200" lon="18.4286890">
<ele>117</ele>
<time>2015-06-26T12:25:28Z</time>
</trkpt>
<trkpt lat="53.3234379" lon="18.4288291">
<ele>117</ele>
<time>2015-06-26T12:25:30Z</time>
</trkpt>
<trkpt lat="53.3234605" lon="18.4289884">
<ele>118</ele>
<time>2015-06-26T12:25:32Z</time>
</trkpt>
<trkpt lat="53.3234779" lon="18.4292060">
<ele>119</ele>
<time>2015-06-26T12:25:34Z</time>
</trkpt>
<trkpt lat="53.3235021" lon="18.4294249">
<ele>118</ele>
<time>2015-06-26T12:25:36Z</time>
</trkpt>
<trkpt lat="53.3235334" lon="18.4297032">
<ele>119</ele>
<time>2015-06-26T12:25:38Z</time>
</trkpt>
<trkpt lat="53.3235836" lon="18.4299995">
<ele>120</ele>
<time>2015-06-26T12:25:40Z</time>
</trkpt>
<trkpt lat="53.3236137" lon="18.4303088">
<ele>119</ele>
<time>2015-06-26T12:25:42Z</time>
</trkpt>
<trkpt lat="53.3236443" lon="18.4306549">
<ele>118</ele>
<time>2015-06-26T12:25:44Z</time>
</trkpt>
<trkpt lat="53.3236821" lon="18.4310718">
<ele>119</ele>
<time>2015-06-26T12:25:46Z</time>
</trkpt>
<trkpt lat="53.3237209" lon="18.4315315">
<ele>120</ele>
<time>2015-06-26T12:25:48Z</time>
</trkpt>
<trkpt lat="53.3237659" lon="18.4319822">
<ele>120</ele>
<time>2015-06-26T12:25:50Z</time>
</trkpt>
<trkpt lat="53.3237990" lon="18.4324179">
<ele>122</ele>
<time>2015-06-26T12:25:52Z</time>
</trkpt>
<trkpt lat="53.3238389" lon="18.4328000">
<ele>121</ele>
<time>2015-06-26T12:25:54Z</time>
</trkpt>
<trkpt lat="53.3238511" lon="18.4330944">
<ele>121</ele>
<time>2015-06-26T12:25:56Z</time>
</trkpt>
<trkpt lat="53.3238715" lon="18.4332870">
<ele>122</ele>
<time>2015-06-26T12:25:58Z</time>
</trkpt>
<trkpt lat="53.3239352" lon="18.4333968">
<ele>121</ele>
<time>2015-06-26T12:26:00Z</time>
</trkpt>
<trkpt lat="53.3240394" lon="18.4333831">
<ele>118</ele>
<time>2015-06-26T12:26:02Z</time>
</trkpt>
<trkpt lat="53.3241508" lon="18.4333612">
<ele>118</ele>
<time>2015-06-26T12:26:04Z</time>
</trkpt>
<trkpt lat="53.3242888" lon="18.4332895">
<ele>116</ele>
<time>2015-06-26T12:26:06Z</time>
</trkpt>
<trkpt lat="53.3244704" lon="18.4332100">
<ele>117</ele>
<time>2015-06-26T12:26:08Z</time>
</trkpt>
<trkpt lat="53.3247170" lon="18.4331171">
<ele>118</ele>
<time>2015-06-26T12:26:10Z</time>
</trkpt>
<trkpt lat="53.3250207" lon="18.4330155">
<ele>118</ele>
<time>2015-06-26T12:26:12Z</time>
</trkpt>
<trkpt lat="53.3250951" lon="18.4329733">
<ele>117</ele>
<time>2015-06-26T12:26:14Z</time>
</trkpt>
<trkpt lat="53.3251653" lon="18.4329978">
<ele>115</ele>
<time>2015-06-26T12:26:16Z</time>
</trkpt>
<trkpt lat="53.3251736" lon="18.4329992">
<ele>114</ele>
<time>2015-06-26T12:26:18Z</time>
</trkpt>
<trkpt lat="53.3251741" lon="18.4329988">
<ele>114</ele>
<time>2015-06-26T12:26:20Z</time>
</trkpt>
<trkpt lat="53.3251742" lon="18.4330008">
<ele>113</ele>
<time>2015-06-26T12:26:22Z</time>
</trkpt>
<trkpt lat="53.3251887" lon="18.4329765">
<ele>111</ele>
<time>2015-06-26T12:26:24Z</time>
</trkpt>
<trkpt lat="53.3252126" lon="18.4329447">
<ele>109</ele>
<time>2015-06-26T12:26:26Z</time>
</trkpt>
<trkpt lat="53.3252265" lon="18.4329710">
<ele>109</ele>
<time>2015-06-26T12:26:28Z</time>
</trkpt>
<trkpt lat="53.3252465" lon="18.4330244">
<ele>108</ele>
<time>2015-06-26T12:26:30Z</time>
</trkpt>
<trkpt lat="53.3252810" lon="18.4331442">
<ele>107</ele>
<time>2015-06-26T12:26:32Z</time>
</trkpt>
<trkpt lat="53.3253012" lon="18.4333738">
<ele>108</ele>
<time>2015-06-26T12:26:34Z</time>
</trkpt>
<trkpt lat="53.3252651" lon="18.4336823">
<ele>108</ele>
<time>2015-06-26T12:26:36Z</time>
</trkpt>
<trkpt lat="53.3252803" lon="18.4340486">
<ele>107</ele>
<time>2015-06-26T12:26:38Z</time>
</trkpt>
<trkpt lat="53.3252621" lon="18.4344902">
<ele>107</ele>
<time>2015-06-26T12:26:40Z</time>
</trkpt>
<trkpt lat="53.3252654" lon="18.4349370">
<ele>107</ele>
<time>2015-06-26T12:26:42Z</time>
</trkpt>
<trkpt lat="53.3252561" lon="18.4354803">
<ele>109</ele>
<time>2015-06-26T12:26:44Z</time>
</trkpt>
<trkpt lat="53.3252455" lon="18.4360709">
<ele>110</ele>
<time>2015-06-26T12:26:46Z</time>
</trkpt>
<trkpt lat="53.3252500" lon="18.4366749">
<ele>107</ele>
<time>2015-06-26T12:26:48Z</time>
</trkpt>
<trkpt lat="53.3252483" lon="18.4372253">
<ele>105</ele>
<time>2015-06-26T12:26:50Z</time>
</trkpt>
<trkpt lat="53.3253217" lon="18.4377731">
<ele>103</ele>
<time>2015-06-26T12:26:52Z</time>
</trkpt>
<trkpt lat="53.3253785" lon="18.4383098">
<ele>104</ele>
<time>2015-06-26T12:26:54Z</time>
</trkpt>
<trkpt lat="53.3255854" lon="18.4394029">
<ele>106</ele>
<time>2015-06-26T12:26:58Z</time>
</trkpt>
<trkpt lat="53.3257199" lon="18.4399748">
<ele>106</ele>
<time>2015-06-26T12:27:00Z</time>
</trkpt>
<trkpt lat="53.3258637" lon="18.4405578">
<ele>106</ele>
<time>2015-06-26T12:27:02Z</time>
</trkpt>
<trkpt lat="53.3260213" lon="18.4411857">
<ele>108</ele>
<time>2015-06-26T12:27:04Z</time>
</trkpt>
<trkpt lat="53.3261854" lon="18.4418462">
<ele>109</ele>
<time>2015-06-26T12:27:06Z</time>
</trkpt>
<trkpt lat="53.3263467" lon="18.4424809">
<ele>110</ele>
<time>2015-06-26T12:27:08Z</time>
</trkpt>
<trkpt lat="53.3265134" lon="18.4431409">
<ele>111</ele>
<time>2015-06-26T12:27:10Z</time>
</trkpt>
<trkpt lat="53.3266448" lon="18.4436662">
<ele>113</ele>
<time>2015-06-26T12:27:12Z</time>
</trkpt>
<trkpt lat="53.3267840" lon="18.4441729">
<ele>113</ele>
<time>2015-06-26T12:27:14Z</time>
</trkpt>
<trkpt lat="53.3269099" lon="18.4446941">
<ele>115</ele>
<time>2015-06-26T12:27:16Z</time>
</trkpt>
<trkpt lat="53.3270335" lon="18.4452063">
<ele>114</ele>
<time>2015-06-26T12:27:18Z</time>
</trkpt>
<trkpt lat="53.3271495" lon="18.4456143">
<ele>112</ele>
<time>2015-06-26T12:27:20Z</time>
</trkpt>
<trkpt lat="53.3272706" lon="18.4460853">
<ele>113</ele>
<time>2015-06-26T12:27:22Z</time>
</trkpt>
<trkpt lat="53.3273942" lon="18.4465408">
<ele>111</ele>
<time>2015-06-26T12:27:24Z</time>
</trkpt>
<trkpt lat="53.3275424" lon="18.4470552">
<ele>111</ele>
<time>2015-06-26T12:27:26Z</time>
</trkpt>
<trkpt lat="53.3277193" lon="18.4476373">
<ele>112</ele>
<time>2015-06-26T12:27:28Z</time>
</trkpt>
<trkpt lat="53.3279324" lon="18.4482515">
<ele>113</ele>
<time>2015-06-26T12:27:30Z</time>
</trkpt>
<trkpt lat="53.3281906" lon="18.4489401">
<ele>109</ele>
<time>2015-06-26T12:27:32Z</time>
</trkpt>
<trkpt lat="53.3284115" lon="18.4496693">
<ele>109</ele>
<time>2015-06-26T12:27:34Z</time>
</trkpt>
<trkpt lat="53.3286837" lon="18.4504081">
<ele>108</ele>
<time>2015-06-26T12:27:36Z</time>
</trkpt>
<trkpt lat="53.3289774" lon="18.4511939">
<ele>105</ele>
<time>2015-06-26T12:27:38Z</time>
</trkpt>
<trkpt lat="53.3292478" lon="18.4519308">
<ele>105</ele>
<time>2015-06-26T12:27:40Z</time>
</trkpt>
<trkpt lat="53.3295432" lon="18.4527149">
<ele>103</ele>
<time>2015-06-26T12:27:42Z</time>
</trkpt>
<trkpt lat="53.3298088" lon="18.4534721">
<ele>100</ele>
<time>2015-06-26T12:27:44Z</time>
</trkpt>
<trkpt lat="53.3300959" lon="18.4542415">
<ele>99</ele>
<time>2015-06-26T12:27:46Z</time>
</trkpt>
<trkpt lat="53.3304074" lon="18.4550518">
<ele>98</ele>
<time>2015-06-26T12:27:48Z</time>
</trkpt>
<trkpt lat="53.3306952" lon="18.4559033">
<ele>94</ele>
<time>2015-06-26T12:27:50Z</time>
</trkpt>
<trkpt lat="53.3310068" lon="18.4568158">
<ele>90</ele>
<time>2015-06-26T12:27:52Z</time>
</trkpt>
<trkpt lat="53.3313539" lon="18.4577857">
<ele>86</ele>
<time>2015-06-26T12:27:54Z</time>
</trkpt>
<trkpt lat="53.3321522" lon="18.4598750">
<ele>84</ele>
<time>2015-06-26T12:27:58Z</time>
</trkpt>
<trkpt lat="53.3325744" lon="18.4609093">
<ele>84</ele>
<time>2015-06-26T12:28:00Z</time>
</trkpt>
<trkpt lat="53.3330021" lon="18.4619076">
<ele>86</ele>
<time>2015-06-26T12:28:02Z</time>
</trkpt>
<trkpt lat="53.3333550" lon="18.4628331">
<ele>87</ele>
<time>2015-06-26T12:28:04Z</time>
</trkpt>
<trkpt lat="53.3335778" lon="18.4635449">
<ele>86</ele>
<time>2015-06-26T12:28:06Z</time>
</trkpt>
<trkpt lat="53.3337758" lon="18.4641294">
<ele>88</ele>
<time>2015-06-26T12:28:08Z</time>
</trkpt>
<trkpt lat="53.3339639" lon="18.4645751">
<ele>89</ele>
<time>2015-06-26T12:28:10Z</time>
</trkpt>
<trkpt lat="53.3341777" lon="18.4649609">
<ele>91</ele>
<time>2015-06-26T12:28:12Z</time>
</trkpt>
<trkpt lat="53.3344313" lon="18.4653162">
<ele>93</ele>
<time>2015-06-26T12:28:14Z</time>
</trkpt>
<trkpt lat="53.3347110" lon="18.4656930">
<ele>93</ele>
<time>2015-06-26T12:28:16Z</time>
</trkpt>
<trkpt lat="53.3350443" lon="18.4660526">
<ele>95</ele>
<time>2015-06-26T12:28:18Z</time>
</trkpt>
<trkpt lat="53.3356139" lon="18.4667828">
<ele>101</ele>
<time>2015-06-26T12:28:22Z</time>
</trkpt>
<trkpt lat="53.3357867" lon="18.4671017">
<ele>103</ele>
<time>2015-06-26T12:28:24Z</time>
</trkpt>
<trkpt lat="53.3359157" lon="18.4674083">
<ele>104</ele>
<time>2015-06-26T12:28:26Z</time>
</trkpt>
<trkpt lat="53.3360177" lon="18.4676917">
<ele>104</ele>
<time>2015-06-26T12:28:28Z</time>
</trkpt>
<trkpt lat="53.3360972" lon="18.4679004">
<ele>104</ele>
<time>2015-06-26T12:28:30Z</time>
</trkpt>
<trkpt lat="53.3361792" lon="18.4681032">
<ele>104</ele>
<time>2015-06-26T12:28:34Z</time>
</trkpt>
<trkpt lat="53.3361746" lon="18.4680741">
<ele>105</ele>
<time>2015-06-26T12:28:36Z</time>
</trkpt>
<trkpt lat="53.3361421" lon="18.4680117">
<ele>107</ele>
<time>2015-06-26T12:28:38Z</time>
</trkpt>
<trkpt lat="53.3361457" lon="18.4680045">
<ele>109</ele>
<time>2015-06-26T12:28:40Z</time>
</trkpt>
<trkpt lat="53.3361475" lon="18.4680205">
<ele>110</ele>
<time>2015-06-26T12:28:42Z</time>
</trkpt>
<trkpt lat="53.3361389" lon="18.4679965">
<ele>110</ele>
<time>2015-06-26T12:28:44Z</time>
</trkpt>
<trkpt lat="53.3361313" lon="18.4679940">
<ele>110</ele>
<time>2015-06-26T12:28:46Z</time>
</trkpt>
<trkpt lat="53.3361401" lon="18.4680300">
<ele>110</ele>
<time>2015-06-26T12:28:48Z</time>
</trkpt>
<trkpt lat="53.3361621" lon="18.4681650">
<ele>110</ele>
<time>2015-06-26T12:28:50Z</time>
</trkpt>
<trkpt lat="53.3361967" lon="18.4682931">
<ele>113</ele>
<time>2015-06-26T12:28:52Z</time>
</trkpt>
<trkpt lat="53.3362550" lon="18.4684474">
<ele>111</ele>
<time>2015-06-26T12:28:54Z</time>
</trkpt>
<trkpt lat="53.3364326" lon="18.4684396">
<ele>110</ele>
<time>2015-06-26T12:28:56Z</time>
</trkpt>
<trkpt lat="53.3366459" lon="18.4682433">
<ele>109</ele>
<time>2015-06-26T12:28:58Z</time>
</trkpt>
<trkpt lat="53.3368633" lon="18.4679481">
<ele>111</ele>
<time>2015-06-26T12:29:00Z</time>
</trkpt>
<trkpt lat="53.3370928" lon="18.4676192">
<ele>111</ele>
<time>2015-06-26T12:29:02Z</time>
</trkpt>
<trkpt lat="53.3373474" lon="18.4672456">
<ele>110</ele>
<time>2015-06-26T12:29:04Z</time>
</trkpt>
<trkpt lat="53.3378545" lon="18.4663967">
<ele>110</ele>
<time>2015-06-26T12:29:08Z</time>
</trkpt>
<trkpt lat="53.3381669" lon="18.4659993">
<ele>113</ele>
<time>2015-06-26T12:29:10Z</time>
</trkpt>
<trkpt lat="53.3383692" lon="18.4655288">
<ele>112</ele>
<time>2015-06-26T12:29:12Z</time>
</trkpt>
<trkpt lat="53.3386197" lon="18.4650068">
<ele>111</ele>
<time>2015-06-26T12:29:14Z</time>
</trkpt>
<trkpt lat="53.338872" lon="18.4645617">
<ele>113</ele>
<time>2015-06-26T12:29:16Z</time>
</trkpt>
<trkpt lat="53.3391479" lon="18.4641410">
<ele>116</ele>
<time>2015-06-26T12:29:18Z</time>
</trkpt>
<trkpt lat="53.3394275" lon="18.4636992">
<ele>117</ele>
<time>2015-06-26T12:29:20Z</time>
</trkpt>
<trkpt lat="53.3397105" lon="18.4631403">
<ele>114</ele>
<time>2015-06-26T12:29:22Z</time>
</trkpt>
<trkpt lat="53.3399244" lon="18.4627036">
<ele>114</ele>
<time>2015-06-26T12:29:24Z</time>
</trkpt>
<trkpt lat="53.3401606" lon="18.4622826">
<ele>111</ele>
<time>2015-06-26T12:29:26Z</time>
</trkpt>
<trkpt lat="53.3403763" lon="18.4620450">
<ele>115</ele>
<time>2015-06-26T12:29:28Z</time>
</trkpt>
<trkpt lat="53.3405998" lon="18.4616270">
<ele>112</ele>
<time>2015-06-26T12:29:30Z</time>
</trkpt>
<trkpt lat="53.3408170" lon="18.4612653">
<ele>112</ele>
<time>2015-06-26T12:29:32Z</time>
</trkpt>
<trkpt lat="53.3410465" lon="18.4608408">
<ele>115</ele>
<time>2015-06-26T12:29:34Z</time>
</trkpt>
<trkpt lat="53.3412838" lon="18.4604442">
<ele>116</ele>
<time>2015-06-26T12:29:36Z</time>
</trkpt>
<trkpt lat="53.3414831" lon="18.4601119">
<ele>115</ele>
<time>2015-06-26T12:29:38Z</time>
</trkpt>
<trkpt lat="53.3416997" lon="18.4597712">
<ele>116</ele>
<time>2015-06-26T12:29:40Z</time>
</trkpt>
<trkpt lat="53.3419250" lon="18.4594141">
<ele>116</ele>
<time>2015-06-26T12:29:42Z</time>
</trkpt>
<trkpt lat="53.3421531" lon="18.4590210">
<ele>113</ele>
<time>2015-06-26T12:29:44Z</time>
</trkpt>
<trkpt lat="53.3423786" lon="18.4586761">
<ele>113</ele>
<time>2015-06-26T12:29:46Z</time>
</trkpt>
<trkpt lat="53.3426144" lon="18.4583811">
<ele>112</ele>
<time>2015-06-26T12:29:48Z</time>
</trkpt>
<trkpt lat="53.3428038" lon="18.4581508">
<ele>112</ele>
<time>2015-06-26T12:29:50Z</time>
</trkpt>
<trkpt lat="53.3429178" lon="18.4580125">
<ele>112</ele>
<time>2015-06-26T12:29:52Z</time>
</trkpt>
<trkpt lat="53.3429652" lon="18.4579784">
<ele>110</ele>
<time>2015-06-26T12:29:54Z</time>
</trkpt>
<trkpt lat="53.3429834" lon="18.4579862">
<ele>110</ele>
<time>2015-06-26T12:29:56Z</time>
</trkpt>
<trkpt lat="53.3429863" lon="18.457983">
<ele>109</ele>
<time>2015-06-26T12:29:58Z</time>
</trkpt>
<trkpt lat="53.3429854" lon="18.4579863">
<ele>108</ele>
<time>2015-06-26T12:30:00Z</time>
</trkpt>
<trkpt lat="53.3429761" lon="18.4579724">
<ele>109</ele>
<time>2015-06-26T12:30:02Z</time>
</trkpt>
<trkpt lat="53.3429688" lon="18.4579738">
<ele>109</ele>
<time>2015-06-26T12:30:04Z</time>
</trkpt>
<trkpt lat="53.3429697" lon="18.4579684">
<ele>108</ele>
<time>2015-06-26T12:30:06Z</time>
</trkpt>
<trkpt lat="53.3429669" lon="18.4579656">
<ele>107</ele>
<time>2015-06-26T12:30:08Z</time>
</trkpt>
<trkpt lat="53.3429638" lon="18.4579637">
<ele>108</ele>
<time>2015-06-26T12:30:10Z</time>
</trkpt>
<trkpt lat="53.3429636" lon="18.4579609">
<ele>107</ele>
<time>2015-06-26T12:30:12Z</time>
</trkpt>
<trkpt lat="53.3429632" lon="18.4579617">
<ele>107</ele>
<time>2015-06-26T12:30:14Z</time>
</trkpt>
<trkpt lat="53.3429630" lon="18.4579623">
<ele>107</ele>
<time>2015-06-26T12:30:16Z</time>
</trkpt>
<trkpt lat="53.3429735" lon="18.4579526">
<ele>107</ele>
<time>2015-06-26T12:30:18Z</time>
</trkpt>
<trkpt lat="53.3430474" lon="18.4578570">
<ele>108</ele>
<time>2015-06-26T12:30:20Z</time>
</trkpt>
<trkpt lat="53.3431466" lon="18.4577667">
<ele>109</ele>
<time>2015-06-26T12:30:22Z</time>
</trkpt>
<trkpt lat="53.3432494" lon="18.4576623">
<ele>110</ele>
<time>2015-06-26T12:30:24Z</time>
</trkpt>
<trkpt lat="53.3433459" lon="18.4575226">
<ele>107</ele>
<time>2015-06-26T12:30:26Z</time>
</trkpt>
<trkpt lat="53.3433788" lon="18.4574688">
<ele>106</ele>
<time>2015-06-26T12:30:28Z</time>
</trkpt>
<trkpt lat="53.3433793" lon="18.4574732">
<ele>105</ele>
<time>2015-06-26T12:30:30Z</time>
</trkpt>
<trkpt lat="53.3433751" lon="18.4574579">
<ele>104</ele>
<time>2015-06-26T12:30:32Z</time>
</trkpt>
<trkpt lat="53.3433709" lon="18.4574523">
<ele>104</ele>
<time>2015-06-26T12:30:34Z</time>
</trkpt>
<trkpt lat="53.3433708" lon="18.4574494">
<ele>103</ele>
<time>2015-06-26T12:30:36Z</time>
</trkpt>
<trkpt lat="53.3433676" lon="18.45745">
<ele>102</ele>
<time>2015-06-26T12:30:38Z</time>
</trkpt>
<trkpt lat="53.3433762" lon="18.4574425">
<ele>102</ele>
<time>2015-06-26T12:30:40Z</time>
</trkpt>
<trkpt lat="53.3434125" lon="18.4574185">
<ele>103</ele>
<time>2015-06-26T12:30:42Z</time>
</trkpt>
<trkpt lat="53.3434304" lon="18.4569995">
<ele>103</ele>
<time>2015-06-26T12:30:44Z</time>
</trkpt>
<trkpt lat="53.3433514" lon="18.4566929">
<ele>99</ele>
<time>2015-06-26T12:30:46Z</time>
</trkpt>
<trkpt lat="53.3432370" lon="18.4563515">
<ele>101</ele>
<time>2015-06-26T12:30:48Z</time>
</trkpt>
<trkpt lat="53.3432012" lon="18.4559519">
<ele>100</ele>
<time>2015-06-26T12:30:50Z</time>
</trkpt>
<trkpt lat="53.3432365" lon="18.4555583">
<ele>101</ele>
<time>2015-06-26T12:30:52Z</time>
</trkpt>
<trkpt lat="53.3433747" lon="18.4551694">
<ele>102</ele>
<time>2015-06-26T12:30:54Z</time>
</trkpt>
<trkpt lat="53.3435568" lon="18.4546738">
<ele>102</ele>
<time>2015-06-26T12:30:56Z</time>
</trkpt>
<trkpt lat="53.3437203" lon="18.4541828">
<ele>104</ele>
<time>2015-06-26T12:30:58Z</time>
</trkpt>
<trkpt lat="53.3438888" lon="18.4536663">
<ele>101</ele>
<time>2015-06-26T12:31:00Z</time>
</trkpt>
<trkpt lat="53.3440412" lon="18.4532243">
<ele>103</ele>
<time>2015-06-26T12:31:02Z</time>
</trkpt>
<trkpt lat="53.3441838" lon="18.4527718">
<ele>104</ele>
<time>2015-06-26T12:31:04Z</time>
</trkpt>
<trkpt lat="53.3443384" lon="18.4522349">
<ele>103</ele>
<time>2015-06-26T12:31:06Z</time>
</trkpt>
<trkpt lat="53.3444612" lon="18.4517843">
<ele>104</ele>
<time>2015-06-26T12:31:08Z</time>
</trkpt>
<trkpt lat="53.3445426" lon="18.4514877">
<ele>105</ele>
<time>2015-06-26T12:31:10Z</time>
</trkpt>
<trkpt lat="53.3446350" lon="18.4511535">
<ele>106</ele>
<time>2015-06-26T12:31:12Z</time>
</trkpt>
<trkpt lat="53.3447262" lon="18.4507864">
<ele>106</ele>
<time>2015-06-26T12:31:14Z</time>
</trkpt>
<trkpt lat="53.3448259" lon="18.4504347">
<ele>106</ele>
<time>2015-06-26T12:31:16Z</time>
</trkpt>
<trkpt lat="53.3449209" lon="18.4501005">
<ele>105</ele>
<time>2015-06-26T12:31:18Z</time>
</trkpt>
<trkpt lat="53.3449996" lon="18.4497278">
<ele>105</ele>
<time>2015-06-26T12:31:20Z</time>
</trkpt>
<trkpt lat="53.3450806" lon="18.4494433">
<ele>104</ele>
<time>2015-06-26T12:31:22Z</time>
</trkpt>
<trkpt lat="53.3450902" lon="18.4493091">
<ele>102</ele>
<time>2015-06-26T12:31:24Z</time>
</trkpt>
<trkpt lat="53.3450946" lon="18.4492006">
<ele>101</ele>
<time>2015-06-26T12:31:26Z</time>
</trkpt>
<trkpt lat="53.3451506" lon="18.4489434">
<ele>98</ele>
<time>2015-06-26T12:31:28Z</time>
</trkpt>
<trkpt lat="53.3452036" lon="18.4487157">
<ele>98</ele>
<time>2015-06-26T12:31:30Z</time>
</trkpt>
<trkpt lat="53.3452644" lon="18.4484131">
<ele>96</ele>
<time>2015-06-26T12:31:32Z</time>
</trkpt>
<trkpt lat="53.3453453" lon="18.4480548">
<ele>97</ele>
<time>2015-06-26T12:31:34Z</time>
</trkpt>
<trkpt lat="53.3454601" lon="18.4476155">
<ele>94</ele>
<time>2015-06-26T12:31:36Z</time>
</trkpt>
<trkpt lat="53.3455857" lon="18.4472787">
<ele>95</ele>
<time>2015-06-26T12:31:38Z</time>
</trkpt>
<trkpt lat="53.3457446" lon="18.4469453">
<ele>96</ele>
<time>2015-06-26T12:31:40Z</time>
</trkpt>
<trkpt lat="53.3459008" lon="18.4466894">
<ele>95</ele>
<time>2015-06-26T12:31:42Z</time>
</trkpt>
<trkpt lat="53.3460996" lon="18.4464642">
<ele>97</ele>
<time>2015-06-26T12:31:44Z</time>
</trkpt>
<trkpt lat="53.3462988" lon="18.4462922">
<ele>97</ele>
<time>2015-06-26T12:31:46Z</time>
</trkpt>
<trkpt lat="53.3464913" lon="18.4461275">
<ele>96</ele>
<time>2015-06-26T12:31:48Z</time>
</trkpt>
<trkpt lat="53.3466407" lon="18.4459553">
<ele>95</ele>
<time>2015-06-26T12:31:50Z</time>
</trkpt>
<trkpt lat="53.3468440" lon="18.4457702">
<ele>94</ele>
<time>2015-06-26T12:31:52Z</time>
</trkpt>
<trkpt lat="53.3469976" lon="18.4456854">
<ele>94</ele>
<time>2015-06-26T12:31:54Z</time>
</trkpt>
<trkpt lat="53.3471710" lon="18.4455262">
<ele>92</ele>
<time>2015-06-26T12:31:56Z</time>
</trkpt>
<trkpt lat="53.3472568" lon="18.4454788">
<ele>87</ele>
<time>2015-06-26T12:31:58Z</time>
</trkpt>
<trkpt lat="53.3473622" lon="18.4455523">
<ele>86</ele>
<time>2015-06-26T12:32:00Z</time>
</trkpt>
<trkpt lat="53.347395" lon="18.4455655">
<ele>86</ele>
<time>2015-06-26T12:32:02Z</time>
</trkpt>
<trkpt lat="53.3474562" lon="18.4456210">
<ele>86</ele>
<time>2015-06-26T12:32:04Z</time>
</trkpt>
<trkpt lat="53.3474730" lon="18.4456401">
<ele>87</ele>
<time>2015-06-26T12:32:06Z</time>
</trkpt>
<trkpt lat="53.3474847" lon="18.4456252">
<ele>85</ele>
<time>2015-06-26T12:32:08Z</time>
</trkpt>
<trkpt lat="53.3475092" lon="18.4456411">
<ele>86</ele>
<time>2015-06-26T12:32:10Z</time>
</trkpt>
<trkpt lat="53.3475213" lon="18.4456573">
<ele>85</ele>
<time>2015-06-26T12:32:12Z</time>
</trkpt>
<trkpt lat="53.3475197" lon="18.4456539">
<ele>87</ele>
<time>2015-06-26T12:32:14Z</time>
</trkpt>
<trkpt lat="53.3475572" lon="18.4456675">
<ele>88</ele>
<time>2015-06-26T12:32:16Z</time>
</trkpt>
<trkpt lat="53.3477143" lon="18.4457441">
<ele>93</ele>
<time>2015-06-26T12:32:18Z</time>
</trkpt>
<trkpt lat="53.3478309" lon="18.4457193">
<ele>93</ele>
<time>2015-06-26T12:32:20Z</time>
</trkpt>
<trkpt lat="53.3479445" lon="18.4456466">
<ele>92</ele>
<time>2015-06-26T12:32:22Z</time>
</trkpt>
<trkpt lat="53.3480211" lon="18.4456263">
<ele>93</ele>
<time>2015-06-26T12:32:24Z</time>
</trkpt>
<trkpt lat="53.3480605" lon="18.4456184">
<ele>94</ele>
<time>2015-06-26T12:32:28Z</time>
</trkpt>
<trkpt lat="53.3480416" lon="18.4456149">
<ele>96</ele>
<time>2015-06-26T12:32:30Z</time>
</trkpt>
<trkpt lat="53.3480520" lon="18.4455894">
<ele>95</ele>
<time>2015-06-26T12:32:32Z</time>
</trkpt>
<trkpt lat="53.348049" lon="18.4455826">
<ele>95</ele>
<time>2015-06-26T12:32:34Z</time>
</trkpt>
<trkpt lat="53.3480421" lon="18.4455669">
<ele>96</ele>
<time>2015-06-26T12:32:36Z</time>
</trkpt>
<trkpt lat="53.3480331" lon="18.4455476">
<ele>95</ele>
<time>2015-06-26T12:32:38Z</time>
</trkpt>
<trkpt lat="53.3480285" lon="18.4455652">
<ele>94</ele>
<time>2015-06-26T12:32:40Z</time>
</trkpt>
<trkpt lat="53.3480258" lon="18.4455520">
<ele>96</ele>
<time>2015-06-26T12:32:42Z</time>
</trkpt>
<trkpt lat="53.3480300" lon="18.4455382">
<ele>93</ele>
<time>2015-06-26T12:32:44Z</time>
</trkpt>
<trkpt lat="53.3480321" lon="18.4455220">
<ele>94</ele>
<time>2015-06-26T12:32:46Z</time>
</trkpt>
<trkpt lat="53.348032" lon="18.4455038">
<ele>94</ele>
<time>2015-06-26T12:32:48Z</time>
</trkpt>
<trkpt lat="53.3480427" lon="18.4455060">
<ele>93</ele>
<time>2015-06-26T12:32:50Z</time>
</trkpt>
<trkpt lat="53.3480427" lon="18.4455106">
<ele>92</ele>
<time>2015-06-26T12:32:52Z</time>
</trkpt>
<trkpt lat="53.3480368" lon="18.4455129">
<ele>92</ele>
<time>2015-06-26T12:32:54Z</time>
</trkpt>
<trkpt lat="53.3480326" lon="18.4455132">
<ele>92</ele>
<time>2015-06-26T12:32:56Z</time>
</trkpt>
<trkpt lat="53.3480323" lon="18.4455103">
<ele>92</ele>
<time>2015-06-26T12:32:58Z</time>
</trkpt>
<trkpt lat="53.3480346" lon="18.4455088">
<ele>92</ele>
<time>2015-06-26T12:33:00Z</time>
</trkpt>
<trkpt lat="53.3480349" lon="18.4455069">
<ele>92</ele>
<time>2015-06-26T12:33:02Z</time>
</trkpt>
<trkpt lat="" lon="">
<ele></ele>
<time>2015-06-26TZ</time>
</trkpt>
</trkseg>
</trk>
<wpt lat="" lon="">
	<name></name>
	<desc></desc>
	<cmt></cmt>
	<photoid></photoid>
	<type></type>
</wpt>
</gpx>
